[[{"header":{"parameterUnit":"m.s-1","parameterCategory":1,"la1":30.6,"la2":28.766,"lo1":-90.7593,"lo2":-88.6598,"dy":0.0162,"dx":0.0183,"nx":116,"ny":114,"refTime":"2023-06-14T06:00:00:Z","depth":0,"parameterNumber":2,"parameterNumberName":"U-component_of_WINDS"},"data":[0.0,0.0,0.0,0.0,0.0,0.0,0.0,0.0,0.0,0.0,0.0,0.0,0.0,0.0,0.0,0.0,0.0,0.0,0.0,0.0,0.0,0.0,0.0,0.0,0.0,0.0,0.0,0.0,0.0,0.0,0.0,0.0,0.0,0.0,0.0,0.0,0.0,0.0,0.0,0.0,0.0,0.0,0.0,0.0,0.0,0.0,0.0,0.0,0.0,0.0,0.0,0.0,0.0,0.0,0.0,0.0,0.0,0.0,0.0,0.0,0.0,0.0,0.0,0.0,0.0,0.0,0.0,0.0,0.0,0.0,0.0,0.0,0.0,0.0,0.0,0.0,0.0,0.0,0.0,0.0,0.0,0.0,0.0,0.0,0.0,0.0,0.0,0.0,0.0,0.0,0.0,0.0,0.0,0.0,0.0,0.0,0.0,0.0,0.0,0.0,0.0,0.0,0.0,0.0,0.0,0.0,0.0,0.0,0.0,0.0,0.0,0.0,0.0,0.0,0.0,0.0,0.0,0.0,0.0,0.0,0.0,0.0,0.0,0.0,0.0,0.0,0.0,0.0,0.0,0.0,0.0,0.0,0.0,0.0,0.0,0.0,0.0,0.0,0.0,0.0,0.0,0.0,0.0,0.0,0.0,0.0,0.0,0.0,0.0,0.0,0.0,0.0,0.0,0.0,0.0,0.0,0.0,0.0,0.0,0.0,0.0,0.0,0.0,0.0,0.0,0.0,0.0,0.0,0.0,0.0,0.0,0.0,0.0,0.0,0.0,0.0,0.0,0.0,0.0,0.0,0.0,0.0,0.0,0.0,0.0,0.0,0.0,0.0,0.0,0.0,0.0,0.0,0.0,0.0,0.0,0.0,0.0,0.0,0.0,0.0,0.0,0.0,0.0,0.0,0.0,0.0,0.0,0.0,0.0,0.0,0.0,0.0,0.0,0.0,0.0,0.0,0.0,0.0,0.0,0.0,0.0,0.0,0.0,0.0,0.0,0.0,0.0,0.0,0.0,0.0,0.0,0.0,0.0,0.0,0.0,0.0,0.0,0.0,0.0,0.0,0.0,0.0,0.0,0.0,0.0,0.0,0.0,0.0,0.0,0.0,0.0,0.0,0.0,0.0,0.0,0.0,0.0,0.0,0.0,0.0,0.0,0.0,0.0,0.0,0.0,0.0,0.0,0.0,0.0,0.0,0.0,0.0,0.0,0.0,0.0,0.0,0.0,0.0,0.0,0.0,0.0,0.0,0.0,0.0,0.0,0.0,0.0,0.0,0.0,0.0,0.0,0.0,0.0,0.0,0.0,0.0,0.0,0.0,0.0,0.0,0.0,0.0,0.0,0.0,0.0,0.0,0.0,0.0,0.0,0.0,0.0,0.0,0.0,0.0,0.0,0.0,0.0,0.0,0.0,0.0,0.0,0.0,0.0,0.0,0.0,0.0,0.0,0.0,0.0,0.0,0.0,0.0,0.0,0.0,0.0,0.0,0.0,0.0,0.0,0.0,0.0,0.0,0.0,0.0,0.0,0.0,0.0,0.0,0.0,0.0,0.0,0.0,0.0,0.0,0.0,0.0,0.0,0.0,0.0,0.0,0.0,0.0,0.0,0.0,0.0,0.0,0.0,0.0,0.0,0.0,0.0,0.0,0.0,0.0,0.0,0.0,0.0,0.0,0.0,0.0,0.0,0.0,0.0,0.0,0.0,0.0,0.0,0.0,0.0,0.0,0.0,0.0,0.0,0.0,0.0,0.0,0.0,0.0,0.0,0.0,0.0,0.0,0.0,0.0,0.0,0.0,0.0,0.0,0.0,0.0,0.0,0.0,0.0,0.0,0.0,0.0,0.0,0.0,0.0,0.0,0.0,0.0,0.0,0.0,0.0,0.0,0.0,0.0,0.0,0.0,0.0,0.0,0.0,0.0,0.0,0.0,0.0,0.0,0.0,0.0,0.0,0.0,0.0,0.0,0.0,0.0,0.0,0.0,0.0,0.0,0.0,0.0,0.0,0.0,0.0,0.0,0.0,0.0,0.0,0.0,0.0,0.0,0.0,0.0,0.0,0.0,0.0,0.0,0.0,0.0,0.0,0.0,0.0,0.0,0.0,0.0,0.0,0.0,0.0,0.0,0.0,0.0,0.0,0.0,0.0,0.0,0.0,0.0,0.0,0.0,0.0,0.0,0.0,0.0,0.0,0.0,0.0,0.0,0.0,0.0,0.0,0.0,0.0,0.0,0.0,0.0,0.0,0.0,0.0,0.0,0.0,0.0,0.0,0.0,0.0,0.0,0.0,0.0,0.0,0.0,0.0,0.0,0.0,0.0,0.0,0.0,0.0,0.0,0.0,0.0,0.0,0.0,0.0,0.0,0.0,0.0,0.0,0.0,0.0,0.0,0.0,0.0,0.0,0.0,0.0,0.0,0.0,0.0,0.0,0.0,0.0,0.0,0.0,0.0,0.0,0.0,0.0,0.0,0.0,0.0,0.0,0.0,0.0,0.0,0.0,0.0,0.0,0.0,0.0,0.0,0.0,0.0,0.0,0.0,0.0,0.0,0.0,0.0,0.0,0.0,0.0,0.0,0.0,0.0,0.0,0.0,0.0,0.0,0.0,0.0,0.0,0.0,0.0,0.0,0.0,0.0,0.0,0.0,0.0,0.0,0.0,0.0,0.0,0.0,0.0,0.0,0.0,0.0,0.0,0.0,0.0,0.0,0.0,0.0,0.0,0.0,0.0,0.0,0.0,0.0,0.0,0.0,0.0,0.0,0.0,0.0,0.0,0.0,0.0,0.0,0.0,0.0,0.0,0.0,0.0,0.0,0.0,0.0,0.0,0.0,0.0,0.0,0.0,0.0,0.0,0.0,0.0,0.0,0.0,0.0,0.0,0.0,0.0,0.0,0.0,0.0,0.0,0.0,0.0,0.0,0.0,0.0,0.0,0.0,0.0,0.0,0.0,0.0,0.0,0.0,0.0,0.0,0.0,0.0,0.0,0.0,0.0,0.0,0.0,0.0,0.0,0.0,0.0,0.0,0.0,0.0,0.0,0.0,0.0,0.0,0.0,0.0,0.0,0.0,0.0,0.0,0.0,0.0,0.0,0.0,0.0,0.0,0.0,0.0,0.0,0.0,0.0,0.0,0.0,0.0,0.0,0.0,0.0,0.0,0.0,0.0,0.0,0.0,0.0,0.0,0.0,0.0,0.0,0.0,0.0,0.0,0.0,0.0,0.0,0.0,0.0,0.0,0.0,0.0,0.0,0.0,0.0,0.0,0.0,0.0,0.0,0.0,0.0,0.0,0.0,0.0,0.0,0.0,0.0,0.0,0.0,0.0,0.0,0.0,0.0,0.0,0.0,0.0,0.0,0.0,0.0,0.0,0.0,0.0,0.0,0.0,0.0,0.0,0.0,0.0,0.0,0.0,0.0,0.0,0.0,0.0,0.0,0.0,0.0,0.0,0.0,0.0,0.0,0.0,0.0,0.0,0.0,0.0,0.0,0.0,0.0,0.0,0.0,0.0,0.0,0.0,0.0,0.0,0.0,0.0,0.0,0.0,0.0,0.0,0.0,0.0,0.0,0.0,0.0,0.0,0.0,0.0,0.0,0.0,0.0,0.0,0.0,0.0,0.0,0.0,0.0,0.0,0.0,0.0,0.0,0.0,0.0,0.0,0.0,0.0,0.0,0.0,0.0,0.0,0.0,0.0,0.0,0.0,0.0,0.0,0.0,0.0,0.0,0.0,0.0,0.0,0.0,0.0,0.0,0.0,0.0,0.0,0.0,0.0,0.0,0.0,0.0,0.0,0.0,0.0,0.0,0.0,0.0,0.0,0.0,0.0,0.0,0.0,0.0,0.0,0.0,0.0,0.0,0.0,0.0,0.0,0.0,0.0,0.0,0.0,0.0,0.0,0.0,0.0,0.0,0.0,0.0,0.0,0.0,0.0,0.0,0.0,0.0,0.0,0.0,0.0,0.0,0.0,0.0,0.0,0.0,0.0,0.0,0.0,0.0,0.0,0.0,0.0,0.0,0.0,0.0,0.0,0.0,0.0,0.0,0.0,0.0,0.0,0.0,0.0,0.0,0.0,0.0,0.0,0.0,0.0,0.0,0.0,0.0,0.0,0.0,0.0,0.0,0.0,0.0,0.0,0.0,0.0,0.0,0.0,0.0,0.0,0.0,0.0,0.0,0.0,0.0,0.0,0.0,0.0,0.0,0.0,0.0,0.0,0.0,0.0,0.0,0.0,0.0,0.0,0.0,0.0,0.0,0.0,0.0,0.0,0.0,0.0,0.0,0.0,0.0,0.0,0.0,0.0,0.0,0.0,0.0,0.0,0.0,0.0,0.0,0.0,0.0,0.0,0.0,0.0,0.0,0.0,0.0,0.0,0.0,0.0,0.0,0.0,0.0,0.0,0.0,0.0,0.0,0.0,0.0,0.0,0.0,0.0,0.0,0.0,0.0,0.0,0.0,0.0,0.0,0.0,0.0,0.0,0.0,0.0,0.0,0.0,0.0,0.0,0.0,0.0,0.0,0.0,0.0,0.0,0.0,0.0,0.0,0.0,0.0,0.0,0.0,0.0,0.0,0.0,0.0,0.0,0.0,0.0,0.0,0.0,0.0,0.0,0.0,0.0,0.0,0.0,0.0,0.0,0.0,0.0,0.0,0.0,0.0,0.0,0.0,0.0,0.0,0.0,0.0,0.0,0.0,0.0,0.0,0.0,0.0,0.0,0.0,0.0,0.0,0.0,0.0,0.0,0.0,0.0,0.0,0.0,0.0,0.0,0.0,0.0,0.0,0.0,0.0,0.0,0.0,0.0,0.0,0.0,0.0,0.0,0.0,0.0,0.0,0.0,0.0,0.0,0.0,0.0,0.0,0.0,0.0,0.0,0.0,0.0,0.0,0.0,0.0,0.0,0.0,0.0,0.0,0.0,0.0,0.0,0.0,0.0,0.0,0.0,0.0,0.0,0.0,0.0,0.0,0.0,0.0,0.0,0.0,0.0,0.0,0.0,0.0,0.0,0.0,0.0,0.0,0.0,0.0,0.0,0.0,0.0,0.0,0.0,0.0,0.0,0.0,0.0,0.0,0.0,0.0,0.0,0.0,0.0,0.0,0.0,0.0,0.0,0.0,0.0,0.0,0.0,0.0,0.0,0.0,0.0,0.0,0.0,0.0,0.0,0.0,0.0,0.0,0.0,0.0,0.0,0.0,0.0,0.0,0.0,0.0,0.0,0.0,0.0,0.0,0.0,0.0,0.0,0.0,0.0,0.0,0.0,0.0,0.0,0.0,0.0,0.0,0.0,0.0,0.0,0.0,0.0,0.0,0.0,0.0,0.0,0.0,0.0,0.0,0.0,0.0,0.0,0.0,0.0,0.0,0.0,0.0,0.0,0.0,0.0,0.0,0.0,0.0,0.0,0.0,0.0,0.0,0.0,0.0,0.0,0.0,0.0,0.0,0.0,0.0,0.0,0.0,0.0,0.0,0.0,0.0,0.0,0.0,0.0,0.0,0.0,0.0,0.0,0.0,0.0,0.0,0.0,0.0,0.0,0.0,0.0,0.0,0.0,0.0,0.0,0.0,0.0,0.0,0.0,0.0,0.0,0.0,0.0,0.0,0.0,0.0,0.0,0.0,0.0,0.0,0.0,0.0,0.0,0.0,0.0,0.0,0.0,0.0,0.0,0.0,0.0,0.0,0.0,0.0,0.0,0.0,0.0,0.0,0.0,0.0,0.0,0.0,0.0,0.0,0.0,0.0,0.0,0.0,0.0,0.0,0.0,0.0,0.0,0.0,0.0,0.0,0.0,0.0,0.0,0.0,0.0,0.0,0.0,0.0,0.0,0.0,0.0,0.0,0.0,0.0,0.0,0.0,0.0,0.0,0.0,0.0,0.0,0.0,0.0,0.0,0.0,0.0,0.0,0.0,0.0,0.0,0.0,0.0,0.0,0.0,0.0,0.0,0.0,0.0,0.0,0.0,0.0,0.0,0.0,0.0,0.0,0.0,0.0,0.0,0.0,0.0,0.0,0.0,0.0,0.0,0.0,0.0,0.0,0.0,0.0,0.0,0.0,0.0,0.0,0.0,0.0,0.0,0.0,0.0,0.0,-5.871,0.0,0.0,0.0,0.0,0.0,0.0,0.0,0.0,0.0,0.0,0.0,0.0,0.0,0.0,0.0,0.0,0.0,0.0,0.0,0.0,0.0,0.0,0.0,0.0,0.0,0.0,0.0,0.0,0.0,0.0,0.0,0.0,0.0,0.0,0.0,0.0,0.0,0.0,0.0,0.0,0.0,0.0,0.0,0.0,0.0,0.0,0.0,0.0,0.0,0.0,0.0,0.0,0.0,0.0,0.0,0.0,0.0,0.0,0.0,0.0,0.0,0.0,0.0,0.0,0.0,0.0,0.0,0.0,0.0,0.0,0.0,0.0,0.0,0.0,0.0,0.0,0.0,0.0,0.0,0.0,0.0,0.0,0.0,0.0,0.0,0.0,0.0,0.0,0.0,0.0,0.0,0.0,0.0,0.0,0.0,0.0,0.0,0.0,0.0,0.0,0.0,0.0,0.0,0.0,0.0,0.0,0.0,0.0,0.0,0.0,0.0,0.0,0.0,0.0,0.0,0.0,-6.0086,0.0,0.0,0.0,0.0,0.0,0.0,0.0,0.0,0.0,0.0,0.0,0.0,0.0,0.0,0.0,0.0,0.0,0.0,0.0,0.0,0.0,0.0,0.0,0.0,0.0,0.0,0.0,0.0,0.0,0.0,0.0,0.0,0.0,0.0,0.0,0.0,0.0,0.0,0.0,0.0,0.0,0.0,0.0,0.0,0.0,0.0,0.0,0.0,0.0,0.0,0.0,0.0,0.0,0.0,0.0,0.0,0.0,0.0,0.0,0.0,0.0,0.0,0.0,0.0,0.0,0.0,0.0,0.0,0.0,0.0,0.0,0.0,0.0,0.0,0.0,0.0,0.0,0.0,0.0,0.0,0.0,0.0,0.0,0.0,0.0,0.0,0.0,0.0,0.0,0.0,0.0,0.0,0.0,0.0,0.0,0.0,0.0,0.0,0.0,0.0,0.0,0.0,0.0,0.0,0.0,0.0,0.0,0.0,-6.5652,-6.6281,-6.7298,-6.6221,-6.5712,-6.5592,-6.3438,-6.1912,-6.0984,-6.1313,0.0,0.0,0.0,0.0,0.0,0.0,0.0,0.0,0.0,0.0,0.0,0.0,0.0,0.0,0.0,0.0,0.0,0.0,0.0,0.0,0.0,0.0,0.0,0.0,0.0,0.0,0.0,0.0,0.0,0.0,0.0,0.0,0.0,0.0,0.0,0.0,0.0,0.0,-3.5937,-3.5879,-3.6016,-3.6309,-3.5605,0.0,0.0,0.0,0.0,0.0,0.0,0.0,0.0,0.0,0.0,0.0,0.0,0.0,0.0,0.0,0.0,0.0,0.0,0.0,0.0,0.0,0.0,0.0,0.0,0.0,0.0,0.0,0.0,0.0,0.0,0.0,0.0,0.0,0.0,0.0,0.0,0.0,0.0,0.0,0.0,0.0,0.0,0.0,-4.2029,-4.3712,0.0,0.0,0.0,0.0,0.0,0.0,0.0,0.0,0.0,0.0,0.0,0.0,0.0,-6.1875,-6.4874,-6.6549,-6.7418,-6.7597,-6.8196,-6.8585,-6.8734,-6.8555,-6.8465,-6.8465,-6.8106,0.0,-6.4306,-6.3258,0.0,0.0,0.0,0.0,0.0,0.0,0.0,0.0,0.0,0.0,0.0,0.0,0.0,0.0,0.0,0.0,0.0,0.0,0.0,0.0,0.0,0.0,0.0,0.0,0.0,0.0,0.0,0.0,0.0,0.0,0.0,0.0,0.0,0.0,0.0,0.0,-3.6113,-3.6328,-3.6738,-3.6738,-3.6836,-3.7012,-3.6621,-3.6328,-3.6094,-3.584,0.0,0.0,0.0,0.0,0.0,0.0,0.0,0.0,0.0,0.0,0.0,0.0,0.0,0.0,0.0,0.0,0.0,0.0,0.0,0.0,0.0,0.0,0.0,0.0,0.0,0.0,0.0,0.0,0.0,0.0,0.0,0.0,0.0,0.0,0.0,0.0,0.0,0.0,0.0,-4.1268,-4.4133,-4.5012,-4.7172,-4.8134,0.0,0.0,0.0,0.0,0.0,0.0,0.0,0.0,0.0,-6.1968,-6.3874,-6.5551,-6.7119,-6.8435,-6.9453,-7.0171,-7.0859,-7.1398,-7.1757,-7.1757,-7.1547,-7.1188,-7.1188,-7.032,-6.8734,-6.667,-6.5832,-6.5742,0.0,0.0,0.0,0.0,-6.4425,-6.4485,0.0,0.0,0.0,0.0,0.0,0.0,0.0,0.0,0.0,0.0,0.0,0.0,0.0,0.0,0.0,0.0,0.0,0.0,0.0,0.0,0.0,0.0,0.0,0.0,0.0,0.0,0.0,0.0,-3.6777,-3.7051,-3.7461,-3.7461,-3.7578,-3.7793,-3.7793,-3.75,-3.6953,-3.6523,-3.6172,0.0,0.0,0.0,0.0,0.0,0.0,0.0,0.0,0.0,0.0,0.0,0.0,0.0,0.0,0.0,0.0,0.0,0.0,0.0,0.0,0.0,0.0,0.0,0.0,0.0,0.0,0.0,0.0,0.0,0.0,0.0,0.0,0.0,0.0,0.0,0.0,0.0,0.0,-4.4484,-4.6679,-4.6932,-4.9891,-5.1046,0.0,0.0,0.0,0.0,0.0,0.0,-6.0456,-6.2825,-6.4653,-6.6089,-6.8169,-6.9393,-6.9722,-7.0919,-7.1966,-7.2924,-7.3582,-7.4091,-7.442,-7.442,-7.4061,-7.3402,-7.3402,-7.3223,-7.2714,-6.9871,-6.8615,-6.8405,-6.7747,-6.7208,-6.6849,-6.7328,-6.7508,-6.7567,0.0,0.0,0.0,0.0,0.0,0.0,0.0,0.0,0.0,0.0,0.0,0.0,0.0,0.0,0.0,0.0,0.0,0.0,0.0,0.0,0.0,0.0,0.0,0.0,0.0,0.0,0.0,-3.668,-3.707,-3.748,-3.7891,-3.7891,-3.832,-3.9101,-3.9101,-3.8652,-3.7832,-3.7402,-3.7226,-3.7168,0.0,0.0,0.0,0.0,0.0,0.0,0.0,0.0,0.0,0.0,0.0,0.0,0.0,0.0,0.0,0.0,0.0,0.0,0.0,0.0,0.0,0.0,0.0,0.0,0.0,0.0,0.0,0.0,0.0,0.0,0.0,0.0,0.0,0.0,0.0,0.0,0.0,0.0,0.0,-5.0996,-5.3909,0.0,0.0,0.0,0.0,-5.7194,-5.8461,-6.1166,-6.5939,-6.6954,-6.8898,-7.2372,-7.2558,-7.3283,-7.451,-7.5258,-7.5647,-7.5707,-7.6335,-7.6335,-7.5796,-7.5796,-7.5437,-7.4779,-7.4779,-7.5138,-7.5437,-7.2116,-7.038,-6.9752,-6.9153,-6.8884,-6.8854,-6.8884,-6.8884,-6.8914,0.0,0.0,0.0,0.0,0.0,0.0,0.0,0.0,0.0,0.0,0.0,0.0,0.0,0.0,0.0,0.0,0.0,0.0,0.0,0.0,0.0,0.0,0.0,0.0,0.0,0.0,-3.6934,-3.748,-3.7637,-3.793,-3.834,-3.834,-3.8652,-3.9199,-3.9199,-3.9199,-3.916,-3.8711,-3.8359,-3.8105,-3.7949,-3.7383,0.0,0.0,0.0,0.0,0.0,0.0,0.0,0.0,0.0,0.0,0.0,0.0,0.0,0.0,0.0,0.0,0.0,0.0,0.0,0.0,0.0,0.0,0.0,0.0,0.0,0.0,0.0,0.0,0.0,0.0,0.0,0.0,0.0,0.0,0.0,0.0,0.0,-5.3934,-5.6846,0.0,-5.6294,-5.8037,-6.0215,-6.2447,-6.5,-6.8246,-7.2374,-7.3221,-7.4496,-7.6634,-7.6694,-7.6933,-7.7382,-7.7203,-7.7143,-7.7143,-7.7352,-7.7113,-7.6485,-7.6485,-7.6155,-7.5527,-7.5078,-7.5258,-7.5826,-7.4629,-7.3732,-7.3013,-7.1936,-7.1248,-7.0919,-7.1368,-7.1517,-7.1577,0.0,0.0,0.0,0.0,0.0,0.0,0.0,0.0,0.0,0.0,0.0,0.0,0.0,0.0,0.0,0.0,0.0,0.0,0.0,0.0,0.0,0.0,0.0,0.0,0.0,-3.6816,-3.7226,-3.793,-3.8066,-3.8301,-3.8574,-3.8574,-3.8887,-3.9434,-3.9434,-3.9766,-4.0312,-4.0,-3.9531,-3.9023,-3.9023,-3.8594,-3.7812,0.0,0.0,0.0,0.0,0.0,0.0,0.0,0.0,0.0,0.0,0.0,0.0,0.0,0.0,0.0,0.0,0.0,0.0,0.0,0.0,0.0,0.0,0.0,0.0,0.0,0.0,0.0,0.0,0.0,0.0,0.0,0.0,0.0,0.0,0.0,-5.652,-5.652,-5.9759,-6.1659,-6.0788,-6.2964,-6.5646,-6.8417,-7.1051,-7.4005,-7.7401,-7.816,-7.8998,-8.0105,-8.0135,-8.0016,-7.9806,-7.9148,-7.8699,-7.8489,-7.825,-7.7801,-7.7173,-7.7173,-7.6814,-7.6185,-7.5736,-7.5916,-7.6544,-7.6305,-7.6066,-7.5736,-7.442,-7.3492,-7.2954,-7.3402,-7.3582,-7.3642,0.0,0.0,0.0,0.0,0.0,0.0,0.0,0.0,0.0,0.0,0.0,0.0,0.0,0.0,0.0,0.0,0.0,0.0,0.0,0.0,0.0,0.0,0.0,0.0,-3.668,-3.7109,-3.7519,-3.7949,-3.8359,-3.8574,-3.8574,-3.8594,-3.9062,-3.9902,-3.9902,-4.0391,-4.1172,-4.1172,-4.0703,-3.9941,-3.9941,-3.9668,-3.9141,0.0,0.0,0.0,0.0,0.0,0.0,0.0,0.0,0.0,0.0,0.0,0.0,0.0,0.0,0.0,0.0,0.0,0.0,0.0,0.0,0.0,0.0,0.0,0.0,0.0,0.0,0.0,0.0,0.0,0.0,0.0,0.0,0.0,-5.308,-5.6369,-5.883,-5.8905,-6.2722,-6.5575,-6.6344,-6.841,-7.1174,-7.4833,-7.6335,-7.8109,-8.0809,-8.1542,-8.217,-8.2858,-8.2858,-8.2529,-8.1871,-8.1212,-8.0524,-7.9866,-7.9148,-7.8489,-7.7861,-7.7831,-7.7472,-7.6844,-7.6844,-7.7203,-7.7771,-7.7113,-7.7233,-7.7682,-7.6425,-7.5527,-7.4899,-7.4899,-7.4899,-7.4869,0.0,0.0,0.0,0.0,0.0,0.0,0.0,0.0,0.0,0.0,0.0,0.0,0.0,0.0,0.0,0.0,0.0,0.0,0.0,0.0,0.0,0.0,0.0,0.0,-3.7109,-3.7539,-3.7969,-3.8398,-3.8516,-3.8574,-3.8574,-3.8887,-3.9336,-3.9902,-4.0215,-4.0664,-4.1172,-4.1172,-4.1035,-4.082,-4.082,-4.0547,-4.0098,0.0,0.0,0.0,0.0,0.0,0.0,0.0,0.0,0.0,0.0,0.0,0.0,0.0,0.0,0.0,0.0,0.0,0.0,0.0,0.0,0.0,0.0,0.0,0.0,0.0,0.0,0.0,0.0,0.0,0.0,0.0,0.0,-5.5139,-5.6369,-5.883,-6.124,-6.3249,-6.5283,-6.7536,-7.0198,-7.2742,-7.5455,-7.8134,-8.0088,-8.1879,-8.3576,-8.3816,-8.4414,-8.5551,-8.5132,-8.4564,-8.3906,-8.2798,-8.1901,-8.1242,-8.0075,-7.9447,-7.9238,-7.825,-7.7711,-7.7502,-7.7023,-7.7203,-7.7801,-7.7622,-7.7652,-7.7741,-7.6904,-7.6185,-7.5617,-7.5617,-7.5318,-7.4869,0.0,0.0,0.0,0.0,0.0,0.0,0.0,0.0,0.0,0.0,0.0,0.0,0.0,0.0,0.0,0.0,0.0,0.0,0.0,0.0,0.0,0.0,0.0,-3.6953,-3.7539,-3.7793,-3.8144,-3.8574,-3.8574,-3.8574,-3.8574,-3.8828,-3.9277,-3.9902,-4.0156,-4.0605,-4.1172,-4.1172,-4.1172,-4.1172,-4.1172,-4.1016,-4.0665,-3.928,-3.85,-3.7765,-3.5724,-3.4015,-3.2406,-3.0943,0.0,0.0,0.0,0.0,0.0,0.0,0.0,0.0,0.0,0.0,0.0,0.0,0.0,0.0,0.0,0.0,0.0,0.0,0.0,0.0,0.0,0.0,0.0,0.0,-5.5315,-5.7851,-6.0035,-6.1617,-6.35,-6.6036,-6.8224,-7.0914,-7.4563,-7.6955,-7.9491,-8.2406,-8.3466,-8.4564,-8.591,-8.597,-8.6449,-8.7496,-8.6868,-8.609,-8.5132,-8.3816,-8.2709,-8.1781,-8.0734,-8.0225,-8.0195,-7.9417,-7.9058,0.0,-7.837,-7.831,-7.8639,-7.834,-7.822,0.0,0.0,0.0,0.0,0.0,-7.5467,-7.4869,0.0,0.0,0.0,0.0,0.0,0.0,0.0,0.0,0.0,0.0,0.0,0.0,0.0,0.0,0.0,0.0,0.0,0.0,0.0,0.0,0.0,-3.666,-3.6816,-3.7207,-3.791,-3.8027,-3.8242,-3.8574,-3.8574,-3.8574,-3.8574,-3.8633,-3.9062,-3.9824,-3.9922,-4.0351,-4.1035,-4.1133,-4.1035,-4.0705,-4.0744,-4.0802,-4.0568,-3.8241,-3.7216,-3.6656,-3.3881,-3.2292,-3.1351,-3.0453,0.0,0.0,0.0,0.0,0.0,0.0,0.0,0.0,0.0,0.0,0.0,0.0,0.0,0.0,0.0,0.0,0.0,0.0,0.0,0.0,0.0,0.0,0.0,0.0,-5.7926,-6.0638,-6.34,-6.4279,-6.5459,-6.7643,-7.0797,-7.4467,-7.8576,-8.0417,-8.2959,-8.6649,-8.6359,-8.6599,-8.7856,0.0,0.0,0.0,0.0,-8.7287,-8.594,-8.4684,-8.3397,-8.211,-8.1452,-8.1123,-8.1123,-8.1063,-8.0973,-8.0883,-8.0285,-7.9986,-7.9866,-7.9178,-7.8849,-7.8729,-7.8071,-7.7412,-7.6754,-7.6125,-7.5467,0.0,0.0,0.0,0.0,0.0,0.0,0.0,0.0,0.0,0.0,0.0,0.0,0.0,0.0,0.0,0.0,0.0,0.0,0.0,0.0,0.0,-3.6211,-3.666,-3.7656,-3.8125,-3.793,-3.8594,-3.8828,-3.8574,-3.8574,-3.8574,-3.8574,-3.8926,-3.918,-3.9375,-4.0078,-4.0312,-4.0195,-4.0879,-3.9796,-3.769,-3.8021,-3.8351,-3.8469,-3.7982,-3.6737,-3.5067,-3.4137,-3.2619,-3.1128,-3.1507,-2.9633,-2.694,-2.5805,-2.8892,0.0,0.0,0.0,0.0,0.0,0.0,0.0,0.0,0.0,0.0,0.0,0.0,0.0,0.0,0.0,0.0,0.0,0.0,0.0,-5.6997,-5.9357,-6.1667,-6.4002,-6.5183,-6.6463,-6.8246,-7.0634,-7.4067,-7.9234,-8.076,-8.3393,-8.8002,-8.8185,-8.8454,-8.9232,-8.9292,0.0,-9.0249,-8.9621,-8.8663,-8.7317,-8.6509,-8.5432,-8.4145,0.0,0.0,-8.3158,-8.2619,-8.208,-8.1572,-8.1452,-8.1093,-8.0554,-7.9896,-7.9297,-7.8729,-7.8071,-7.7412,-7.6754,-7.6125,-7.5467,-7.4869,0.0,0.0,0.0,0.0,0.0,0.0,0.0,0.0,0.0,0.0,0.0,0.0,0.0,0.0,0.0,0.0,0.0,0.0,0.0,0.0,-3.6406,-3.7266,-3.8125,-3.8476,-3.8262,-3.9101,-3.9238,-3.8574,-3.8789,-3.8789,-3.8574,-3.8789,-3.9004,-3.9219,-3.9668,-3.9316,-3.8405,-3.8819,-3.7568,-3.5314,-3.5505,-3.5066,-3.4186,-3.4186,-3.3661,-3.2673,-3.1284,-3.0092,-2.9196,-2.9341,-3.0038,-3.0565,-2.8413,-3.1528,-3.5808,0.0,0.0,0.0,0.0,0.0,0.0,0.0,0.0,0.0,0.0,0.0,0.0,0.0,0.0,-5.0368,-5.2854,0.0,-5.7449,-5.996,-6.1743,-6.35,-6.5459,-6.7141,-6.8497,-6.9351,-7.1931,-7.516,-7.9019,-8.1699,-8.4534,-8.7615,-8.8717,-8.9471,-9.013,-9.016,-9.0309,-9.0638,-8.9681,-8.8693,-8.7706,-8.6689,-8.5701,-8.4714,-8.4384,-8.4235,-8.4205,-8.3876,-8.3547,-8.3217,-8.2559,-8.208,-8.1691,-8.0734,-7.9926,-7.9267,-7.8938,-7.819,-7.7233,-7.6604,-7.5946,-7.5347,0.0,0.0,0.0,0.0,0.0,0.0,0.0,0.0,0.0,0.0,0.0,0.0,0.0,0.0,0.0,0.0,0.0,0.0,0.0,-3.6133,-3.6797,-3.7988,-3.8633,-3.8906,-3.8828,-3.9531,-3.9492,-3.8691,-3.8965,-3.8906,-3.8574,-3.8574,-3.875,-3.9082,-3.879,-3.7859,-3.6615,-3.6374,-3.5054,-3.3106,-3.3185,-3.1794,-2.9771,-2.9697,-2.9917,-3.0106,-2.8743,-2.7703,-2.7297,-2.8133,-3.109,-3.4307,-3.3483,-3.5943,-3.8747,-3.7025,-3.6671,0.0,0.0,0.0,0.0,0.0,0.0,0.0,0.0,-4.7912,-4.6752,-5.1498,-5.2707,-5.3858,-5.7072,-5.878,-6.0487,-6.2898,-6.4228,-6.5534,-6.7216,-6.9074,-7.043,-7.0857,-7.3518,-7.6245,-7.8669,-8.2001,-8.4787,-8.6831,-8.8341,-8.9686,-9.0705,-9.0818,-9.0818,-9.0818,-8.9801,-8.8873,-8.8095,-8.7018,-8.612,-8.5492,-8.5492,-8.5492,-8.5492,-8.5492,-8.5342,-8.5013,-8.3726,-8.3008,-8.2754,-8.1482,-8.0524,-7.9806,-7.9537,-7.8759,-7.7741,-7.7083,-7.6425,-7.5796,0.0,0.0,0.0,0.0,0.0,0.0,0.0,0.0,0.0,0.0,0.0,0.0,0.0,0.0,0.0,0.0,0.0,0.0,0.0,-3.6523,-3.7559,-3.8457,-3.9668,-4.0137,-3.9766,-3.9844,-3.9648,-3.9141,-3.8809,-3.8613,-3.8574,-3.8574,-3.8594,-3.8579,-3.7203,-3.6391,-3.6026,-3.4974,-3.2985,-3.074,-3.082,-2.9377,-2.7148,-2.6971,-2.7215,-2.7948,-2.9448,-2.8528,-2.7323,-3.2538,-3.2843,-3.196,-3.7289,-3.9858,-4.0553,-3.8859,-3.6749,-3.4729,-3.3675,-3.2771,-3.2641,-3.4863,-3.5947,-3.7588,0.0,-4.6686,-5.0566,-5.0941,-5.5053,-5.8855,-5.9784,-6.1692,-6.355,-6.4806,-6.5961,-6.7267,-6.8924,-6.9803,-7.1008,-7.2991,-7.4364,-7.6228,-7.864,-7.9694,-8.2191,-8.6714,-8.7207,-8.8531,-9.1309,-9.1506,-9.1506,-9.1506,-9.1357,-9.0698,-8.9471,-8.9292,-8.8903,-8.8245,-8.8245,-8.8245,-8.8245,-8.8245,-8.7586,-8.6389,-8.5073,-8.3846,-8.2784,-8.1991,-8.0943,-7.9686,-7.8489,-7.7951,-7.7741,-7.7083,-7.6425,-7.5796,0.0,0.0,0.0,0.0,0.0,0.0,0.0,0.0,0.0,0.0,0.0,0.0,0.0,0.0,0.0,0.0,0.0,0.0,0.0,0.0,-3.7539,-3.8887,-3.9961,-4.0332,-3.9902,-4.0391,-4.0293,-3.9609,-3.9668,-3.959,-3.9336,-3.8009,-3.7464,-3.7314,-3.5463,-3.3909,-3.266,-3.2173,-3.0515,-2.8344,-2.9674,-2.9404,-2.8375,-2.9207,-2.9594,-2.953,-2.9353,-2.9404,0.0,0.0,-3.256,-3.3106,-3.5539,-3.805,-3.971,-3.7336,-3.6297,-3.5972,-3.5986,-3.4361,-3.3489,-3.6699,-3.9612,-4.2235,-4.4399,-4.7062,-5.021,-5.4049,-5.6962,-5.9886,-6.3077,-6.4731,-6.5961,-6.7041,-6.8422,-6.9727,-7.0732,-7.1912,-7.3016,-7.3971,-7.505,-7.6295,-7.7625,-7.8945,-8.0682,-8.3031,-8.5903,-8.8104,-8.9493,-9.1249,-9.2015,-9.1626,-9.1237,-9.0608,-8.9681,-8.9292,-8.8963,-8.8693,-8.8693,-8.8693,-8.8693,-8.8693,-8.7945,-8.6599,-8.5282,-8.3965,-8.2709,-8.205,-8.0764,-7.9178,-7.8609,-7.7921,-7.7173,-7.6514,-7.6125,-7.5796,0.0,0.0,0.0,0.0,0.0,0.0,0.0,0.0,0.0,0.0,0.0,0.0,0.0,0.0,0.0,0.0,0.0,0.0,0.0,0.0,-3.7539,-3.9141,-4.0059,0.0,-4.0254,-4.0742,-4.0684,-4.0078,-3.9605,-3.9319,-3.8937,-3.6723,-3.5702,-3.5624,-3.35,-3.1744,-3.0394,-2.9844,-2.892,-2.7997,-2.9406,-3.0058,-3.0315,-3.1302,-3.1712,-3.1722,-3.0452,-3.0421,0.0,0.0,-3.2684,-3.3785,-3.4034,-3.6085,-3.8014,-3.5604,-3.5489,-3.6271,-3.6988,-3.5689,-3.4754,-3.752,-4.1855,-4.5857,-4.7546,-4.8616,-5.0743,-5.6165,-5.8915,-6.1509,-6.5343,-6.6714,-6.7618,-6.8874,-7.033,-7.161,-7.2464,-7.3644,-7.4423,-7.4423,-7.4975,-7.5653,-7.6356,-7.7845,-7.9224,-8.0447,-8.452,-8.7422,-8.8415,-9.112,-9.2374,-9.1895,-9.1267,-9.0608,-8.995,-8.9471,-8.9232,-8.9232,-8.9232,-8.9232,-8.9202,-8.8843,-8.8065,-8.6868,-8.5372,-8.3965,-8.2709,-8.1871,-8.0554,-7.9028,-7.846,-7.7652,-7.6724,-7.5916,-7.5736,-7.5796,0.0,0.0,0.0,0.0,0.0,0.0,0.0,0.0,0.0,0.0,0.0,0.0,0.0,0.0,0.0,0.0,0.0,0.0,0.0,0.0,-3.7851,-3.9141,-4.0059,-4.0723,-4.1133,-4.0742,-4.0527,-4.0508,-3.7961,-3.6741,-3.6646,-3.4518,-3.35,-3.3421,-3.1284,-3.0519,-3.0669,-2.8648,-2.8895,-3.0625,-3.0379,-3.1041,-3.2119,-3.1457,-3.2202,-3.3553,-3.35,0.0,0.0,-3.3958,-3.4026,-3.2888,-3.4588,-3.5574,-3.5893,-3.4645,-3.4279,-3.4375,-3.5234,-3.5666,-3.6141,-3.7071,-4.1843,-4.6746,-4.8438,-5.1353,-5.4082,-5.5677,-6.0839,-6.5298,-6.6011,-6.7015,-6.8321,-6.9953,-7.1158,-7.2464,-7.4096,-7.4372,-7.4423,-7.4423,-7.3971,-7.4096,0.0,-7.5852,-7.7388,-8.0255,-8.2976,-8.5963,-8.9593,-9.1536,-9.2583,-9.2583,-9.1925,-9.1267,-9.0608,-9.0579,-9.0579,-9.0579,-9.0579,-9.0579,-9.0549,-8.9262,-8.8304,-8.7556,-8.5581,-8.3965,-8.2649,-8.1362,-8.0405,-7.9597,-7.7652,-7.6874,-7.6664,-7.5377,-7.5318,-7.5796,0.0,0.0,0.0,0.0,0.0,0.0,0.0,0.0,0.0,0.0,0.0,0.0,0.0,0.0,0.0,0.0,0.0,0.0,0.0,0.0,-3.6894,-3.7891,-3.9043,-3.9863,-4.0312,-4.0449,-4.0664,-4.0957,-4.0086,-3.8884,-3.742,-3.5265,-3.3484,-3.2042,-3.1308,-3.1056,-3.1242,-3.2048,-3.2642,-3.3098,-3.3776,-3.4238,-3.4439,-3.4738,-3.4845,-3.4774,0.0,0.0,0.0,-3.3804,-3.3869,-3.3641,-3.4301,-3.4763,-3.5015,-3.4332,-3.4568,-3.5195,-3.6348,-3.6789,-3.7459,-4.0049,-4.6737,-5.297,-5.4323,-5.5181,-5.648,-5.9273,-6.0357,-6.153,-6.4053,-6.5107,-6.6137,-6.7819,-7.0531,-7.2916,-7.4222,-7.505,-7.495,-7.3494,-7.382,0.0,0.0,0.0,0.0,-7.8407,-8.2534,-8.5509,-8.6664,-9.0898,-9.2853,-9.1985,-9.2165,-9.1746,-9.0638,-9.1057,-9.1057,-9.0638,-9.0638,-9.0399,-8.995,-8.8634,-8.7437,-8.627,-8.4265,-8.2679,-8.1362,-8.0016,-7.8819,-7.7711,-7.6634,-7.5946,-7.5497,-7.5048,-7.5018,-7.5198,0.0,0.0,0.0,0.0,0.0,0.0,0.0,0.0,0.0,0.0,0.0,0.0,0.0,0.0,0.0,0.0,0.0,0.0,0.0,0.0,-3.5937,-3.6797,-3.7773,-3.8574,-3.918,-3.9453,-3.9805,-4.0254,-3.9433,-3.8473,-3.7186,-3.5027,-3.3339,-3.2092,-3.2092,-3.2092,-3.2174,-3.3629,-3.4305,-3.4462,-3.5215,-3.543,-3.5268,-3.5769,-3.543,0.0,0.0,0.0,0.0,-3.3437,-3.3476,-3.3809,-3.3672,-3.3906,-3.4277,-3.4492,-3.5448,-3.6797,-3.8588,-3.9665,-4.0664,-4.2442,-4.9701,-5.7062,-5.9454,-5.9993,-6.0335,-6.1288,-6.0483,-6.0389,-6.287,-6.35,-6.4078,-6.5559,-6.8547,-7.1284,-7.2991,-7.3669,-7.3745,-7.3142,-7.3167,-7.3042,0.0,0.0,0.0,-7.6959,-8.2019,-8.5028,-8.5184,-9.0313,-9.2853,-9.1985,-9.2374,-9.2075,-9.0997,-9.1416,-9.1177,-9.0279,-9.0279,-8.995,-8.9262,-8.7945,-8.6718,-8.5581,-8.3367,-8.1811,-8.0704,-7.9357,-7.828,-7.7442,-7.6574,-7.5976,-7.5527,-7.5048,-7.4869,-7.4869,0.0,0.0,0.0,0.0,0.0,0.0,0.0,0.0,0.0,0.0,0.0,0.0,0.0,0.0,0.0,0.0,0.0,0.0,0.0,0.0,0.0,-3.5879,-3.6367,-3.6992,-3.7812,-3.7851,-3.8086,-3.8535,-3.6442,-3.5602,-3.5959,-3.3737,-3.2994,-3.3339,-3.3401,-3.3463,-3.3463,-3.3574,-3.4111,-3.481,-3.481,-3.4803,-3.4766,-3.4726,0.0,0.0,0.0,0.0,-3.3359,-3.2969,-3.3144,-3.3457,-3.3086,-3.3262,-3.3867,-3.525,-3.6978,-3.9078,-4.1742,-4.4138,-4.5589,-4.4435,-5.0931,-5.896,-6.3424,-6.532,-6.5086,-6.1855,-6.1408,-6.1783,-6.239,-6.2169,-6.227,-6.345,-6.5634,-6.8145,-7.0882,-7.0857,-7.1309,-7.3343,-7.2213,-7.1861,-7.3393,-7.3187,0.0,-7.6026,0.0,-8.4586,-8.5342,-8.9993,-9.2613,-9.2613,-9.2643,-9.2344,-9.1686,-9.1626,-9.0968,-8.9711,-8.9681,-8.9322,-8.8634,-8.7257,-8.624,-8.5462,-8.2858,-8.1362,-8.0644,-7.9297,-7.8729,-7.8609,-7.7322,-7.6814,-7.6634,-7.5377,-7.4899,-7.4869,0.0,0.0,0.0,0.0,0.0,0.0,0.0,0.0,0.0,0.0,0.0,0.0,0.0,0.0,0.0,0.0,0.0,0.0,0.0,0.0,0.0,0.0,0.0,0.0,0.0,0.0,0.0,0.0,0.0,-3.6342,-3.5435,-3.4236,-3.3055,-3.1961,-3.3272,-3.3817,-3.3982,-3.5944,-3.6689,-3.6603,0.0,-3.5962,-3.5605,0.0,0.0,0.0,0.0,0.0,-3.3398,-3.3301,-3.3984,-3.4922,-3.5137,-3.5703,-3.6642,-3.8473,-4.0034,-4.1848,-4.4673,-4.7604,-4.9774,-4.9632,-5.5155,-6.1311,-6.3951,-6.4388,-6.422,-6.4064,-6.1601,-5.928,-5.8782,-5.9513,-6.0763,-6.2722,-6.699,-7.0857,-7.3242,-7.4146,-7.4347,-7.3669,-7.3569,-7.3393,-7.2991,-7.5148,-7.705,0.0,-8.16,-8.4963,-8.7717,-9.0923,-9.2613,-9.2613,-9.3062,-9.3002,-9.2344,-9.1865,-9.1207,-9.0399,-8.989,-8.9322,-8.8634,-8.6778,-8.5312,-8.4115,-8.1961,-8.0674,-7.9956,-7.8609,-7.8041,-7.7981,-7.7143,-7.6544,-7.6096,-7.5766,-7.5318,-7.4869,0.0,0.0,0.0,0.0,0.0,0.0,0.0,0.0,0.0,0.0,0.0,0.0,0.0,0.0,0.0,0.0,0.0,0.0,0.0,0.0,0.0,0.0,0.0,0.0,0.0,0.0,0.0,0.0,0.0,0.0,0.0,-3.4934,-3.4207,-3.3481,-3.4424,-3.4915,-3.5004,-3.6463,0.0,0.0,0.0,0.0,0.0,0.0,0.0,0.0,0.0,0.0,-3.474,-3.6058,-3.625,-3.6094,-3.6894,-3.8076,-3.9636,-4.1465,-4.3649,-4.601,-4.8546,-5.1573,-5.4034,-5.3747,-5.7926,-6.2124,-6.1672,-6.3192,-6.4444,-6.325,-5.9387,-5.6278,-5.671,-5.7874,-5.9357,-6.109,-6.5409,-6.9577,-7.2539,-7.3268,-7.372,-7.4247,-7.4171,-7.445,-7.5362,-7.7002,-7.9094,0.0,-8.3902,-8.5915,-8.7895,-9.0887,-9.2464,-9.2194,-9.3092,-9.3122,-9.2194,-9.1506,-9.0728,-8.9771,-8.9412,-8.8723,-8.7766,-8.6329,-8.5132,-8.4085,0.0,-8.1123,-8.0165,-7.9118,-7.8519,-7.813,-7.7203,-7.6604,-7.6245,-7.5677,-7.5198,-7.4929,0.0,0.0,0.0,0.0,0.0,0.0,0.0,0.0,0.0,0.0,0.0,0.0,0.0,0.0,0.0,0.0,0.0,0.0,0.0,0.0,0.0,0.0,0.0,0.0,0.0,0.0,0.0,0.0,0.0,0.0,0.0,0.0,0.0,0.0,0.0,0.0,0.0,0.0,0.0,0.0,0.0,0.0,0.0,0.0,0.0,0.0,0.0,-3.4961,-3.6493,-3.9521,-3.9268,-3.7927,-3.9373,-4.1214,-4.3242,-4.5105,-4.7794,-5.0745,-5.2762,-5.568,-5.7874,-5.6871,-5.9637,-6.1921,-5.9171,-6.1882,-6.4188,-6.1427,-5.6874,-5.3813,-5.5433,-5.6841,-5.8152,-5.9583,-6.2973,-6.6876,-7.1266,-7.1335,-7.2192,-7.5869,-7.5123,-7.5703,-7.9029,-7.9188,-8.0972,-8.5652,-8.6831,-8.7351,-8.7438,-9.07,-9.2254,-9.1776,-9.2853,-9.2853,-9.1626,-9.1057,-9.016,-8.8933,-8.8753,-8.8065,-8.6928,-8.609,-8.5342,-8.4654,0.0,0.0,-8.0764,-8.0105,-7.9417,-7.8669,-7.7532,-7.7023,-7.6814,-7.5677,-7.5198,-7.5228,0.0,0.0,0.0,0.0,0.0,0.0,0.0,0.0,0.0,0.0,-3.1699,-3.1523,0.0,0.0,0.0,0.0,0.0,0.0,0.0,0.0,0.0,0.0,0.0,0.0,0.0,0.0,0.0,0.0,0.0,0.0,0.0,0.0,0.0,0.0,0.0,0.0,0.0,0.0,0.0,0.0,0.0,0.0,0.0,0.0,0.0,0.0,0.0,-3.5215,-3.6592,0.0,-4.1952,-4.3026,-4.5705,-4.7573,-4.9319,-5.1698,-5.2873,-5.3942,-5.682,-5.8425,-5.9203,-5.8995,-6.0427,-6.1868,-6.1954,-6.0563,-5.9887,-6.1959,-5.8782,-5.5211,-5.3752,-5.5114,-5.7625,-6.1014,-6.4053,-6.8381,-7.5134,-7.4695,-7.5747,-8.1237,-8.0014,-7.952,-8.1573,-8.3526,-8.5018,0.0,-8.8043,-8.9431,-8.9966,-9.1105,-9.1985,-9.2404,-9.2643,-9.2404,-9.1626,-9.1506,-9.1057,-9.0279,-8.9202,-8.8574,-8.8274,-8.6509,-8.5342,-8.4654,0.0,0.0,-8.0764,-8.0105,-7.9417,-7.8759,-7.8549,-7.81,-7.7622,-7.7382,-7.6963,-7.6514,0.0,0.0,0.0,0.0,0.0,0.0,0.0,-3.1875,-3.2168,-3.3047,-3.2969,-3.2676,-3.2226,-3.2363,0.0,0.0,0.0,0.0,0.0,0.0,0.0,0.0,0.0,0.0,0.0,0.0,-3.3867,-3.4082,0.0,0.0,0.0,-3.3711,-3.3535,-3.373,0.0,0.0,0.0,0.0,0.0,0.0,0.0,0.0,0.0,0.0,0.0,0.0,0.0,-3.709,-3.8637,-4.2678,-4.5543,-4.771,-4.9147,-5.1153,-5.335,-5.4751,-5.6033,-5.733,-5.9451,-6.0387,-6.0701,-6.0446,-6.1308,-6.2401,-6.2715,-5.89,-5.5724,-5.7306,-5.5951,-5.4124,-5.3105,-5.3768,-5.5658,-5.9305,-6.2421,-6.6338,-7.1975,-7.3778,-7.6152,-8.0544,-8.1064,-8.1964,-8.4109,-8.5334,-8.6367,-8.7288,-8.9163,-9.0309,-9.0608,-9.0938,-9.1416,-9.2075,-9.1746,-9.1416,-9.1117,-9.1117,-9.0788,-9.013,-8.9501,-8.9023,-8.8634,-8.7347,-8.618,-8.5162,-8.4205,0.0,-8.0764,-8.0464,-7.9926,-7.9297,-7.8938,-7.8819,-7.8759,-7.8071,-7.7622,-7.7352,0.0,0.0,0.0,0.0,0.0,0.0,0.0,-3.2598,-3.293,-3.4316,-3.4492,-3.4199,-3.3437,-3.3184,-3.2988,0.0,0.0,0.0,0.0,0.0,0.0,0.0,0.0,0.0,0.0,0.0,0.0,-3.3926,-3.3926,0.0,0.0,0.0,0.0,0.0,-3.3418,-3.3418,0.0,0.0,0.0,0.0,0.0,-3.3691,0.0,0.0,0.0,0.0,0.0,-3.9273,-4.0789,-4.4976,-4.8076,-5.0317,-5.1291,-5.3841,-5.648,-5.6811,-5.8507,-6.0437,-6.1441,-6.2119,-6.2458,-6.2093,-6.2614,-6.3086,-6.2871,-5.7673,-5.2906,-5.2914,-5.2929,-5.2929,-5.2929,-5.2915,-5.3936,-5.7199,-6.0296,-6.4042,-6.9024,-7.2699,-7.6457,-8.0546,-8.2387,-8.431,-8.6597,-8.6768,0.0,-8.8851,0.0,0.0,-9.0638,-9.0638,-9.0878,-9.1386,-9.0908,-9.0638,-9.0638,-9.0638,-9.0369,-8.986,-8.9741,-8.9382,-8.8873,-8.8065,-8.7048,-8.5851,-8.5043,0.0,0.0,-8.1063,-8.0614,-7.9986,-7.9417,-7.9537,-7.9896,-7.8849,-7.837,-7.825,0.0,0.0,0.0,0.0,0.0,0.0,0.0,-3.3086,-3.3906,-3.5625,-3.584,-3.5664,-3.5195,-3.4434,-3.3633,0.0,0.0,0.0,0.0,0.0,0.0,0.0,0.0,0.0,0.0,0.0,0.0,-3.3476,-3.3476,0.0,0.0,0.0,0.0,0.0,0.0,-3.3418,-3.3418,-3.3418,0.0,0.0,0.0,0.0,0.0,0.0,0.0,0.0,0.0,-4.1011,-4.1649,-4.5625,-4.7475,-4.8872,-5.2968,-5.6526,-5.9175,-5.9148,-6.0756,-6.2647,-6.3299,-6.3852,-6.4362,-6.4622,-6.4479,-6.4062,-6.3026,-5.7673,-5.2906,-5.2914,-5.2929,-5.2929,-5.2929,-5.2892,-5.3843,-5.6597,-5.9212,-6.3734,-7.2219,-7.4692,-7.8709,-8.6797,-8.7113,-8.732,-8.9186,-8.9374,-8.9457,-8.9591,0.0,0.0,-9.0638,-9.0638,-9.0668,-9.0728,-9.0668,-9.0638,-9.0638,-9.0638,-9.0608,-9.0549,-8.995,-8.9621,-8.9531,-8.8274,-8.7287,-8.6509,-8.5252,0.0,0.0,-8.1931,-8.1302,-8.0704,-8.0644,-8.0644,-8.0704,-8.0584,-8.0135,-7.9627,0.0,0.0,0.0,0.0,0.0,0.0,-3.2949,-3.3105,-3.3848,-3.6113,-3.6406,-3.6348,-3.6191,-3.5605,-3.459,-3.293,0.0,0.0,0.0,0.0,0.0,0.0,0.0,0.0,0.0,0.0,-3.3418,-3.3418,-3.3418,0.0,0.0,0.0,0.0,0.0,0.0,-3.3418,-3.3418,-3.3418,0.0,0.0,0.0,0.0,0.0,0.0,0.0,0.0,0.0,0.0,-4.3629,-4.6226,-4.8099,-4.971,-5.1497,-5.4361,-5.7349,-5.9006,-6.0839,-6.2672,-6.4228,-6.5032,-6.5509,-6.5589,-6.494,-6.395,-6.3024,-5.7697,-5.2862,-5.2903,-5.2917,-5.2929,-5.2929,-5.2929,-5.3601,-5.5727,-5.7425,-6.0571,-6.6423,-7.0558,-7.543,-8.2204,-8.4523,-8.6705,0.0,0.0,-8.983,0.0,0.0,0.0,-9.0638,-9.0638,-9.0638,-9.0638,-9.0638,-9.0638,-9.0638,-9.0638,-9.0638,-9.0638,-8.998,-8.9681,-8.9621,-8.8304,-8.7317,-8.6599,-8.5282,0.0,0.0,-8.2649,-8.223,-8.1991,-8.1991,-8.1991,-8.1931,-8.1542,-8.0973,-8.0345,0.0,0.0,0.0,0.0,0.0,-3.1426,-3.2988,-3.3086,-3.3828,-3.6172,-3.6484,-3.6523,-3.666,-3.6055,-3.4961,-3.332,-3.332,0.0,0.0,0.0,0.0,0.0,0.0,0.0,0.0,0.0,-3.3418,-3.3418,-3.3418,-3.3418,0.0,0.0,-3.3418,-3.3418,0.0,0.0,0.0,0.0,0.0,0.0,0.0,0.0,0.0,0.0,0.0,0.0,0.0,0.0,0.0,0.0,0.0,-5.0444,-5.0619,-5.2402,0.0,-5.7725,-6.0186,-6.2421,-6.4304,-6.5459,-6.6126,-6.6354,-6.5148,-6.3678,-6.3017,-5.8149,-5.3717,-5.3006,-5.2923,-5.2929,-5.2929,-5.3435,0.0,0.0,0.0,-5.9979,-6.3721,-6.8658,-7.3586,-7.827,0.0,-8.4773,0.0,-8.9262,-9.013,0.0,0.0,0.0,0.0,-9.0638,-9.0638,-9.0638,-9.0638,-9.0638,-9.0638,-9.0638,-9.0549,-9.0339,-8.989,-8.9561,-8.9352,-8.8215,-8.7437,-8.6898,0.0,0.0,0.0,-8.3307,-8.2948,-8.2844,-8.2844,-8.2649,-8.2409,-8.1961,-8.1242,-8.0434,0.0,0.0,0.0,0.0,0.0,0.0,-3.2598,-3.3144,-3.4043,-3.5801,-3.6035,-3.6191,-3.6621,-3.5508,-3.4531,-3.4101,-3.3672,0.0,0.0,0.0,0.0,0.0,0.0,0.0,0.0,0.0,-3.3418,-3.3418,-3.3418,-3.3418,-3.3418,-3.3418,-3.3418,-3.3418,0.0,0.0,0.0,0.0,0.0,0.0,0.0,0.0,0.0,0.0,0.0,0.0,0.0,0.0,0.0,0.0,0.0,0.0,0.0,-5.1674,0.0,0.0,-5.8981,-6.2245,-6.34,-6.4881,-6.6237,-6.6815,-6.5443,-6.3678,-6.3017,-5.9389,-5.5556,-5.3342,-5.2923,-5.2929,-5.2929,-5.4707,-5.6067,0.0,0.0,0.0,-6.6871,-7.1116,-7.4869,0.0,0.0,-8.1871,-8.4504,-8.8304,0.0,0.0,0.0,0.0,0.0,-9.0638,-9.0638,-9.0638,-9.0638,-9.0638,-9.0638,-9.0638,-9.0309,-8.9681,-8.9681,-8.9322,-8.8663,-8.8005,-8.7706,0.0,0.0,0.0,0.0,-8.3995,-8.3337,-8.2844,-8.2844,-8.235,-8.1781,-8.1781,-8.0943,-7.9836,0.0,0.0,0.0,0.0,0.0,0.0,0.0,-3.2031,-3.2734,-3.4473,-3.4687,-3.5078,-3.6113,-3.5312,-3.4766,-3.4961,-3.4023,0.0,0.0,0.0,0.0,0.0,0.0,0.0,0.0,0.0,-3.3418,-3.3418,-3.3711,-3.3711,-3.3437,-3.373,-3.3711,-3.3418,-3.3418,-3.3418,0.0,0.0,0.0,0.0,0.0,0.0,0.0,0.0,0.0,0.0,0.0,0.0,0.0,0.0,0.0,0.0,0.0,0.0,0.0,-5.4034,-5.6997,-5.991,-6.0638,-6.232,-6.3827,-6.3626,-6.2496,-6.1659,-6.2585,-5.9947,-5.6919,-5.5433,-5.3964,-5.3028,-5.3576,-5.3851,-5.5102,0.0,0.0,0.0,0.0,0.0,0.0,-7.8759,-8.4923,-8.9202,0.0,0.0,0.0,0.0,0.0,0.0,0.0,-9.0638,-9.0638,-9.0638,-9.0219,-8.998,-8.998,-8.9531,-8.9202,-8.8993,-8.8544,-8.8215,-8.7975,-8.7317,0.0,0.0,0.0,0.0,0.0,-8.5342,-8.4684,-8.4085,-8.4085,-8.3158,-8.1781,-8.1781,-8.0943,-7.9806,0.0,0.0,0.0,0.0,0.0,0.0,0.0,-3.1406,-3.1953,-3.3203,-3.3496,-3.4082,-3.5391,-3.4883,-3.4707,-3.5351,-3.4473,0.0,0.0,0.0,0.0,0.0,0.0,0.0,-3.3418,-3.3418,-3.3496,-3.3672,-3.4101,-3.418,-3.3906,-3.4355,-3.4561,-3.4581,-3.4581,-3.4938,0.0,0.0,0.0,0.0,0.0,0.0,-4.4853,0.0,0.0,0.0,0.0,0.0,0.0,0.0,0.0,0.0,0.0,0.0,0.0,0.0,-5.534,-5.7725,-5.888,-6.0814,-6.2496,-6.2345,-6.1597,-6.1132,-6.2509,-6.0225,-5.7615,-5.645,-5.4879,-5.3889,-5.4371,-5.4826,-5.6278,0.0,0.0,0.0,0.0,0.0,0.0,-8.0045,0.0,0.0,0.0,0.0,0.0,0.0,0.0,0.0,0.0,-9.0638,-9.0638,-9.0638,-9.0249,-9.004,-9.004,-8.9621,-8.9292,-8.9052,-8.8634,-8.8304,-8.8035,-8.7377,0.0,0.0,0.0,0.0,0.0,-8.5611,-8.4923,-8.4295,-8.3786,-8.2709,-8.1392,-8.1123,-8.0195,-7.9058,0.0,0.0,0.0,0.0,0.0,0.0,0.0,-3.123,-3.1621,-3.207,-3.248,-3.3203,-3.4434,-3.4277,-3.4414,-3.5273,0.0,0.0,0.0,0.0,0.0,0.0,0.0,0.0,-3.3418,-3.3418,-3.3633,-3.4082,-3.4531,-3.4812,-3.4943,-3.5434,-3.6098,-3.6833,-3.6729,-3.7681,0.0,0.0,0.0,0.0,-4.5533,-4.6326,0.0,0.0,0.0,0.0,0.0,0.0,0.0,0.0,0.0,0.0,0.0,0.0,0.0,0.0,0.0,0.0,0.0,-6.006,-6.1818,-6.2295,-6.1953,-6.1619,-6.2406,-6.0123,0.0,-5.6428,-5.5598,-5.5193,-5.5411,-5.7262,-5.9026,0.0,0.0,0.0,0.0,-7.3283,0.0,0.0,-8.5252,0.0,0.0,0.0,0.0,0.0,0.0,0.0,0.0,-9.0638,-9.0638,-9.0638,-9.0638,-9.0608,-9.0579,-9.0519,-9.019,-8.9591,-8.9591,-8.9262,-8.8663,-8.8065,0.0,0.0,0.0,0.0,0.0,-8.5043,-8.4325,-8.3547,-8.232,-8.1392,-8.0644,-8.0045,-7.8998,-7.7861,0.0,0.0,0.0,0.0,0.0,0.0,0.0,0.0,0.0,0.0,-3.2051,-3.2559,-3.3184,-3.375,-3.4277,0.0,0.0,0.0,0.0,0.0,0.0,0.0,0.0,0.0,-3.3418,-3.3418,-3.3633,-3.4082,-3.4844,-3.5904,-3.7283,-3.8134,-3.891,-3.9685,-3.9308,-4.0014,0.0,0.0,0.0,0.0,-4.6245,-4.6577,0.0,0.0,0.0,0.0,-4.9038,-5.0218,0.0,0.0,0.0,0.0,0.0,0.0,0.0,0.0,-5.4411,-5.5591,-5.6545,0.0,-5.8805,-5.863,-5.8908,-5.9389,0.0,-5.9027,-5.7618,-5.6415,-5.5591,-5.5893,-5.8478,-5.8212,-5.9411,0.0,0.0,-6.8275,-7.1708,0.0,0.0,-8.7377,-9.0728,0.0,0.0,0.0,0.0,0.0,0.0,0.0,0.0,0.0,-9.0638,-9.0638,-9.0638,-9.0399,-8.989,-8.9382,-8.9082,-8.8933,-8.8933,-8.8843,-8.8693,-8.8514,0.0,0.0,0.0,0.0,-8.5671,-8.5521,-8.4474,-8.2948,-8.2649,-8.1512,-8.0045,-7.9866,-7.9297,-7.8489,0.0,0.0,0.0,0.0,0.0,0.0,0.0,0.0,0.0,0.0,0.0,0.0,0.0,0.0,0.0,0.0,0.0,0.0,0.0,0.0,0.0,0.0,0.0,-3.3418,-3.3418,-3.3418,-3.373,-3.4355,-3.581,-3.7303,-3.8732,-4.0184,-4.1306,-4.2055,-4.2367,-4.2964,-4.3839,-4.4621,-4.5612,-4.6778,-4.6954,0.0,0.0,0.0,0.0,0.0,-4.9289,-5.0318,0.0,-5.1414,-5.2133,-5.2929,0.0,0.0,0.0,0.0,-5.431,-5.5189,-5.5993,-5.7223,-5.8152,-5.7901,-5.7976,-5.8429,-5.931,-5.8299,-5.7096,-5.7017,-5.7146,-5.7908,-6.0011,-6.0985,-6.2699,0.0,-6.8786,0.0,0.0,0.0,-8.618,-9.01,0.0,0.0,0.0,0.0,0.0,0.0,0.0,0.0,0.0,0.0,-9.0638,-9.0638,-9.0638,-9.0459,-9.013,-8.9771,-8.9591,-8.9591,-8.9591,-8.9591,-8.9561,-8.9262,-8.8783,0.0,0.0,0.0,-8.5671,-8.5372,-8.4265,-8.2784,-8.211,-8.1033,-7.9776,-7.9447,-7.8729,-7.7831,0.0,0.0,0.0,0.0,0.0,0.0,0.0,0.0,0.0,0.0,0.0,0.0,0.0,0.0,0.0,0.0,0.0,0.0,0.0,0.0,0.0,0.0,0.0,-3.3457,-3.3516,-3.3457,-3.3995,-3.5179,-3.7212,-3.8972,-4.0487,-4.2505,-4.3794,-4.4381,-4.5523,-4.5799,-4.5573,-4.6652,-4.6903,-4.6627,-4.7456,0.0,0.0,0.0,0.0,0.0,0.0,0.0,0.0,-5.1122,-5.1847,-5.2929,-5.2929,0.0,0.0,0.0,0.0,0.0,-5.6244,-5.775,-5.8879,-5.8598,-5.8525,-5.8528,-5.8933,-5.765,-5.6874,-5.844,-5.9528,-6.058,-6.1747,-6.4594,-6.7131,0.0,0.0,0.0,-8.2619,-8.4654,-8.6988,0.0,0.0,0.0,0.0,0.0,0.0,0.0,0.0,0.0,0.0,0.0,0.0,-9.0638,-9.0638,-9.0638,-9.0638,-9.0638,-9.0638,-9.0638,-9.0549,-9.0489,-9.0459,-8.983,-8.9172,0.0,0.0,0.0,-8.5492,-8.4714,-8.3636,-8.232,-8.1003,-8.0075,-7.9417,-7.8729,-7.7801,-7.6814,0.0,0.0,0.0,0.0,0.0,0.0,0.0,0.0,0.0,0.0,0.0,0.0,0.0,0.0,0.0,0.0,0.0,0.0,0.0,0.0,0.0,-3.3501,-3.3418,-3.3594,-3.3965,-3.3613,-3.4708,-3.7411,-3.8705,-4.1309,-4.5169,-4.6846,-4.7491,-4.7284,-4.7958,-4.723,-4.5573,-4.6652,-4.733,-4.7631,-4.7355,0.0,0.0,0.0,0.0,0.0,0.0,0.0,0.0,-5.2259,-5.2685,-5.2929,-5.2929,0.0,0.0,0.0,0.0,0.0,-5.7775,-5.9182,-5.9939,-5.9437,-6.0046,-5.9947,-5.732,-5.7198,-5.8623,-6.2068,-6.2049,-6.275,-6.7112,-6.8338,-6.9865,0.0,0.0,-8.0674,0.0,0.0,-8.9591,0.0,0.0,0.0,0.0,0.0,0.0,0.0,0.0,0.0,0.0,0.0,0.0,-9.0638,-9.0638,-9.0638,-9.0638,-9.0638,-9.0638,-9.0638,-9.007,-8.983,-8.9801,-8.9142,-8.8484,0.0,0.0,-8.609,-8.4773,-8.3547,-8.229,-8.0973,-7.9627,-7.8699,-7.8041,-7.7382,-7.6993,-7.6754,0.0,0.0,0.0,0.0,0.0,0.0,0.0,0.0,0.0,0.0,0.0,0.0,0.0,0.0,0.0,0.0,0.0,0.0,0.0,0.0,0.0,-3.4101,-3.5023,-3.5511,-3.5491,-3.5575,-3.7126,-4.0257,-4.1986,-4.4322,-4.7117,-4.8172,-4.854,-4.836,-4.8033,-4.733,-4.6401,-4.6928,-4.7431,-4.7883,0.0,0.0,0.0,0.0,0.0,0.0,0.0,0.0,0.0,0.0,-5.2585,-5.2929,-5.2929,0.0,0.0,0.0,0.0,0.0,-5.657,-5.77,-5.8832,-6.0134,-5.9896,-5.917,-5.8169,-5.7474,-5.8597,-6.4324,-6.5132,-6.5808,0.0,0.0,-7.533,-8.0032,0.0,-8.3936,-8.8155,0.0,0.0,0.0,0.0,0.0,0.0,0.0,0.0,0.0,0.0,0.0,0.0,0.0,0.0,0.0,-9.0638,-9.0459,-9.013,-9.01,-9.01,-9.01,-8.9801,-8.9292,-8.8604,-8.8304,-8.7407,-8.606,0.0,-8.4654,-8.3098,-8.2469,-8.1242,-7.9656,-7.9028,-7.816,-7.7203,-7.6574,-7.6335,-7.6245,0.0,0.0,0.0,0.0,0.0,0.0,0.0,0.0,0.0,0.0,0.0,0.0,0.0,0.0,0.0,0.0,0.0,0.0,0.0,0.0,-3.5699,-3.5497,-3.7065,-3.7509,-3.6578,-3.7784,-3.9797,-4.2497,-4.5113,-4.7377,-4.9257,-4.937,-4.9289,-4.9113,-4.8134,-4.7556,-4.733,-4.7456,-4.7757,-4.8134,0.0,0.0,0.0,0.0,0.0,0.0,0.0,0.0,0.0,0.0,0.0,0.0,0.0,0.0,0.0,-5.4285,-5.4561,-5.4737,-5.5541,-5.6495,-5.7772,-6.0208,-5.9769,-5.8954,-6.0047,-5.893,-6.016,-6.8639,-6.9358,-6.9292,0.0,-7.5744,0.0,-8.4504,-8.5581,0.0,0.0,0.0,0.0,0.0,0.0,0.0,0.0,0.0,0.0,0.0,0.0,0.0,0.0,0.0,0.0,0.0,-9.0489,-9.016,-8.9681,-8.9352,-8.9202,-8.9202,-8.8873,-8.8125,-8.6988,-8.6689,-8.5701,-8.4235,-8.4085,-8.3098,-8.1512,-8.1212,-8.0075,-7.8519,-7.822,-7.7412,-7.6305,-7.5826,-7.5677,-7.5587,0.0,0.0,0.0,0.0,0.0,0.0,0.0,0.0,0.0,0.0,0.0,0.0,0.0,0.0,0.0,0.0,0.0,0.0,0.0,0.0,-4.0019,-3.8036,-3.9065,-3.8592,-3.613,-3.9433,-4.1893,-4.331,-4.6923,-5.021,-5.3293,-5.1782,-5.082,-5.0268,-4.969,-4.8837,-4.7883,-4.8435,-4.8686,-4.8761,-4.9264,0.0,0.0,0.0,0.0,0.0,0.0,0.0,0.0,0.0,0.0,0.0,0.0,0.0,-5.3758,-5.4386,-5.4561,-5.4913,-5.6495,-5.7374,-5.8102,-5.9285,-6.0317,-6.1233,-6.2301,-6.2426,-6.5657,-7.7414,-7.5691,-7.294,-7.5839,-7.8717,-8.1302,0.0,0.0,0.0,0.0,0.0,0.0,0.0,0.0,0.0,0.0,0.0,0.0,0.0,0.0,0.0,0.0,0.0,0.0,0.0,0.0,-8.9711,-8.9681,-8.8454,-8.7856,-8.7826,-8.6569,-8.5611,-8.4893,-8.3666,-8.3038,-8.2858,-8.226,-8.1572,-8.0764,-7.9537,-7.8549,-7.7771,-7.6574,-7.5677,-7.5018,-7.4958,-7.4958,-7.4958,0.0,0.0,0.0,0.0,0.0,0.0,0.0,0.0,0.0,0.0,0.0,0.0,0.0,0.0,0.0,0.0,0.0,0.0,0.0,-4.0592,-4.0091,-3.9528,-4.1299,-4.1284,-3.9169,-4.2707,-4.5978,-4.8783,-5.0847,-5.2352,-5.3181,-5.1523,-5.0444,-4.9891,-4.9339,-4.9038,-4.8962,-4.9188,-4.969,-5.0318,-5.0167,-5.0444,0.0,0.0,0.0,0.0,0.0,0.0,0.0,0.0,-5.2929,-5.2929,0.0,-5.3055,-5.3331,-5.3858,-5.4034,-5.416,-5.4787,-5.6143,-5.7374,-5.7399,-5.7295,-5.7022,-5.6679,-6.8798,-8.072,-8.28,-8.1779,-8.048,-8.054,0.0,-8.4354,0.0,0.0,0.0,0.0,0.0,0.0,0.0,0.0,0.0,0.0,0.0,0.0,0.0,0.0,0.0,0.0,0.0,0.0,0.0,0.0,-8.9471,-8.9052,-8.7736,-8.6449,-8.5222,-8.5132,-8.4534,-8.3487,-8.2559,-8.1691,-8.0883,-8.0225,-7.9537,-7.8878,-7.7951,-7.7203,-7.6544,-7.5617,-7.5108,-7.4869,-7.4869,-7.4869,-7.4869,0.0,0.0,0.0,0.0,0.0,0.0,0.0,0.0,0.0,0.0,0.0,0.0,0.0,0.0,0.0,0.0,0.0,0.0,-4.1673,-4.1318,-4.114,-4.1367,-4.3235,-4.3893,-4.3211,-4.6141,-4.8656,-5.0715,-5.2704,-5.3432,-5.2904,-5.1398,-5.0494,-5.0092,-4.954,-4.959,-5.0117,-5.0117,-5.0569,-5.1272,-5.1046,-5.1197,0.0,0.0,0.0,0.0,0.0,0.0,0.0,0.0,0.0,0.0,0.0,0.0,0.0,0.0,-5.3833,-5.3984,-5.3984,-5.5186,-5.6468,-5.6696,-5.592,-5.597,-5.9106,-7.5822,-8.981,-8.7095,-8.4859,-8.3261,-8.3098,-8.3473,0.0,0.0,0.0,0.0,0.0,0.0,0.0,0.0,0.0,0.0,0.0,0.0,0.0,0.0,0.0,0.0,0.0,0.0,0.0,0.0,0.0,-8.8723,-8.8065,-8.6509,-8.4611,-8.2415,-8.2237,-8.2011,-8.1811,-8.0288,-7.9397,-7.9148,-7.846,-7.7801,-7.7173,-7.6724,-7.6155,-7.5527,-7.5048,-7.4869,-7.4869,-7.4869,-7.4869,-7.4869,0.0,0.0,0.0,0.0,0.0,0.0,0.0,0.0,0.0,0.0,0.0,0.0,0.0,0.0,0.0,0.0,0.0,0.0,-4.2986,-4.3489,-4.379,-4.379,-4.4869,-4.625,-4.7857,-4.954,-4.9512,-4.779,-5.1753,-5.3432,-5.2904,-5.18,-5.1272,-5.1247,-5.067,-5.0745,-5.1297,-5.1297,-5.1297,-5.1348,-5.19,-5.2126,-5.2126,0.0,0.0,0.0,0.0,0.0,0.0,0.0,-5.2929,0.0,0.0,0.0,0.0,0.0,-5.411,-5.4561,-5.4561,-5.4804,-5.5568,-5.735,-5.7041,-5.95,-7.1902,-8.2932,-9.0523,-9.0532,-8.4308,-7.9803,-8.3103,-8.1557,0.0,-8.5029,0.0,0.0,0.0,0.0,0.0,0.0,0.0,0.0,0.0,0.0,0.0,0.0,0.0,0.0,0.0,0.0,0.0,0.0,0.0,0.0,-8.6689,-8.4636,-8.2308,-7.956,-7.7549,-7.77,-7.96,-7.6267,-7.5802,-7.7771,-7.7113,-7.6485,-7.5916,-7.5886,-7.5497,-7.4869,-7.4869,-7.4869,-7.4869,-7.4869,-7.4869,-7.4869,0.0,0.0,0.0,0.0,0.0,0.0,0.0,0.0,0.0,0.0,0.0,0.0,0.0,0.0,0.0,0.0,0.0,0.0,-4.2986,-4.3489,-4.379,-4.379,-4.4869,-4.5723,-4.62,-4.8209,-5.0372,-5.2515,-5.3278,-5.3231,-5.2327,-5.1624,-5.1071,-5.0695,-5.0921,-5.1348,-5.185,-5.185,-5.2076,-5.2452,-5.2628,-5.2678,-5.2678,0.0,0.0,0.0,0.0,0.0,0.0,0.0,0.0,0.0,0.0,0.0,0.0,-5.3381,-5.3833,-5.4386,-5.3632,-5.4587,-5.5624,-5.4621,-5.7624,-6.1429,-6.3595,-7.426,-8.4155,-8.5626,-8.3749,-8.1984,-8.2494,-8.3014,0.0,-8.3192,0.0,0.0,0.0,0.0,0.0,0.0,0.0,0.0,0.0,0.0,0.0,0.0,0.0,0.0,0.0,0.0,0.0,0.0,0.0,0.0,-8.597,-8.099,-7.8626,-7.8817,-7.3931,-7.3688,-7.7491,-7.6046,-7.6211,-7.7771,-7.7113,-7.6485,-7.5856,-7.5377,-7.5048,-7.4839,-7.436,-7.418,-7.4121,-7.3672,-7.3492,-7.3492,0.0,0.0,0.0,0.0,0.0,0.0,0.0,0.0,0.0,0.0,-4.3589,-4.3714,0.0,0.0,0.0,0.0,0.0,0.0,0.0,-4.3413,-4.3664,-4.4116,-4.4995,-4.5999,-4.7104,-4.8862,-5.0921,-5.3256,-5.313,-5.2503,-5.1448,-5.1774,-5.1624,-5.1147,-5.2352,-5.2854,-5.2754,-5.298,-5.303,-5.2929,-5.2929,-5.2929,-5.2929,0.0,0.0,0.0,0.0,0.0,0.0,0.0,0.0,0.0,0.0,0.0,0.0,-5.3356,-5.3708,-5.4185,-5.3873,-5.463,-5.5361,-5.443,-5.921,-6.5183,-6.94,-7.5058,-8.0036,-8.2312,-8.1566,-8.075,-8.1718,-8.1542,0.0,0.0,0.0,0.0,0.0,0.0,0.0,0.0,0.0,0.0,0.0,0.0,0.0,0.0,0.0,0.0,0.0,0.0,0.0,0.0,0.0,0.0,-8.3244,-7.8148,-7.5372,-7.4912,-7.096,-7.0449,-7.3069,-7.3224,-7.46,-7.7023,-7.6335,-7.5826,-7.5467,-7.5048,-7.4719,-7.448,-7.433,-7.3971,-7.3492,-7.3343,-7.3133,-7.2924,0.0,0.0,0.0,0.0,0.0,0.0,0.0,0.0,0.0,0.0,-4.384,-4.3689,0.0,0.0,0.0,0.0,0.0,0.0,0.0,0.0,-4.3514,-4.4493,-4.5296,-4.6954,-4.9615,-5.0619,-5.1147,-5.1197,-5.1749,-5.1498,-5.0519,-5.2101,-5.2603,-5.2277,-5.431,-5.4662,-5.3733,-5.421,-5.3903,-5.311,-5.311,-5.311,-5.311,-5.311,0.0,0.0,0.0,0.0,0.0,0.0,0.0,0.0,-5.2929,-5.3005,-5.3155,-5.3507,-5.3733,-5.4039,-5.4737,-5.4793,-5.5064,-5.6415,-6.1793,-7.0018,-8.2559,-8.1012,-7.7624,-8.0129,0.0,-7.7247,-8.0351,-7.8094,0.0,0.0,0.0,0.0,0.0,0.0,0.0,0.0,0.0,0.0,0.0,0.0,0.0,0.0,0.0,0.0,0.0,0.0,0.0,0.0,0.0,0.0,-7.9092,-7.5498,-7.2233,0.0,-6.8533,-6.7872,-6.7667,-6.9152,-7.2029,-7.5856,-7.5108,-7.4779,-7.4779,-7.4719,-7.436,-7.3851,-7.439,-7.3881,-7.2894,-7.3432,-7.3223,-7.2654,0.0,0.0,0.0,0.0,0.0,0.0,0.0,0.0,0.0,0.0,0.0,0.0,0.0,0.0,0.0,0.0,0.0,0.0,0.0,0.0,-4.374,-4.3966,-4.6175,-4.8284,-5.0193,-5.0067,-5.0167,-5.0594,-5.1172,-5.1348,-5.1122,-5.1925,-5.2452,-5.2779,-5.3683,-5.3934,-5.3683,-5.3406,-5.3904,-5.4849,-5.4849,-5.4849,-5.4849,-5.4849,-5.4055,0.0,0.0,0.0,0.0,0.0,0.0,0.0,-5.2929,-5.3507,-5.4059,-5.3306,-5.4009,-5.4749,-5.3663,-5.4574,0.0,-6.0465,-6.6349,-7.2005,-7.5052,-7.4688,-7.4538,-7.7528,-7.66,-7.5533,-7.6284,0.0,0.0,0.0,0.0,0.0,0.0,0.0,0.0,0.0,0.0,0.0,0.0,0.0,0.0,0.0,0.0,0.0,0.0,0.0,0.0,0.0,0.0,-7.3677,-7.4904,-7.0236,-6.819,0.0,-6.6063,-6.5522,-6.7032,-6.9425,-7.2456,-7.5826,-7.4629,-7.4121,-7.4061,-7.3552,-7.3253,-7.3103,-7.2684,-7.2355,-7.2056,-7.1697,-7.1158,-7.0679,0.0,0.0,0.0,0.0,0.0,0.0,0.0,0.0,0.0,0.0,0.0,0.0,0.0,0.0,0.0,0.0,0.0,0.0,0.0,0.0,-4.4267,-4.5347,-4.7531,-4.9113,-5.0017,-4.9992,-4.9992,-5.0017,-5.0318,-5.0619,-5.0896,-5.1724,-5.2402,-5.298,-5.4034,-5.4676,-5.4946,-5.4946,-5.5573,-5.6569,-5.5748,-5.5419,-5.5287,-5.4474,-5.3674,-5.2929,-5.2929,0.0,0.0,0.0,0.0,0.0,0.0,0.0,-5.3708,-5.3381,-5.3909,-5.4595,-5.4499,0.0,0.0,-6.442,0.0,-7.1153,-7.1125,-7.11,-7.1901,-7.4599,-7.448,-7.3943,0.0,0.0,0.0,0.0,0.0,0.0,0.0,0.0,0.0,0.0,0.0,0.0,0.0,0.0,0.0,0.0,0.0,0.0,0.0,0.0,0.0,0.0,-7.182,-7.0571,-7.1229,-6.7338,-6.5596,-6.6227,-6.4507,-6.447,-6.6001,-6.9626,-7.2053,-7.3533,-7.3771,-7.3702,-7.3402,-7.3043,-7.2535,-7.1966,-7.2265,-7.1607,-7.053,-7.0799,-7.032,-6.9602,0.0,0.0,0.0,0.0,0.0,0.0,0.0,0.0,0.0,0.0,0.0,0.0,0.0,0.0,0.0,0.0,0.0,0.0,0.0,0.0,0.0,-4.733,-4.8736,-4.959,-4.9891,-5.0243,-5.0193,-4.9741,-4.964,-4.9967,-5.072,-5.1674,-5.2452,-5.313,-5.4814,-5.5846,-5.6343,-5.6982,-5.7551,-5.7878,-5.644,-5.5683,-5.5221,-5.3852,-5.3179,-5.2929,-5.2929,-5.2929,-5.2929,-5.2929,0.0,0.0,0.0,0.0,-5.3005,-5.3432,-5.3632,-5.4019,-5.5533,0.0,-6.0906,-6.7705,-6.9422,0.0,-6.8908,-6.9156,-6.9872,-7.1769,-7.2156,0.0,0.0,0.0,0.0,0.0,0.0,0.0,0.0,0.0,0.0,0.0,0.0,0.0,0.0,0.0,0.0,0.0,0.0,0.0,0.0,0.0,-7.3676,-7.204,-6.9823,-6.8336,-6.7759,-6.5505,-6.4078,-6.355,-6.345,-6.3771,-6.448,-6.8679,-7.065,-7.0832,-7.2405,-7.2894,-7.2565,-7.2445,-7.1697,-7.0679,-7.1787,-7.0919,-6.9123,-7.0201,-6.9901,-6.9093,0.0,0.0,0.0,0.0,0.0,0.0,0.0,0.0,0.0,0.0,-4.3815,-4.4041,0.0,0.0,0.0,0.0,0.0,0.0,-4.3865,0.0,0.0,-4.846,-4.8761,-4.9565,-5.1021,-5.0645,-5.0393,-5.0318,-4.9816,-5.0368,-5.1875,-5.2026,-5.2628,-5.3677,-5.5417,-5.6206,-5.6357,-5.7418,-5.7952,-5.8005,-5.7751,-5.6763,-5.5353,-5.5181,-5.4164,-5.2929,-5.2929,-5.2929,-5.2929,-5.2929,-5.2929,0.0,0.0,0.0,-5.2929,-5.3005,-5.3356,-5.3884,0.0,0.0,-6.5689,0.0,-6.9439,-6.8928,0.0,0.0,-6.9458,0.0,0.0,0.0,0.0,0.0,0.0,0.0,0.0,0.0,0.0,0.0,0.0,0.0,0.0,0.0,0.0,0.0,0.0,0.0,0.0,0.0,0.0,-7.0469,-6.8895,-6.5844,-6.5351,-6.4905,-6.4374,-6.3992,-6.35,-6.2948,-6.2446,-6.2054,-6.1821,-6.416,-6.7037,-7.021,-6.9898,-7.0271,-7.1128,-7.059,-6.9931,-6.9273,-6.9453,-6.9303,-6.9034,-6.9183,-6.9153,-6.9093,0.0,0.0,0.0,0.0,0.0,0.0,0.0,0.0,0.0,0.0,0.0,-4.4242,0.0,0.0,0.0,-4.3011,-4.2986,-4.3338,-4.4192,-4.5623,-4.6979,-4.8234,-4.8887,-4.9565,-5.0318,-5.0393,-5.0268,-4.9967,-4.9715,-5.0469,-5.2126,-5.2427,-5.3155,-5.423,-5.5689,-5.6851,-5.7694,-5.7935,-5.8571,-5.9228,-5.7341,-5.6049,-5.5287,-5.4366,-5.3538,-5.2929,-5.2929,-5.2929,-5.2929,-5.2929,-5.2929,-5.2929,-5.2929,0.0,0.0,0.0,-5.3067,-5.3607,-5.5066,-5.9761,-6.4781,0.0,-6.7547,-6.7315,-6.6327,0.0,0.0,0.0,0.0,0.0,0.0,0.0,0.0,0.0,0.0,0.0,0.0,0.0,0.0,0.0,0.0,0.0,0.0,0.0,0.0,0.0,0.0,0.0,-6.8566,-6.7338,-6.5869,-6.4136,-6.3726,-6.3299,-6.2747,-6.2446,-6.2169,-6.1893,-6.1667,-6.124,-6.0688,-6.1656,-6.3366,-6.5799,-6.6692,-6.753,-6.8269,-6.807,-6.8117,-6.8465,-6.8854,-6.8525,-6.7956,-6.8704,-6.8764,-6.8585,0.0,0.0,0.0,0.0,0.0,0.0,0.0,0.0,0.0,0.0,0.0,0.0,0.0,0.0,0.0,0.0,-4.3112,-4.3589,-4.4568,-4.5924,-4.6954,-4.7481,-4.8586,-4.9238,-4.9389,-4.9916,-5.0017,-4.959,-4.9741,-5.072,-5.2528,-5.308,-5.4084,-5.5437,-5.6297,-5.7411,-5.8522,-5.8301,-5.8836,-5.9564,-5.6628,-5.5181,-5.4608,-5.3359,-5.2929,-5.2929,-5.2929,-5.2929,-5.2929,-5.2929,-5.2929,-5.2929,-5.2929,-5.2929,0.0,0.0,0.0,-5.3242,0.0,0.0,-6.3166,-6.4847,-6.5672,-6.6067,0.0,0.0,0.0,0.0,0.0,0.0,0.0,0.0,0.0,0.0,0.0,0.0,0.0,0.0,0.0,0.0,0.0,0.0,0.0,0.0,0.0,0.0,0.0,0.0,-6.6727,-6.5142,-6.3952,-6.3299,-6.2847,-6.2345,-6.1793,-6.1391,-6.1115,-6.0964,-6.0964,-6.0588,-5.991,-5.991,-6.0329,-6.1189,-6.3379,-6.4944,-6.5816,-6.5989,-6.6587,-6.7537,-6.8226,-6.7867,-6.7119,-6.8315,-6.8525,-6.8405,0.0,0.0,0.0,0.0,0.0,0.0,0.0,0.0,0.0,0.0,0.0,-4.4041,-4.4518,-4.4116,-4.3589,-4.3037,-4.3463,-4.4016,-4.4593,-4.5221,-4.5824,-4.6376,-4.7431,0.0,-4.8812,-4.9364,-4.9615,-4.959,-5.0117,-5.1498,-5.3632,-5.421,-5.5641,-5.7725,-5.7785,-5.791,-5.7943,-5.851,-5.8476,-5.7906,-5.6106,-5.4433,-5.3042,-5.2929,-5.2929,-5.2929,-5.2929,-5.2929,-5.2929,-5.2929,-5.2929,-5.2929,-5.2929,-5.2929,-5.2929,0.0,0.0,0.0,0.0,-5.7823,0.0,-6.2942,0.0,0.0,0.0,0.0,0.0,0.0,0.0,0.0,0.0,0.0,0.0,0.0,0.0,0.0,0.0,0.0,0.0,0.0,0.0,0.0,0.0,0.0,0.0,0.0,0.0,0.0,-6.3917,-6.3809,-6.3224,-6.2119,-6.2069,-6.1793,-6.124,-6.119,-6.0914,-6.0362,-6.0362,-5.9809,-5.8805,-5.8805,-5.8202,-5.7421,-6.0436,-6.2711,-6.4425,-6.5095,-6.5651,-6.6191,-6.6849,-6.7059,-6.7089,-6.7777,-6.8405,-6.9034,0.0,0.0,0.0,0.0,0.0,0.0,0.0,0.0,0.0,0.0,0.0,0.0,0.0,-4.3915,-4.3589,-4.3037,-4.4141,-4.5271,-4.6175,-4.6728,-4.7305,-4.7857,-4.8259,-4.8736,-4.9289,-4.949,-4.959,-4.959,-4.9791,-5.0845,-5.2703,-5.3256,-5.431,-5.5814,-5.724,-5.792,-5.7815,-5.6971,-5.6505,-5.6182,-5.4489,-5.3427,-5.2929,-5.2929,-5.2929,-5.2929,-5.2929,-5.2929,-5.298,-5.3306,-5.3206,-5.298,-5.3331,-5.3206,-5.2929,-5.2929,-5.2923,-5.2911,0.0,0.0,0.0,-5.8195,-6.1255,0.0,0.0,0.0,0.0,0.0,0.0,0.0,0.0,0.0,0.0,0.0,0.0,0.0,0.0,0.0,0.0,0.0,0.0,0.0,0.0,0.0,0.0,0.0,0.0,0.0,-6.3174,-6.2797,-6.2421,-6.2019,-6.1316,-6.0512,-5.9608,-5.9608,-5.9307,-5.8755,-5.8755,-5.8554,-5.8177,-5.7801,-5.7223,-5.6593,-5.8837,-6.0615,-6.194,-6.1837,-6.3158,-6.5443,-6.6101,-6.637,-6.655,-6.8076,-6.8794,-6.9153,0.0,0.0,0.0,0.0,0.0,0.0,0.0,0.0,-4.374,-4.4292,0.0,0.0,0.0,0.0,-4.4292,-4.4116,-4.5121,-4.615,-4.7018,-4.7456,-4.7832,-4.8209,-4.8586,-4.8937,-4.9314,-4.969,-4.9791,-4.959,-4.9791,-5.0645,-5.2126,-5.2678,-5.3607,-5.4909,-5.6007,-5.691,-5.7532,-5.6046,-5.5501,-5.5494,-5.3663,-5.2929,-5.298,-5.3532,-5.3507,-5.3231,-5.3607,-5.4024,-5.4304,-5.364,-5.3721,-5.398,-5.3589,-5.3206,-5.2929,-5.2929,-5.2929,-5.2917,-5.2865,-5.29,0.0,0.0,0.0,0.0,0.0,0.0,0.0,0.0,0.0,0.0,0.0,0.0,0.0,0.0,0.0,0.0,0.0,0.0,0.0,0.0,0.0,0.0,0.0,0.0,0.0,0.0,0.0,0.0,-6.2847,-6.2295,-6.1743,-6.119,-6.0261,-5.9357,-5.8453,-5.8252,-5.7976,-5.76,-5.7424,-5.7248,-5.7047,-5.6671,-5.646,-5.6596,-5.7608,-5.8751,-6.0038,-6.0691,-6.2404,-6.4755,-6.5652,-6.6011,-6.6251,-6.8256,-6.9004,-6.9183,0.0,0.0,0.0,0.0,0.0,0.0,0.0,0.0,-4.4819,-4.5397,0.0,0.0,0.0,0.0,0.0,-4.6326,-4.6376,-4.6627,-4.7179,-4.7143,-4.7205,-4.7266,-4.8272,-4.8913,-4.8913,-4.9906,-5.0182,-4.9565,-5.0117,-5.0946,-5.2051,-5.2578,-5.3708,-5.5239,-5.4185,-5.4888,-5.6846,-5.5742,-5.5616,-5.5968,-5.3783,-5.2955,-5.3181,-5.4737,-5.4662,-5.3884,-5.4988,-5.6239,-5.6946,-5.3978,-5.456,-5.601,-5.3673,-5.2929,-5.2929,-5.2929,-5.2929,-5.2929,0.0,0.0,0.0,0.0,0.0,0.0,0.0,0.0,0.0,0.0,0.0,0.0,0.0,0.0,0.0,0.0,0.0,0.0,0.0,0.0,0.0,0.0,0.0,0.0,0.0,0.0,0.0,0.0,0.0,-6.2797,-6.2772,-6.2245,-6.1165,-5.9533,-5.8956,-5.8403,-5.7851,-5.7273,-5.6972,-5.6947,-5.642,-5.5892,-5.5365,-5.5412,-5.6053,-5.7067,-5.6621,-5.7354,-5.91,-6.2032,-6.3512,-6.4126,-6.5473,-6.5981,-6.6251,-6.8256,-6.9004,-6.9183,0.0,0.0,0.0,0.0,0.0,-4.4995,-4.5422,-4.4995,-4.4694,0.0,0.0,0.0,-4.492,-4.5598,-4.6627,-4.7983,-4.8083,-4.8335,-4.8862,-4.8912,-4.9457,-5.0627,-5.0914,-5.1096,-5.1096,-5.1408,-5.0739,-4.9012,-4.9163,-4.959,-5.0293,-5.0444,-5.1423,-5.303,-5.3482,-5.3833,-5.3984,-5.2879,-5.3432,-5.4863,-5.3055,-5.3281,-5.4637,-5.3884,-5.416,-5.4913,-5.4838,-5.6463,-5.8315,-5.6467,-5.6463,-5.663,-5.38,-5.2929,-5.2929,-5.2929,-5.2929,-5.2929,-5.2929,0.0,0.0,0.0,0.0,0.0,0.0,0.0,0.0,0.0,0.0,0.0,0.0,0.0,0.0,0.0,0.0,0.0,0.0,0.0,0.0,0.0,0.0,0.0,0.0,0.0,0.0,0.0,-6.2245,-6.2044,-6.1667,-6.0713,-5.9809,-5.8956,-5.8001,-5.7223,-5.6696,-5.6118,-5.5641,-5.5239,-5.5089,-5.4938,-5.4859,-5.5684,-5.6196,-5.6621,-5.9036,-6.0059,-6.0067,-6.093,-6.2345,-6.4096,-6.4964,-6.5592,-6.6251,-6.8256,-6.9004,-6.9183,0.0,0.0,0.0,0.0,0.0,-4.5773,-4.6125,-4.5899,-4.5748,0.0,0.0,0.0,-4.6351,-4.7355,-4.8309,-4.9063,-4.9314,-4.9785,-5.0537,-5.06,-5.133,-5.2944,-5.3005,-5.2807,-5.2332,-5.2332,-5.1283,-4.9113,-4.8887,-4.8812,-4.8887,-4.9138,-4.9891,-5.1071,-5.1699,-5.2076,-5.2151,-5.0795,-5.1649,-5.3808,-5.2829,-5.3482,-5.5013,-5.4737,-5.5239,-5.6093,-5.6244,-5.7934,-5.9744,-5.7433,-5.6484,-5.5822,-5.3601,-5.2929,-5.2929,-5.2929,-5.2929,-5.2929,-5.2929,-5.2929,-5.2892,-5.2874,0.0,0.0,-5.2599,-5.4202,0.0,0.0,0.0,0.0,0.0,0.0,0.0,0.0,0.0,0.0,0.0,0.0,0.0,0.0,0.0,0.0,0.0,0.0,0.0,0.0,-6.1793,-6.1316,-6.0512,-5.9659,-5.8704,-5.77,-5.7022,-5.6319,-5.5541,-5.4963,-5.4511,-5.421,-5.4676,-5.4962,-5.4962,-5.6372,-5.7369,-5.8182,-6.0228,-6.1278,-6.1585,-6.1585,-6.2529,-6.4096,-6.5054,-6.5682,-6.6251,-6.8256,-6.9004,-6.9183,0.0,0.0,-4.6326,-4.6401,-4.6803,-4.7118,-4.7305,-4.7193,-4.7431,0.0,-4.7682,-4.7857,-4.9012,-4.9967,-5.0318,-4.9816,-5.0413,-5.11,-5.1953,-5.2095,-5.2924,-5.4564,-5.4568,-5.4041,-5.2978,-5.2978,-5.1862,-4.9515,-4.9012,-4.851,-4.8008,-4.846,-4.8962,-4.9515,-4.9515,-5.0017,-5.082,-4.959,-5.0444,-5.2653,-5.2779,-5.3632,-5.4988,-5.6269,-5.6947,-5.7323,-5.8227,-5.9737,-6.0939,-5.7943,-5.6121,-5.4915,-5.3388,-5.2934,-5.2883,-5.2927,-5.2927,-5.2927,-5.2927,-5.2909,-5.2886,-5.2918,-5.2924,0.0,-5.0383,-5.1485,0.0,0.0,0.0,0.0,0.0,0.0,0.0,0.0,0.0,0.0,0.0,0.0,0.0,0.0,0.0,0.0,0.0,0.0,-6.1918,-6.1743,-6.1165,-6.0387,-5.9382,-5.8755,-5.775,-5.6269,-5.6018,-5.5465,-5.4486,-5.3909,-5.3677,-5.393,-5.4909,-5.5485,-5.5748,-5.7469,-5.9104,-6.048,-6.0661,-6.1644,-6.3079,-6.3139,-6.3498,-6.4126,-6.5413,-6.5951,-6.6251,-6.8256,-6.9004,-6.9183,0.0,-4.6301,-4.6451,-4.6903,-4.7054,-4.7431,-4.8309,-4.8058,-4.8109,-4.9138,-4.9188,-4.9715,-5.1272,-5.1247,-5.1071,-5.0971,-5.2193,-5.2717,-5.2041,-5.2728,-5.4068,-5.6165,-5.5709,-5.5051,-5.4134,-5.4101,-5.241,-4.8937,-4.8812,-4.8711,-4.8611,-4.8234,-4.8385,-4.8937,-4.8937,-4.8786,-4.8661,-5.0167,-5.0845,-5.0996,-5.19,-5.3984,-5.6445,-5.544,-5.6445,-5.8303,-5.76,-5.9119,-6.145,-6.1469,-6.0205,-5.806,-5.4133,-5.2944,-5.2907,-5.2893,-5.2905,-5.2905,-5.2905,-5.2893,-5.2913,-5.2884,-5.2919,0.0,-5.2362,-5.2565,-5.4448,0.0,0.0,0.0,0.0,0.0,0.0,0.0,0.0,0.0,0.0,0.0,0.0,0.0,0.0,0.0,0.0,0.0,-6.1441,-6.0085,-5.9081,-5.8453,-5.8227,-5.7248,-5.6545,-5.6219,-5.4888,-5.4084,-5.3884,-5.3331,-5.3691,-5.5072,-5.5274,-5.6114,-5.756,-5.9228,-6.0176,-6.06,-6.1969,-6.2817,-6.3109,-6.3617,-6.3887,-6.4066,-6.4904,-6.5533,-6.6251,-6.8256,-6.9004,-6.9183,-4.625,-4.6301,-4.6476,-4.7029,-4.7355,-4.7883,-4.9012,-4.8937,-4.9163,-5.0293,-5.067,-5.1172,-5.2026,-5.185,-5.1883,-5.2385,-5.2891,-5.3512,-5.4295,-5.4786,-5.5737,-5.7306,-5.7361,-5.6419,-5.4359,-5.4386,-5.2554,-4.8761,0.0,0.0,-4.7531,-4.7531,-4.7531,-4.7556,-4.7832,-4.7933,-4.7983,-4.9113,-5.0092,-5.0946,-5.2076,-5.4009,-5.6118,-5.529,-5.6545,-5.8604,-5.7775,-5.9171,-6.1424,-6.093,-6.0591,-5.9905,-5.7302,-5.4826,-5.3555,-5.6973,-5.8008,-5.8017,-5.7997,-5.8007,-5.8576,-6.1267,-5.7342,0.0,0.0,-5.7125,-5.8975,0.0,0.0,0.0,0.0,0.0,0.0,0.0,0.0,0.0,0.0,0.0,0.0,0.0,0.0,0.0,0.0,0.0,-6.0186,-5.8805,-5.7675,-5.7047,-5.7047,-5.5993,-5.5265,-5.4963,-5.4135,-5.3582,-5.3306,-5.387,-5.4541,-5.5419,-5.7122,-5.839,-5.929,-6.1019,-6.1762,-6.1851,-6.273,-6.3258,-6.3528,-6.3528,-6.3707,-6.4096,-6.5114,-6.5712,-6.6251,-6.8256,-6.9004,-6.9183,-4.615,-4.6225,-4.6476,-4.7029,-4.7657,-4.846,-4.959,-4.9841,-5.0293,-5.1297,-5.1925,-5.2387,-5.27,-5.2768,-5.3233,-5.4527,-5.4199,-5.4847,-5.7111,-5.7105,-5.7309,-5.8088,-5.8501,-5.7173,-5.3941,-5.3968,-5.2259,-4.8611,0.0,0.0,0.0,-4.6979,-4.6903,-4.6476,-4.6702,-4.723,-4.7908,-4.7908,-4.9213,-5.1373,0.0,-5.3758,-5.5239,-5.534,-5.6646,-5.8328,-5.7901,-5.9122,-6.0717,-5.9607,-6.0114,-6.1233,-6.1903,-5.9325,-5.7103,-6.2928,-6.4217,-6.3715,-6.3221,-6.31,-6.4092,-6.8347,-6.3192,-5.7696,0.0,0.0,0.0,0.0,0.0,0.0,0.0,0.0,0.0,0.0,0.0,0.0,0.0,0.0,0.0,0.0,0.0,0.0,0.0,0.0,-5.8504,-5.765,-5.652,-5.5892,-5.5892,-5.4938,-5.4185,-5.3708,-5.3607,-5.347,-5.3359,-5.4742,-5.5748,-5.644,-5.9138,-6.069,-6.105,-6.2497,-6.3079,-6.3079,-6.3079,-6.3378,-6.3767,-6.3288,-6.3438,-6.4126,-6.5353,-6.5832,-6.6071,-6.8076,-6.8884,-6.9183,-4.5573,-4.5974,-4.6476,-4.7029,-4.7983,-4.9038,-5.0142,-5.077,-5.1297,-5.1925,-5.2503,-5.3394,-5.4877,-5.501,-5.5959,-5.8246,-5.8058,-5.8282,-5.93,-5.8467,-5.7958,-5.8088,-5.7603,-5.5883,-5.2759,-5.2701,-5.1186,-4.8008,-4.7933,0.0,0.0,0.0,-4.7043,-4.6943,-4.6075,-4.6502,-4.7908,-4.7908,-4.9213,0.0,-5.195,-5.3181,0.0,-5.5189,-5.6168,-5.7223,-5.7148,-5.7811,-5.8967,0.0,-6.1029,-6.2246,-6.7875,-6.8515,-6.7552,-6.9453,-6.8358,-6.606,-6.3701,-6.3068,-6.3236,-6.3858,-6.821,-7.0659,-6.4169,0.0,-6.3122,-6.3095,0.0,0.0,0.0,0.0,0.0,0.0,0.0,0.0,0.0,0.0,0.0,0.0,0.0,0.0,0.0,0.0,0.0,-5.642,-5.5365,-5.4762,-5.4762,-5.416,-5.3758,-5.3708,-5.3256,-5.3682,-5.5115,-5.5287,-5.6929,-5.9904,-6.0298,-6.1318,-6.2817,-6.3021,-6.3079,-6.3079,-6.3079,-6.3109,-6.3169,-6.3109,-6.3438,-6.4066,-6.4844,-6.5144,-6.5383,-6.7358,-6.8465,-6.9123,-4.6155,-4.615,-4.6376,-4.6627,-4.7305,-4.8184,-4.9289,-5.077,-5.185,-5.2076,-5.3385,-5.4935,-5.6369,-5.6778,-5.8081,-6.08,-5.9947,-5.9567,-6.0467,-5.9725,-5.9099,-5.871,-5.7542,-5.609,-5.4375,-5.2654,-5.0764,-4.867,-4.7861,0.0,0.0,0.0,0.0,-4.6652,-4.6502,-4.6979,-4.7958,-4.8611,-4.9615,0.0,0.0,-5.2528,0.0,-5.4084,-5.5502,-5.7113,-5.7378,-5.913,-6.1271,0.0,-6.3564,0.0,-6.6491,-6.8072,-7.0239,-7.0728,-6.9573,-6.8086,-6.7759,-6.6535,-6.6089,-6.9193,-6.6027,-6.2323,-6.2934,-6.0023,-5.7159,-5.7204,0.0,0.0,0.0,0.0,0.0,0.0,-5.4791,0.0,0.0,0.0,0.0,0.0,0.0,0.0,0.0,0.0,0.0,0.0,0.0,-5.4059,-5.4059,-5.3557,-5.3688,-5.4634,-5.4469,-5.5181,-5.6892,-5.7886,-5.9076,-6.048,-6.1525,-6.2409,-6.3079,-6.3079,-6.3079,-6.3079,-6.3079,-6.3288,-6.3617,-6.3617,-6.4006,-6.4665,-6.5323,-6.5592,-6.5832,-6.7837,-6.8764,-6.9153,-4.7118,-4.6807,-4.6577,-4.6336,-4.6753,-4.7606,-4.9012,-5.0963,-5.2435,-5.274,-5.4577,-5.6605,-5.8612,-5.9266,-6.0892,-6.4251,-6.2835,-6.2027,-6.2692,-6.1403,-6.007,-5.8766,-5.7416,-5.588,-5.4204,-5.2079,-5.0086,-4.8458,-4.7399,-4.6778,0.0,0.0,0.0,-4.6326,-4.6878,-4.7506,-4.8209,0.0,-5.0167,-5.1172,-5.1825,-5.2447,-5.3122,-5.4064,-5.5486,-5.7267,-5.8233,-6.0231,-6.2246,-6.1344,-6.5431,0.0,-6.6422,-6.7859,-7.0908,-7.0896,-7.0265,-6.9569,-6.9763,0.0,-6.8482,-7.026,-6.1706,-5.4196,-5.9179,-5.6489,-5.2906,-5.2894,-5.2919,0.0,0.0,0.0,-5.2868,-5.2911,0.0,-5.5024,0.0,0.0,0.0,0.0,0.0,0.0,0.0,0.0,0.0,0.0,-5.3457,0.0,-5.3256,-5.2904,-5.3521,-5.5353,-5.5419,-5.644,-5.8669,-5.9933,-6.075,-6.1258,-6.2497,-6.3079,-6.3079,-6.3079,-6.3079,-6.3079,-6.3079,-6.3318,-6.3737,-6.3737,-6.4246,-6.5084,-6.5562,-6.5951,-6.646,-6.8106,-6.8704,-6.8884,-4.8368,-4.8026,-4.7383,-4.644,-4.6753,-4.7795,-5.0042,-5.1768,-5.3181,-5.4352,-5.5898,-5.8314,-6.1958,-6.2928,-6.5076,-6.9381,-6.7924,-6.6758,-6.6819,-6.3797,-6.0723,-5.7801,-5.6995,-5.4679,-5.0479,-5.0273,-4.8971,-4.6386,-4.6326,-4.6602,0.0,0.0,-4.6301,-4.6326,-4.6878,-4.7732,-4.8786,-4.9364,-5.0845,-5.2804,-5.2302,-5.334,-5.534,0.0,-5.6551,-5.7403,-5.9694,0.0,0.0,-6.1165,-6.5708,0.0,0.0,0.0,0.0,0.0,0.0,0.0,0.0,0.0,0.0,-6.1818,0.0,0.0,0.0,0.0,-5.2901,-5.2872,-5.2914,-5.2883,-5.2911,-5.2879,-5.2904,-5.2904,-5.2929,0.0,0.0,0.0,0.0,0.0,0.0,0.0,0.0,0.0,0.0,0.0,-5.1975,0.0,-5.2126,-5.2151,-5.3113,-5.5327,-5.5419,-5.6994,-6.0359,-6.048,-6.1318,-6.3021,-6.3079,-6.3079,-6.3079,-6.3079,-6.3079,-6.3079,-6.3079,-6.3079,-6.3109,-6.3109,-6.3857,-6.5024,-6.4994,-6.5832,-6.7029,-6.7747,-6.8016,-6.8106,-4.8744,-4.8881,-4.842,-4.6172,-4.701,-4.8904,-5.1396,-5.3268,-5.5189,-5.7305,-5.9339,-6.2136,-6.5968,-6.7243,-6.8699,-7.1098,-6.9842,-6.8405,-6.7089,-6.4091,-6.1517,-5.9587,-5.6404,-5.444,-5.4033,-5.1246,-4.9677,-4.943,-4.7668,-4.7129,0.0,-4.6728,-4.6677,-4.738,-4.7556,-4.8058,0.0,0.0,0.0,0.0,0.0,-5.563,-5.8265,0.0,0.0,-5.9438,-6.0291,-6.1656,0.0,-6.3706,-6.6981,-7.0882,-7.0919,-7.0916,-7.0893,-7.0893,-6.9643,0.0,0.0,0.0,-6.619,-5.7312,0.0,0.0,0.0,0.0,0.0,0.0,-5.4978,-5.2911,-5.2902,-5.2884,-5.2884,-5.2884,-5.2904,-5.3153,0.0,0.0,0.0,0.0,0.0,0.0,0.0,0.0,0.0,-5.185,-5.0795,-5.0745,0.0,-5.2807,-5.4443,-5.7058,-5.823,-5.9872,-6.2233,-6.2233,-6.2497,-6.3079,-6.3079,-6.3079,-6.3079,-6.3079,-6.3079,-6.3079,-6.3079,-6.3079,-6.3139,-6.4006,-6.4635,-6.5114,-6.5981,-6.661,-6.7059,-6.7717,-6.7956,-6.8076,-5.0435,-5.0133,-4.9583,-4.7691,-4.8625,-5.027,-5.2171,-5.4973,-5.7603,-5.9717,-6.2611,-6.568,-6.8935,-7.0123,-7.1188,-7.2475,-7.1637,-6.9794,-6.6934,-6.4658,-6.2389,-6.0086,-5.6485,-5.4804,-5.5581,-5.2653,-5.0792,-5.025,-4.9096,-4.8477,-4.8184,-4.7104,-4.6878,-4.7355,-4.7732,-4.8008,-4.8335,-5.0393,-5.1545,0.0,0.0,-5.7578,0.0,0.0,-5.8857,-6.1264,0.0,-6.2942,-6.4457,-6.5411,-6.7394,-6.9485,-6.9529,-7.0169,-7.0728,-6.9808,-6.8286,-6.7016,-6.7016,-6.7678,0.0,-6.0803,-5.6067,0.0,-5.2901,0.0,-5.522,0.0,0.0,-5.3912,-5.7288,-5.7174,-5.6524,-5.653,-5.4452,-5.2795,0.0,-5.1831,0.0,0.0,0.0,0.0,0.0,0.0,-5.0896,-5.0695,-4.964,-4.9873,0.0,0.0,-5.506,-5.8429,-5.9818,-6.1318,-6.3079,-6.3079,-6.3079,-6.3079,-6.3079,-6.3079,-6.3079,-6.3079,-6.3079,-6.3079,-6.3079,-6.3199,-6.3468,-6.4306,-6.4934,-6.5473,-6.6311,-6.6789,-6.7059,-6.7717,-6.7837,-6.7657,-5.3131,-5.1889,-5.0933,-5.0933,-5.1405,-5.2015,-5.2681,-5.6848,-6.0406,-6.1765,-6.5542,-6.8884,-7.0889,-7.1667,-7.2535,-7.3821,-7.3343,-7.1125,-6.6962,-6.5758,-6.3391,-5.933,-5.7329,-5.5868,-5.4902,-5.4266,-5.2421,-4.9128,-5.0646,-5.0532,-4.8736,-4.7643,-4.6839,-4.6326,-4.738,0.0,-4.7305,-5.0222,-5.2785,-5.5081,-5.725,-5.9161,-6.0687,-6.0629,-6.1469,-6.2786,-6.3922,-6.3828,-6.3475,-6.595,-6.6912,-6.6974,-6.6842,-6.8537,-7.0034,-6.7698,-6.7,-6.6962,-6.6973,-6.8784,-7.0724,-7.0691,0.0,0.0,0.0,0.0,-5.6883,0.0,0.0,0.0,-6.5138,-6.4839,-6.3249,-6.3093,-5.7266,-5.2983,-5.3625,-5.4175,-5.4063,0.0,0.0,0.0,-5.133,-5.0867,-5.0352,-4.9797,-4.8686,-4.9219,0.0,0.0,0.0,-5.9381,-6.0223,-6.1437,-6.3079,-6.3079,-6.3049,-6.3019,-6.3019,-6.3019,-6.3019,-6.3019,-6.3049,-6.3079,-6.3079,-6.3408,-6.3947,-6.3977,-6.4755,-6.5922,-6.5951,-6.634,-6.6969,-6.7627,-6.7478,-6.6849,-5.3045,-5.3571,-5.4068,-5.4068,-5.3612,-5.4067,0.0,-5.9398,-6.2497,-6.5286,-6.8244,-7.1098,-7.3582,-7.4001,-7.424,-7.4599,-7.4031,-7.279,-7.0664,-6.8144,-6.5098,-6.1253,-6.0132,-5.8506,-5.5987,-5.6628,-5.5744,-5.3126,-5.2951,-5.1516,-4.88,0.0,0.0,-4.5748,0.0,-4.7255,-4.7367,-5.1471,-5.541,-5.9064,-5.9602,-6.1449,0.0,0.0,-6.3239,-6.4307,-6.365,-6.3266,-6.3209,-6.3892,-6.5353,-6.6673,-6.4689,-6.4572,-6.5382,-6.6613,-6.6974,-6.7005,-6.7005,-6.7456,-6.8027,-6.8005,-6.568,-6.3401,0.0,0.0,0.0,0.0,0.0,0.0,0.0,0.0,-6.5341,-6.34,-5.6009,-5.0493,-5.0677,-5.3503,-5.4726,-5.2527,0.0,0.0,-5.1773,-5.2253,-5.2365,-5.174,-5.0613,0.0,0.0,0.0,0.0,-5.9412,-6.1439,-6.2613,-6.3079,-6.3079,-6.2839,-6.2361,-6.2361,-6.2361,-6.2361,-6.2361,-6.26,-6.3079,-6.3079,-6.3169,-6.3348,-6.3827,-6.4186,-6.4575,-6.5084,-6.5383,-6.5622,-6.6281,-6.64,-6.6161,-5.3642,-5.4878,-5.6017,-5.6017,-5.6581,0.0,-5.8782,-6.0984,0.0,-6.6221,-6.9093,-7.1457,-7.2984,-7.418,-7.4749,-7.448,-7.4121,-7.2775,-7.0083,-6.8826,-6.6577,-6.3131,-6.2141,-6.0794,-5.9071,-5.9395,-5.7811,-5.4244,-5.4112,-5.2104,-4.8397,0.0,0.0,0.0,0.0,-4.8117,-4.8983,-5.3842,-5.7706,-6.054,-6.1318,0.0,0.0,-6.3348,-6.3528,-6.4066,-6.3348,-6.3114,-6.3296,-6.4452,-6.502,-6.5053,-6.3595,-6.3091,-6.3387,-6.4875,-6.5293,-6.5293,-6.5323,-6.5293,-6.5292,-6.5281,-6.6147,-6.7008,-6.6984,-6.0456,-5.4314,0.0,0.0,0.0,0.0,0.0,-6.3535,-5.8098,-5.2929,-4.9615,-4.9608,-5.2439,-5.4215,-5.3241,-5.5317,0.0,0.0,-5.3021,-5.2697,-5.209,0.0,0.0,0.0,0.0,0.0,-5.9711,-6.1634,-6.278,-6.3079,-6.278,-6.245,-6.2091,-6.2091,-6.2091,-6.2121,-6.2391,-6.272,-6.3079,-6.3079,-6.3228,-6.3498,-6.3857,-6.4186,-6.4485,-6.4874,-6.5024,-6.5024,-6.5114,-6.5144,-6.5084,-5.4581,-5.5897,-5.7154,-5.6885,-5.9219,0.0,0.0,-6.245,0.0,-6.64,0.0,-7.1427,-7.1427,-7.3432,-7.451,-7.3941,-7.3732,-7.206,-6.8207,-6.876,-6.7901,-6.4842,-6.3772,-6.299,-6.2438,-6.2051,-5.938,-5.444,-5.4916,-5.2793,-4.8222,0.0,0.0,0.0,0.0,0.0,0.0,-5.6537,-5.939,-6.0814,-6.2437,-6.3079,-6.3079,-6.3079,-6.3079,-6.3079,-6.3079,-6.3109,-6.3436,-6.5728,-6.4981,-6.3111,-6.3116,-6.3058,-6.3058,-6.3058,-6.309,-6.3091,-6.3091,-6.3091,-6.312,-6.3091,-6.4785,-6.6582,-6.6959,-6.2159,-5.7583,-5.7612,-6.2369,-6.5796,0.0,0.0,-5.9083,-5.0942,-5.0308,-5.0766,-5.0493,-5.2379,-5.4106,-5.4877,-5.7997,0.0,0.0,0.0,0.0,0.0,0.0,0.0,0.0,0.0,0.0,0.0,-6.1403,0.0,-6.3079,0.0,-6.2181,-6.2091,-6.2091,-6.2091,-6.2121,-6.269,-6.2989,-6.3079,-6.3079,-6.3378,-6.3887,-6.3887,-6.4246,-6.4784,-6.4784,-6.4784,-6.4695,-6.4096,-6.3887,-6.3887,-5.5179,-5.6585,-5.7423,-5.5807,-5.862,-6.1613,-6.3079,-6.5951,-6.8465,-6.9871,-7.2475,-7.418,-7.418,-7.4121,-7.4031,-7.3911,-7.2894,-7.1894,-7.1123,-7.0349,-6.869,-6.6083,-6.6124,-6.5015,-6.2376,-6.3115,-6.1644,-5.7693,-5.7528,-5.4981,-5.0118,0.0,0.0,0.0,0.0,0.0,-5.5022,-5.7053,0.0,-6.187,-6.2724,-6.3079,-6.3079,-6.3079,-6.3079,-6.3079,-6.3079,-6.3113,-6.3175,-6.3644,-6.3468,-6.3087,-6.3083,-6.3081,-6.3081,-6.3081,-6.3111,-6.3113,-6.3113,-6.3113,-6.3114,-6.3089,-6.3445,-6.4338,-6.6506,-6.6007,-6.5132,-6.5136,-6.4367,-6.3671,-6.318,0.0,0.0,0.0,0.0,0.0,-5.5346,-5.7409,-5.8755,-5.8057,-5.9232,-5.9409,0.0,0.0,0.0,0.0,0.0,0.0,0.0,0.0,0.0,0.0,0.0,0.0,0.0,0.0,0.0,-6.2091,-6.2091,-6.2091,-6.2091,-6.2211,-6.257,-6.3079,-6.3079,-6.3139,-6.3228,-6.3228,-6.3318,-6.3408,-6.3408,-6.3408,-6.3408,-6.3288,-6.3228,-6.3228,-5.7154,-5.7992,-5.856,-5.8291,-6.0984,0.0,0.0,-6.8585,-7.035,-6.9961,-7.1308,-7.2176,-7.1876,-7.3073,-7.3612,-7.2924,-7.2595,-7.2116,-7.1427,-7.0799,-6.967,-6.7795,-6.7549,-6.6332,-6.3759,-6.4249,-6.2411,-5.8118,-5.7056,-5.4316,-5.0106,-4.9102,0.0,-4.8267,0.0,-5.3268,0.0,0.0,0.0,-6.2151,-6.281,-6.3079,-6.3079,-6.3079,-6.3079,-6.3079,-6.3079,-6.3111,-6.3084,-6.3109,-6.3111,-6.3142,-6.3109,-6.3079,-6.3079,-6.3079,-6.3079,-6.3079,-6.3079,-6.3079,-6.3109,-6.3113,-6.3087,-6.3416,-6.4724,-6.499,-6.4957,-6.4991,-6.3948,-6.3118,-6.312,-6.0437,0.0,0.0,0.0,0.0,0.0,-5.959,-6.0384,-5.8408,-5.9315,-5.9428,-5.7752,0.0,0.0,0.0,0.0,0.0,0.0,0.0,0.0,0.0,0.0,0.0,0.0,0.0,0.0,-6.2091,-6.2091,-6.2091,-6.2121,-6.245,-6.278,-6.3079,-6.3079,-6.3079,-6.3079,-6.3079,-6.3079,-6.3079,-6.3079,-6.3079,-6.3079,-6.3079,-6.3079,-6.3079,-5.9099,-5.9757,-6.0386,-6.1194,-6.3737,0.0,-6.7747,-7.0081,-7.1218,-6.9991,-7.026,-7.038,-6.9901,-7.1996,-7.3043,-7.1966,-7.2265,-7.2026,-7.0979,-7.0649,-7.0051,-6.9034,-6.7926,-6.661,-6.4994,-6.4755,-6.2409,-5.7999,-5.6482,-5.3913,0.0,-4.8916,0.0,0.0,0.0,0.0,0.0,0.0,-6.0386,-6.2151,-6.281,-6.3079,-6.3079,-6.3079,-6.3079,-6.3079,-6.3079,-6.3079,-6.3079,-6.3079,-6.3079,-6.3079,-6.3079,-6.3079,-6.3079,-6.3079,-6.3079,-6.3079,-6.3079,-6.3079,-6.3079,-6.3079,-6.3113,-6.3087,-6.3087,-6.309,-6.3091,-6.3088,-6.3087,-6.3119,-6.309,-6.3091,0.0,0.0,0.0,0.0,0.0,0.0,-6.0938,-5.8724,-5.9513,-5.9398,-5.7124,0.0,0.0,0.0,0.0,-5.5748,-5.5209,-5.6286,0.0,0.0,0.0,0.0,-6.2091,0.0,-6.2301,0.0,-6.2301,-6.2301,-6.2331,-6.2839,-6.3079,-6.3079,-6.3079,-6.3079,-6.3079,-6.3079,-6.3079,-6.3079,-6.3079,-6.3079,-6.3079,-6.3079,-6.3079,-6.3079,0.0,0.0,0.0,0.0,0.0,0.0,-6.7956,-6.9692,-7.1368,-7.2415,-7.2595,-7.2624,-7.2565,-7.2265,-7.2026,-7.1906,-7.1398,-7.1038,-7.0919,-6.9812,-6.9123,-6.9004,-6.661,-6.5203,-6.5024,-6.3857,-6.1855,-5.8971,-5.8196,-5.6117,0.0,0.0,0.0,0.0,0.0,0.0,0.0,-5.8949,-6.0805,-6.2151,-6.281,-6.3079,-6.3079,-6.3079,-6.3079,-6.3079,-6.3079,-6.3079,-6.3079,-6.3079,-6.3079,-6.3079,-6.3079,-6.3079,-6.3079,-6.3079,-6.3079,-6.3079,-6.3079,-6.3079,-6.3079,-6.3079,-6.3109,-6.3109,-6.3109,-6.3081,-6.3081,-6.3109,-6.3109,-6.3081,-6.3111,-6.3111,-6.3109,0.0,0.0,0.0,0.0,0.0,-6.1739,-6.085,-6.0902,-5.9757,-5.6555,-5.6765,0.0,0.0,-5.491,-5.5269,-5.5179,-5.5867,0.0,-5.8082,0.0,-6.0745,-6.2091,-6.269,0.0,-6.2989,-6.2989,-6.2989,-6.2989,-6.3049,-6.3079,-6.3079,-6.3079,-6.3079,-6.3079,-6.3079,-6.3079,-6.3079,-6.3079,-6.3079,-6.3079,-6.3079,-6.3079,-6.3079,0.0,0.0,0.0,0.0,0.0,0.0,0.0,-6.9243,-6.9961,-7.05,-7.1218,-7.1577,-7.1188,-7.0919,-7.059,-7.0201,-7.026,-7.0171,-6.9782,-6.9273,-6.8824,-6.8405,-6.661,-6.5443,-6.5054,-6.4126,-6.254,0.0,-5.883,0.0,0.0,0.0,0.0,0.0,0.0,-5.5987,-5.7453,-5.9308,-6.0864,-6.2151,-6.281,-6.3079,-6.3079,-6.3079,-6.3079,-6.3079,-6.3079,-6.3079,-6.3079,-6.3079,-6.3079,-6.3079,-6.3079,-6.3079,-6.3079,-6.3079,-6.3079,-6.3079,-6.3079,-6.3079,-6.3079,-6.3079,-6.3079,-6.3079,-6.3079,-6.3079,-6.3079,-6.3079,-6.3079,-6.3079,-6.3079,-6.3079,-6.3107,0.0,0.0,0.0,0.0,0.0,0.0,-6.0625,-5.9787,-5.8501,-5.6376,0.0,0.0,0.0,0.0,-5.5179,-5.5179,-5.5448,0.0,-5.7453,0.0,-6.0146,-6.1493,-6.254,-6.3079,-6.3079,-6.3079,-6.3079,-6.3079,-6.3079,-6.3079,-6.3079,-6.3079,-6.3079,-6.3079,-6.3079,-6.3079,-6.3079,-6.3079,-6.3079,-6.3079,-6.3079,-6.3079,-6.3079,-6.3258,0.0,-6.4485,0.0,-6.637,-6.6819,-6.8704,-6.9004,-6.9004,-6.9004,-6.9602,-6.9961,-6.9722,-6.9692,-6.9512,-6.9034,-6.9423,-6.9423,-6.8734,-6.8525,-6.8106,-6.7418,-6.6131,0.0,-6.4725,-6.4066,-6.2869,-6.1104,-5.9697,0.0,0.0,0.0,0.0,0.0,-5.5927,-5.7393,-5.88,-6.0116,-6.1343,-6.2421,-6.2899,-6.3079,-6.3079,-6.3079,-6.3079,-6.3079,-6.3079,-6.3079,-6.3079,-6.3079,-6.3079,-6.3079,-6.3079,-6.3079,-6.3079,-6.3079,-6.3079,-6.3079,-6.3079,-6.3079,-6.3079,-6.3079,-6.3079,-6.3079,-6.3079,-6.3079,-6.3079,-6.3079,-6.3079,-6.3079,-6.3079,-6.3079,-6.3107,-6.3074,0.0,0.0,0.0,-6.2538,0.0,-5.9976,-5.8776,-5.743,-5.6017,-5.5478,0.0,0.0,0.0,0.0,0.0,0.0,0.0,0.0,0.0,0.0,0.0,-6.251,-6.3079,-6.3079,-6.3079,-6.3079,-6.3079,-6.3079,-6.3079,-6.3079,-6.3079,-6.3079,-6.3079,-6.3079,-6.3079,-6.3079,-6.3079,-6.3079,-6.3079,-6.3079,-6.3079,-6.3079,-6.3737,-6.5054,-6.64,-6.7717,-6.8495,-6.8974,-6.9004,-6.9004,-6.9004,-6.9004,-6.8435,-6.8256,-6.8944,-6.9004,-6.9004,-6.9004,-6.9004,-6.8704,-6.8016,-6.7358,-6.6729,0.0,0.0,-6.4006,-6.4006,-6.3408,-6.245,-6.1104,0.0,0.0,-5.7094,0.0,-5.7034,-5.7124,-5.9129,-6.0027,-6.0146,-6.1493,-6.245,-6.3079,-6.3079,-6.3079,-6.3079,-6.3079,-6.3079,-6.3079,-6.3079,-6.3079,-6.3079,-6.3079,-6.3079,-6.3079,-6.3079,-6.3079,-6.3079,-6.3079,-6.3079,-6.3079,-6.3079,-6.3079,-6.3079,-6.3079,-6.3079,-6.3079,-6.3079,-6.3079,-6.3079,-6.3079,-6.3079,-6.3079,-6.3079,-6.3079,-6.3104,-6.3063,0.0,0.0,0.0,0.0,0.0,-5.9428,-5.8321,-5.7109,-5.5388,0.0,0.0,0.0,0.0,0.0,0.0,0.0,0.0,-5.8082,-5.9398,0.0,-6.2061,-6.275,-6.3079,-6.3079,-6.3079,-6.3079,-6.3079,-6.3079,-6.3079,-6.3079,-6.3079,-6.3079,-6.3079,-6.3079,-6.3079,-6.3079,-6.3079,-6.3079,-6.3079,-6.3079,-6.3079,-6.3079,-6.4515,-6.5413,-6.6281,-6.7148,-6.7478,-6.7627,-6.7627,-6.7627,-6.7478,-6.7029,-6.6759,-6.655,-6.6311,-6.7089,-6.7448,0.0,-6.7358,-6.7148,0.0,-6.6191,-6.6041,-6.5383,-6.4485,-6.4006,-6.4006,-6.3378,-6.2869,-6.245,0.0,0.0,0.0,-5.8261,-5.8471,-5.853,-6.0086,-6.1044,-6.1523,-6.2391,-6.2869,-6.3079,-6.3079,-6.3079,-6.3079,-6.3079,-6.3079,-6.3079,-6.3079,-6.3079,-6.3079,-6.3079,-6.3079,-6.3079,-6.3079,-6.3079,-6.3079,-6.3079,-6.3079,-6.3079,-6.3079,-6.3079,-6.3079,-6.3079,-6.3079,-6.3079,-6.3079,-6.3079,-6.3079,-6.3079,-6.3079,-6.3079,-6.3079,-6.3079,-6.3107,-6.3074,-6.3077,0.0,0.0,0.0,-6.2122,-5.9435,-5.8331,-5.7109,0.0,-5.5598,0.0,0.0,0.0,0.0,0.0,0.0,0.0,0.0,-5.9638,0.0,-6.2091,-6.2301,-6.263,-6.3079,-6.3079,-6.3079,-6.3079,-6.3079,-6.3079,-6.3079,-6.3079,-6.3079,-6.3079,-6.3079,-6.3079,-6.3079,-6.3079,-6.3079,-6.3079,-6.3079,-6.3079,-6.3079,-6.4515,-6.4964,-6.5473,-6.6131,-6.6251,-6.6251,-6.6251,-6.6251,-6.6101,-6.5682,-6.5652,-6.5473,-6.5084,-6.5772,0.0,-6.5682,-6.6011,-6.5802,-6.4725,-6.5024,-6.4964,-6.4306,-6.3887,-6.3647,-6.3647,0.0,0.0,-6.3079,-6.2002,-6.0954,-5.9997,-6.0146,-6.0356,-6.0625,-6.1463,-6.2091,-6.248,-6.2899,-6.3079,-6.3079,-6.3079,-6.3079,-6.3079,-6.3079,-6.3079,-6.3079,-6.3079,-6.3079,-6.3079,-6.3079,-6.3079,-6.3079,-6.3079,-6.3079,-6.3079,-6.3079,-6.3079,-6.3079,-6.3079,-6.3079,-6.3079,-6.3079,-6.3079,-6.3079,-6.3079,-6.3079,-6.3079,-6.3079,-6.3079,-6.3079,-6.3079,-6.3079,-6.3079,-6.3079,-6.3104,-6.3126,-6.3083,0.0,0.0,0.0,0.0,0.0,0.0,-5.6286,0.0,0.0,0.0,0.0,0.0,0.0,0.0,-5.9428,-6.0116,0.0,-6.245,-6.248,-6.266,-6.3079,-6.3079,-6.3079,-6.3079,-6.3079,-6.3079,-6.3079,-6.3079,-6.3079,-6.3079,-6.3079,-6.3079,-6.3079,-6.3079,-6.3079,-6.3079,-6.3079,-6.3079,-6.3079,-6.3887,-6.4006,0.0,0.0,-6.5024,0.0,-6.5024,-6.5024,-6.4994,-6.4964,-6.4964,-6.4934,-6.4904,-6.4904,-6.4904,-6.4904,0.0,0.0,0.0,-6.3947,-6.3677,-6.3109,-6.3079,0.0,-6.3079,-6.3079,-6.3079,-6.3079,-6.248,-6.248,-6.3079,-6.245,-6.248,-6.3079,-6.3079,-6.3079,-6.3079,-6.3019,-6.3049,-6.3079,-6.3019,-6.3049,-6.3079,-6.3079,-6.3079,-6.3079,-6.3079,-6.3079,-6.3079,-6.3079,-6.3079,-6.3079,-6.3079,-6.3079,-6.3079,-6.3079,-6.3079,-6.3079,-6.3079,-6.3079,-6.3079,-6.3079,-6.3079,-6.3079,-6.3079,-6.3079,-6.3079,-6.3079,-6.3079,-6.3079,-6.3079,-6.3079,-6.3079,-6.3107,-6.3126,-6.3022,-6.2854,0.0,0.0,0.0,0.0,0.0,0.0,-5.7154,-5.6944,0.0,0.0,0.0,0.0,0.0,-5.8141,-6.0086,-6.0835,-6.1792,-6.3079,-6.3019,-6.3019,-6.3079,-6.3079,-6.3079,-6.3079,-6.3079,-6.3079,-6.3079,-6.3079,-6.3079,-6.3079,-6.3079,-6.3079,-6.3079,-6.3079,-6.3079,-6.3079,-6.3079,-6.3079,-6.3079,0.0,0.0,-6.4216,-6.4904,-6.5024,-6.5024,-6.5024,-6.5024,-6.4844,-6.4306,-6.4246,-6.4066,-6.3588,-6.3528,-6.3528,-6.3528,-6.3977,-6.3977,-6.3348,-6.3288,-6.3228,-6.3079,-6.3079,-6.3079,-6.3079,-6.3079,-6.3079,-6.3079,-6.2929,-6.2929,-6.3079,-6.2929,-6.2929,-6.3079,-6.3079,-6.3079,-6.3049,-6.254,-6.263,-6.3019,-6.254,-6.263,-6.3079,-6.3079,-6.3079,-6.3079,-6.3079,-6.3079,-6.3079,-6.3079,-6.3079,-6.3079,-6.3079,-6.3079,-6.3079,-6.3079,-6.3079,-6.3079,-6.3079,-6.3079,-6.3079,-6.3079,-6.3079,-6.3079,-6.3079,-6.3079,-6.3079,-6.3079,-6.3079,-6.3079,-6.3079,-6.3079,-6.3134,-6.3096,-6.3139,-6.241,-6.0306,-5.7785,0.0,0.0,-5.7438,-5.8368,-5.7715,-5.7745,-5.7812,0.0,0.0,0.0,0.0,0.0,-5.9308,-6.0835,-6.1523,-6.2241,-6.3079,-6.257,-6.257,-6.3079,-6.3079,-6.3079,-6.3079,-6.3079,-6.3079,-6.3079,-6.3079,-6.3079,-6.3079,-6.3079,-6.3079,-6.3079,-6.3079,-6.3079,-6.3079,-6.3079,-6.3079,-6.3079,-6.3498,-6.3588,-6.3707,-6.4066,-6.4126,-6.4126,-6.4126,-6.4126,-6.4006,-6.3617,-6.3588,-6.3438,-6.3109,-6.3079,-6.3079,-6.3079,-6.3378,-6.3438,-6.3109,-6.3079,-6.3079,-6.3079,-6.3079,-6.3079,-6.3079,-6.3079,-6.3079,-6.3079,-6.3079,-6.2929,-6.263,-6.263,-6.263,-6.26,-6.2301,-6.251,-6.3019,-6.2361,-6.248,-6.3049,-6.269,-6.275,-6.3079,-6.3079,-6.3079,-6.3079,-6.3079,-6.3079,-6.3079,-6.3079,-6.3079,-6.3079,-6.3079,-6.3079,-6.3079,-6.3079,-6.3079,-6.3079,-6.3079,-6.3079,-6.3079,-6.3079,-6.3079,-6.3079,-6.3079,-6.3079,-6.3079,-6.3079,-6.3079,-6.3079,-6.3079,-6.3079,-6.2308,-5.99,-6.0522,-6.0346,-5.7672,-5.6064,0.0,-5.602,-5.7858,-5.9017,-5.8864,-5.8943,-5.889,-5.859,0.0,0.0,-5.9069,-5.9697,-6.0356,-6.1104,-6.1762,-6.2421,-6.3079,-6.272,-6.272,-6.3079,-6.3079,-6.3079,-6.3079,-6.3079,-6.3079,-6.3079,-6.3079,-6.3079,-6.3079,-6.3079,-6.3079,-6.3079,-6.3079,-6.3079,-6.3079,-6.3079,-6.3079,-6.3079,-6.3079,-6.3079,-6.3079,-6.3079,-6.3079,-6.3079,-6.3079,-6.3079,-6.3079,-6.3079,-6.3079,-6.3079,-6.3079,-6.3079,-6.3079,-6.3079,-6.3079,-6.3079,-6.3079,-6.3079,-6.3079,-6.3079,-6.3079,-6.3079,-6.3079,-6.3079,-6.3079,-6.3079,-6.3079,-6.278,-6.2241,-6.2151,-6.2091,-6.2061,-6.1403,-6.1732,-6.272,-6.2061,-6.2241,-6.2929,-6.281,-6.2899,-6.3079,-6.3079,-6.3079,-6.3079,-6.3079,-6.3079,-6.3079,-6.3079,-6.3079,-6.3079,-6.3079,-6.3079,-6.3079,-6.3079,-6.3079,-6.3079,-6.3079,-6.3079,-6.3079,-6.3079,-6.3079,-6.3079,-6.3079,-6.3079,-6.3079,-6.3079,-6.3079,-6.3079,-6.3079,-6.3107,-6.1513,-5.6559,-5.7309,-5.7724,-5.5476,0.0,-5.5922,-5.7775,-5.8866,-5.9683,-6.0286,-6.0266,-6.0057,-5.9608,-5.9967,-6.0027,0.0,-6.0625,-6.1253,-6.1253,-6.1912,-6.251,-6.3079,-6.3079,-6.3079,-6.3079,-6.3079,-6.3079,-6.3079,-6.3079,-6.3079,-6.3079,-6.3079,-6.3079,-6.3079,-6.3079,-6.3079,-6.3079,-6.3079,-6.3079,-6.3079,-6.3079,-6.3079,-6.3079,-6.3079,-6.3079,-6.3079,-6.3079,-6.3079,-6.3079,-6.3079,-6.3079,-6.3079,-6.3079,-6.3079,-6.3079,-6.3079,-6.3079,-6.3079,-6.3079,-6.3079,-6.3079,-6.3079,-6.3079,-6.3079,-6.3079,-6.3079,-6.3079,-6.3079,-6.3079,-6.3079,-6.3079,-6.3079,-6.3019,-6.2899,-6.2361,-6.2091,-6.2061,-6.1403,-6.1224,-6.1373,-6.0685,-6.1104,-6.2211,-6.1642,-6.2091,-6.3079,-6.3079,-6.3079,-6.3079,-6.3079,-6.3079,-6.3079,-6.3079,-6.3079,-6.3079,-6.3079,-6.3079,-6.3079,-6.3079,-6.3079,-6.3079,-6.3079,-6.3079,-6.3079,-6.3079,-6.3079,-6.3079,-6.3079,-6.3079,-6.3079,-6.3079,-6.3079,-6.3079,-6.3079,-6.3129,-6.2118,-5.8994,-5.6962,-5.5677,-5.527,0.0,-5.6967,-6.162,-6.1371,-6.0953,-6.1387,-6.113,-6.1134,-6.1583,-6.1224,-6.1164,-6.1613,-6.1822,-6.1942,-6.1942,-6.26,-6.2959,-6.3079,-6.3079,-6.3079,-6.3079,-6.3079,-6.3079,-6.3079,-6.3079,-6.3079,-6.3079,-6.3079,-6.3079,-6.3079,-6.3079,-6.3079,-6.3079,-6.3079,-6.3079,-6.3079,-6.3079,-6.3079,-6.2989,-6.3079,-6.3079,-6.3079,-6.3079,-6.3079,-6.3079,-6.3079,-6.3079,-6.3079,-6.3079,-6.3079,-6.3079,-6.3079,-6.3079,-6.3079,-6.3079,-6.3079,-6.3079,-6.3079,-6.3079,-6.3079,-6.3079,-6.3079,-6.3079,-6.3079,-6.3079,-6.3079,-6.3079,-6.3079,-6.272,-6.2002,-6.1702,-6.1373,-6.0984,-6.0326,-6.0446,-6.1074,-6.0386,-6.0655,-6.1553,-6.1224,-6.1702,-6.254,-6.254,-6.278,-6.3079,-6.3079,-6.3079,-6.3079,-6.3079,-6.3079,-6.3079,-6.3079,-6.3079,-6.3079,-6.3079,-6.3079,-6.3079,-6.3079,-6.3079,-6.3079,-6.3079,-6.3079,-6.3079,-6.3079,-6.3079,-6.3079,-6.3079,-6.3079,-6.3079,-6.3079,-6.3104,-6.2448,-6.0499,-5.7399,0.0,0.0,-5.5954,-5.8494,-6.1661,-6.1673,-6.1539,-6.1901,-6.1759,-6.1762,-6.2061,-6.1822,-6.1613,-6.1553,-6.1912,-6.2091,-6.2091,-6.272,-6.3079,-6.3079,-6.3079,-6.3079,-6.3079,-6.3079,-6.3079,-6.3079,-6.3079,-6.3079,-6.3079,-6.3079,-6.3079,-6.3079,-6.3079,-6.3079,-6.3079,-6.3079,-6.3079,-6.3079,-6.3079,-6.2839,-6.251,-6.3079,-6.3079,-6.3079,-6.3079,-6.3079,-6.3079,-6.3079,-6.3079,-6.3079,-6.3079,-6.3079,-6.3079,-6.3079,-6.3079,-6.3079,-6.3079,-6.3079,-6.3079,-6.3079,-6.3079,-6.3079,-6.3079,-6.3079,-6.3079,-6.3079,-6.3079,-6.3079,-6.3079,-6.2929,-6.2331,-6.1343,-6.1014,-6.0595,-6.0057,-5.9398,-5.9668,-6.0595,-6.0086,-6.0236,-6.0864,-6.0864,-6.1373,-6.2091,-6.2091,-6.251,-6.3079,-6.3079,-6.3079,-6.3079,-6.3079,-6.3079,-6.3079,-6.3079,-6.3079,-6.3079,-6.3079,-6.3079,-6.3079,-6.3079,-6.3079,-6.3079,-6.3079,-6.3079,-6.3079,-6.3079,-6.3079,-6.3079,-6.3079,-6.3079,-6.3079,-6.3079,-6.3077,-6.2685,-6.1313,0.0,0.0,0.0,-5.7279,-6.0054,-6.1419,-6.18,-6.2092,-6.2328,-6.2331,-6.2331,-6.2331,-6.2331,-6.2121,-6.1583,-6.2061,-6.2331,-6.2331,-6.281,-6.3079,-6.3079,-6.3079,-6.3079,-6.3079,-6.3079,-6.3079,-6.3079,-6.3079,-6.3079,-6.3079,-6.3079,-6.3079,-6.3079,-6.2899,-6.2839,-6.2839,-6.269,-6.272,-6.2839,-6.266,-6.2391,-6.2061,-6.3079,-6.3079,-6.3079,-6.3079,-6.3079,-6.3079,-6.3079,-6.3079,-6.3079,-6.3079,-6.3079,-6.3079,-6.3079,-6.3079,-6.3079,-6.3079,-6.3079,-6.3079,-6.3079,-6.3079,-6.3079,-6.3079,-6.3079,-6.3079,-6.3079,-6.3079,-6.3079,-6.3079,-6.248,-6.2121,-6.2002,-6.0745,-6.0146,-6.0057,-5.9398,-5.9159,-5.9249,-5.9189,-5.9548,-6.0146,-6.0146,-6.0924,-6.2091,-6.2091,-6.251,-6.3079,-6.3079,-6.3079,-6.3079,-6.3079,-6.3079,-6.3079,-6.3079,-6.3079,-6.3079,-6.3079,-6.3079,-6.3079,-6.3079,-6.3079,-6.3079,-6.3079,-6.3079,-6.3079,-6.3079,-6.3079,-6.3079,-6.3079,-6.3079,-6.3079,-6.3079,-6.3099,-6.2645,-6.1339,0.0,0.0,-5.7355,-5.9207,-6.1449,-6.2759,-6.2958,-6.3003,-6.3017,-6.3019,-6.3019,-6.3019,-6.3019,-6.2989,-6.2929,-6.2989,-6.3019,-6.3019,-6.3049,-6.3079,-6.3079,-6.3079,-6.3079,-6.3079,-6.3079,-6.3079,-6.3079,-6.3079,-6.3079,-6.3079,-6.3079,-6.3079,-6.3019,-6.2421,-6.2181,-6.2121,-6.1493,-6.1642,-6.2091,-6.1493,-6.1613,-6.1912,-6.3079,-6.3079,-6.3079,-6.3079,-6.3079,-6.3079,-6.3079,-6.3079,-6.3079,-6.3079,-6.3079,-6.3079,-6.3079,-6.3079,-6.3079,-6.3079,-6.3079,-6.3079,-6.3079,-6.3079,-6.3079,-6.3079,-6.3079,-6.2899,-6.248,-6.2869,-6.266,-6.1852,-6.2032,-6.1672,-6.0835,-6.0326,-5.9877,-5.9458,-5.9219,-5.9099,-5.9099,-5.9099,-5.9249,-5.9518,-5.9907,-6.0655,-6.1523,-6.1942,-6.251,-6.3079,-6.3079,-6.3079,-6.3079,-6.3079,-6.3079,-6.3079,-6.3079,-6.3079,-6.3079,-6.3079,-6.3079,-6.3079,-6.3079,-6.3079,-6.3079,-6.3079,-6.3079,-6.3079,-6.3079,-6.3079,-6.3079,-6.3079,-6.3079,-6.3079,-6.3079,-6.3104,-6.2924,-6.2391,0.0,-6.1609,-6.0924,-6.1001,-6.1614,-6.2958,-6.3123,-6.3074,-6.3137,-6.3079,-6.3079,-6.3079,-6.3079,-6.2899,-6.248,-6.248,-6.266,-6.3079,-6.3079,-6.3079,-6.3079,-6.3079,-6.3079,-6.3079,-6.3079,-6.3079,-6.3079,-6.3079,-6.3079,-6.3079,-6.3079,-6.3079,-6.3019,-6.2361,-6.2091,-6.2032,-6.1373,-6.1253,-6.1463,-6.1194,-6.1014,-6.0775,-6.3049,-6.3079,-6.3079,-6.3079,-6.3079,-6.3079,-6.3079,-6.3079,-6.3079,-6.3079,-6.3079,-6.3079,-6.3079,-6.3079,-6.3079,-6.3079,-6.3079,-6.3079,-6.3079,-6.3079,-6.3079,-6.3079,-6.3079,-6.2869,-6.2421,-6.266,-6.2421,-6.1732,-6.1553,-6.1104,-6.0386,-5.9967,-5.9548,-5.9099,-5.9099,-5.9099,-5.9099,-5.9099,-5.9219,-5.9458,-5.9907,-6.0625,-6.1463,-6.1912,-6.251,-6.3079,-6.3079,-6.3079,-6.3079,-6.3079,-6.3079,-6.3079,-6.3079,-6.3079,-6.3079,-6.3079,-6.3079,-6.3079,-6.3079,-6.3079,-6.3079,-6.3079,-6.3079,-6.3079,-6.3079,-6.3079,-6.3079,-6.3079,-6.3079,-6.3079,-6.3079,-6.3079,-6.3107,-6.3074,-6.2328,-6.1938,-6.2588,-6.2145,-6.2058,-6.3006,-6.3074,-6.3079,-6.3079,-6.3079,-6.3079,-6.3079,-6.3079,-6.2869,-6.2421,-6.2211,-6.2301,-6.275,-6.278,-6.278,-6.278,-6.2959,-6.3079,-6.3079,-6.3079,-6.3079,-6.3079,-6.3079,-6.3079,-6.3079,-6.2869,-6.278,-6.269,-6.1822,-6.1463,-6.1403,-6.0745,-6.0595,-6.0775,-6.0565,-6.0326,-6.0057,-6.2929,-6.3079,-6.3079,-6.3079,-6.3079,-6.3079,-6.3079,-6.3079,-6.3079,-6.3079,-6.3079,-6.3079,-6.3079,-6.3079,-6.3079,-6.3079,-6.3079,-6.3079,-6.3079,-6.3079,-6.3079,-6.3079,-6.3079,-6.3079,-6.3079,-6.245,-6.2421,-6.3049,-6.1074,-6.0446,-6.1074,-5.9727,-5.9099,-5.9099,-5.9099,-5.9099,-5.9099,-5.9099,-5.9488,-6.0086,-6.0086,-6.0894,-6.2091,-6.2091,-6.251,-6.3079,-6.3079,-6.3079,-6.3079,-6.3079,-6.3079,-6.3079,-6.3079,-6.3079,-6.3079,-6.3079,-6.3079,-6.3079,-6.3079,-6.3079,-6.3079,-6.3079,-6.3079,-6.3079,-6.3079,-6.3079,-6.3079,-6.3079,-6.3079,-6.3079,-6.3079,-6.3079,-6.3104,-6.3063,-6.3072,-6.278,-6.1801,-6.2513,-6.3079,-6.3079,-6.3079,-6.3079,-6.3079,-6.3079,-6.3079,-6.3079,-6.3079,-6.3079,-6.3079,-6.245,-6.2091,-6.2091,-6.2091,-6.2091,-6.2091,-6.275,-6.3079,-6.3079,-6.3079,-6.3079,-6.3079,-6.3079,-6.3079,-6.3049,-6.2391,-6.2091,-6.2002,-6.0625,-6.0086,-6.0027,-5.9368,-5.9518,-5.9997,-5.9338,-5.9518,-5.9997,-6.2271,-6.2391,-6.254,-6.2989,-6.3079,-6.3079,-6.3079,-6.3079,-6.3079,-6.3079,-6.3079,-6.3079,-6.3079,-6.3079,-6.3079,-6.3079,-6.3079,-6.3079,-6.3079,-6.3079,-6.3079,-6.3079,-6.3079,-6.2869,-6.2391,-6.266,-6.2421,-6.1702,-6.1104,-6.0655,-6.0386,-5.9518,-5.9099,-5.9099,-5.9099,-5.9099,-5.9099,-5.9099,-5.9488,-6.0116,-6.0625,-6.1313,-6.2151,-6.26,-6.2899,-6.3079,-6.3079,-6.3079,-6.3079,-6.3079,-6.3079,-6.3079,-6.3079,-6.3079,-6.3079,-6.3079,-6.3079,-6.3079,-6.3079,-6.3079,-6.3079,-6.3079,-6.3079,-6.3079,-6.3079,-6.3079,-6.3079,-6.3079,-6.3079,-6.3079,-6.3079,-6.3079,-6.3107,-6.3074,-6.3077,-6.2989,-6.275,-6.2929,-6.3079,-6.3079,-6.3079,-6.3079,-6.3079,-6.3079,-6.3079,-6.3079,-6.266,-6.2391,-6.2391,-6.2211,-6.2091,-6.2091,-6.2091,-6.2091,-6.2091,-6.2301,-6.263,-6.3079,-6.3079,-6.3079,-6.3079,-6.3079,-6.3079,-6.3049,-6.2391,-6.2091,-6.2002,-6.0625,-6.0086,-6.0027,-5.9368,-5.9219,-5.9368,-5.9189,-5.9219,-5.9368,-6.1583,-6.1702,-6.1822,-6.2241,-6.251,-6.26,-6.2331,-6.275,-6.2899,-6.2361,-6.254,-6.26,-6.2331,-6.2301,-6.2421,-6.266,-6.2929,-6.2959,-6.272,-6.2929,-6.3079,-6.3079,-6.3079,-6.2899,-6.248,-6.263,-6.2421,-6.1882,-6.1373,-6.0894,-6.0475,-6.0086,-5.9608,-5.9129,-5.9668,-5.9608,-5.9129,-5.9668,-6.0146,-6.0565,-6.1224,-6.1912,-6.254,-6.2929,-6.3079,-6.3079,-6.3079,-6.3079,-6.3079,-6.3079,-6.3079,-6.3079,-6.3079,-6.3079,-6.3079,-6.3079,-6.3079,-6.3079,-6.3079,-6.3079,-6.3079,-6.3079,-6.3079,-6.3079,-6.3079,-6.3079,-6.3079,-6.3079,-6.3079,-6.3079,-6.3079,-6.3079,-6.3079,-6.3079,-6.3079,-6.3079,-6.3079,-6.3079,-6.3079,-6.3079,-6.3079,-6.3079,-6.3079,-6.3079,-6.3079,-6.3079,-6.2241,-6.1942,-6.245,-6.2002,-6.1822,-6.2091,-6.2091,-6.1972,-6.1702,-6.1972,-6.2301,-6.269,-6.269,-6.269,-6.269,-6.269,-6.269,-6.263,-6.1702,-6.1313,-6.1224,-6.0146,-5.9697,-5.9668,-5.9249,-5.9099,-5.9099,-5.9099,-5.9099,-5.9099,-6.0941,-6.1121,-6.1126,-6.1104,-6.1613,-6.1792,-6.1194,-6.2121,-6.248,-6.1283,-6.1642,-6.1792,-6.1194,-6.1104,-6.1373,-6.1972,-6.26,-6.272,-6.2121,-6.272,-6.3079,-6.3079,-6.3079,-6.3079,-6.3079,-6.248,-6.248,-6.3079,-6.1822,-6.1194,-6.1194,-6.1134,-6.0475,-5.9338,-6.0565,-6.0416,-5.9368,-6.0595,-6.1104,-6.1164,-6.1822,-6.245,-6.2989,-6.3049,-6.3079,-6.3079,-6.3079,-6.3079,-6.3079,-6.3079,-6.3079,-6.3079,-6.3079,-6.3079,-6.3079,-6.3079,-6.3079,-6.3079,-6.3079,-6.3079,-6.3079,-6.3079,-6.3079,-6.3079,-6.3079,-6.3079,-6.3079,-6.3079,-6.3079,-6.3079,-6.3079,-6.3079,-6.3079,-6.3079,-6.3079,-6.3079,-6.3079,-6.3079,-6.3079,-6.3079,-6.3079,-6.3079,-6.3079,-6.3079,-6.3019,-6.2899,-6.1852,-6.1702,-6.2839,-6.1822,-6.1493,-6.2061,-6.2032,-6.1732,-6.1134,-6.1642,-6.1942,-6.2002,-6.2061,-6.2091,-6.2091,-6.2032,-6.2032,-6.2032,-6.0655,-6.0086,-6.0027,-5.9368,-5.9099,-5.9099,-5.9099,-5.9099,-5.9099,-5.9099,-5.9099,-5.9099,-6.0822,-6.1427,-6.1691,-6.1181,-6.1224,-6.1283,-6.1134,-6.1373,-6.1433,-6.1164,-6.1253,-6.1283,-6.1134,-6.1104,-6.1164,-6.1313,-6.1942,-6.2241,-6.2121,-6.272,-6.3079,-6.3079,-6.3079,-6.3079,-6.3079,-6.2929,-6.2929,-6.3079,-6.2271,-6.1882,-6.1882,-6.1373,-6.0954,-6.0685,-6.0984,-6.0954,-6.0715,-6.0984,-6.1104,-6.1164,-6.1822,-6.2181,-6.2361,-6.2869,-6.3079,-6.3079,-6.3079,-6.3079,-6.3079,-6.3079,-6.3079,-6.3079,-6.3079,-6.3079,-6.3079,-6.3079,-6.3079,-6.3079,-6.3079,-6.3079,-6.3079,-6.3079,-6.3079,-6.3079,-6.3079,-6.3079,-6.3079,-6.3079,-6.3079,-6.3079,-6.3079,-6.3079,-6.3079,-6.3079,-6.3079,-6.3079,-6.3079,-6.3079,-6.3079,-6.3079,-6.3079,-6.3079,-6.3079,-6.3079,-6.266,-6.1613,-6.1762,-6.1792,-6.1553,-6.1762,-6.1942,-6.2091,-6.1583,-6.1253,-6.1104,-6.0715,-6.0805,-6.1343,-6.1852,-6.2091,-6.2091,-6.1553,-6.1613,-6.2032,-6.0655,-6.0086,-6.0027,-5.9368,-5.9099,-5.9099,-5.9099,-5.9099,-5.9099,-5.9099,-5.9099,-5.9099,-6.1218,-6.1707,-6.1928,-6.2012,-6.176,-6.1668,-6.1936,-6.1504,-6.1087,-6.1072,-6.0826,-6.0505,-6.0176,-6.0687,-6.1058,-6.1058,-6.1674,-6.1822,-6.1164,-6.2061,-6.26,-6.26,-6.2301,-6.245,-6.3079,-6.278,-6.275,-6.3079,-6.272,-6.2241,-6.1642,-6.1912,-6.1553,-6.0655,-6.1642,-6.1702,-6.1164,-6.1792,-6.1882,-6.1642,-6.2301,-6.257,-6.26,-6.2959,-6.3079,-6.3079,-6.3079,-6.3079,-6.3079,-6.3079,-6.3079,-6.3079,-6.3079,-6.3079,-6.3079,-6.3079,-6.3079,-6.3079,-6.3079,-6.3079,-6.3079,-6.3079,-6.3079,-6.3079,-6.3079,-6.3079,-6.3079,-6.3079,-6.3079,-6.3079,-6.3079,-6.3079,-6.3079,-6.3079,-6.3079,-6.3079,-6.3079,-6.3079,-6.3079,-6.3079,-6.3079,-6.3079,-6.3079,-6.3079,-6.278,-6.2121,-6.2091,-6.2091,-6.2061,-6.2091,-6.2241,-6.254,-6.2241,-6.1762,-6.1134,-6.1373,-6.1224,-6.0625,-6.1313,-6.1463,-6.1134,-6.0775,-6.0805,-6.1074,-6.0057,-5.9608,-5.9608,-5.9249,-5.9099,-5.9099,-5.9099,-5.9099,-5.9099,-5.9099,-5.9099,-5.9099,-6.1749,-6.2038,-6.2344,-6.2764,-6.2455,-6.2336,-6.2955,-6.2063,-6.1409,-6.1348,-6.0901,-6.0395,-5.9849,-6.0743,-6.1344,-6.1344,-6.2105,-6.2152,-6.1031,-6.2122,-6.2763,-6.2763,-6.2097,-6.2168,-6.306,-6.2668,-6.2675,-6.3079,-6.3079,-6.251,-6.1463,-6.245,-6.2032,-6.0505,-6.2061,-6.2181,-6.1343,-6.245,-6.26,-6.2151,-6.281,-6.3019,-6.2929,-6.3049,-6.3079,-6.3079,-6.3079,-6.3079,-6.3079,-6.3079,-6.3079,-6.3079,-6.3079,-6.3079,-6.3079,-6.3079,-6.3079,-6.3079,-6.3079,-6.3079,-6.3079,-6.3079,-6.3079,-6.3079,-6.3079,-6.3079,-6.3079,-6.3079,-6.3079,-6.3079,-6.3079,-6.3079,-6.3079,-6.3079,-6.3079,-6.3079,-6.3079,-6.3079,-6.3079,-6.3079,-6.3079,-6.3079,-6.3079,-6.3079,-6.3019,-6.2929,-6.251,-6.245,-6.2899,-6.2391,-6.2331,-6.2899,-6.281,-6.2151,-6.0954,-6.2151,-6.1792,-5.9937,-6.0625,-6.0715,-6.0266,-6.0027,-5.9967,-6.0057,-5.9398,-5.9099,-5.9099,-5.9099,-5.9099,-5.9099,-5.9099,-5.9099,-5.9099,-5.9099,-5.9099,-5.9099,-6.1633,-6.2694,-6.3231,-6.2233,-6.2508,-6.2907,-6.3004,-6.2873,-6.2741,-6.2714,-6.2632,-6.2565,-6.247,-6.2665,-6.2731,-6.2731,-6.3934,-6.4628,-6.4437,-6.5167,-6.556,-6.556,-6.4831,-6.3932,-6.3056,-6.3495,-6.3507,-6.3079,-6.3079,-6.2989,-6.281,-6.2421,-6.2091,-6.1822,-6.1523,-6.1583,-6.1972,-6.2151,-6.2181,-6.2151,-6.281,-6.272,-6.2301,-6.2869,-6.3079,-6.3079,-6.3079,-6.3079,-6.3079,-6.3079,-6.3079,-6.3079,-6.3079,-6.3079,-6.3079,-6.3079,-6.3079,-6.3079,-6.3079,-6.3079,-6.3079,-6.3079,-6.3079,-6.3079,-6.3079,-6.3079,-6.3079,-6.3079,-6.3079,-6.3079,-6.3079,-6.3079,-6.3079,-6.3079,-6.3079,-6.3079,-6.3079,-6.3079,-6.3079,-6.3079,-6.3079,-6.3079,-6.3079,-6.3079,-6.2839,-6.2271,-6.266,-6.272,-6.2241,-6.2151,-6.2121,-6.2241,-6.1672,-6.1014,-6.0236,-6.0984,-6.0655,-5.9249,-5.9907,-6.0475,-6.0924,-5.9757,-5.9548,-6.0057,-5.9398,-5.9099,-5.9099,-5.9099,-5.9099,-5.9099,-5.9099,-5.9099,-5.9099,-5.9099,-5.9099,-5.9099,-6.2531,-6.32,-6.37,-6.399,-6.3686,-6.3688,-6.4398,-6.3645,-6.3083,-6.3399,-6.3177,-6.3004,-6.3004,-6.3004,-6.3292,-6.3998,-6.4288,-6.4348,-6.3964,-6.4956,-6.5354,-6.4938,-6.502,-6.4944,-6.4776,-6.4275,-6.4104,-6.4209,-6.4209,-6.3481,-6.1972,-6.2839,-6.242,-6.0984,-6.1463,-6.1822,-6.2121,-6.248,-6.266,-6.266,-6.2959,-6.269,-6.2181,-6.2839,-6.2839,-6.257,-6.2959,-6.3079,-6.3079,-6.3079,-6.3079,-6.3079,-6.3079,-6.3079,-6.3079,-6.3079,-6.3079,-6.3079,-6.3079,-6.3079,-6.3079,-6.3079,-6.3079,-6.3079,-6.3079,-6.3079,-6.3079,-6.3079,-6.3079,-6.3079,-6.3079,-6.3079,-6.3079,-6.3079,-6.3079,-6.3079,-6.3079,-6.3079,-6.3079,-6.3079,-6.3079,-6.3079,-6.3079,-6.3079,-6.2959,-6.266,-6.257,-6.2391,-6.2121,-6.1732,-6.1553,-6.1553,-6.1253,-6.0775,-6.0086,-6.0775,-6.0625,-5.9668,-5.9937,-6.0057,-5.9967,-5.9368,-5.9249,-5.9518,-5.9219,-5.9099,-5.9099,-5.9099,-5.9099,-5.9099,-5.9099,-5.9099,-5.9099,-5.9099,-5.9099,-5.9099]},{"header":{"parameterUnit":"m.s-1","parameterCategory":1,"la1":30.6,"la2":28.766,"lo1":-90.7593,"lo2":-88.6598,"dy":0.0162,"dx":0.0183,"nx":116,"ny":114,"refTime":"2023-06-14T06:00:00:Z","depth":0,"parameterNumber":3,"parameterNumberName":"V-component_of_WINDS"},"data":[0.0,0.0,0.0,0.0,0.0,0.0,0.0,0.0,0.0,0.0,0.0,0.0,0.0,0.0,0.0,0.0,0.0,0.0,0.0,0.0,0.0,0.0,0.0,0.0,0.0,0.0,0.0,0.0,0.0,0.0,0.0,0.0,0.0,0.0,0.0,0.0,0.0,0.0,0.0,0.0,0.0,0.0,0.0,0.0,0.0,0.0,0.0,0.0,0.0,0.0,0.0,0.0,0.0,0.0,0.0,0.0,0.0,0.0,0.0,0.0,0.0,0.0,0.0,0.0,0.0,0.0,0.0,0.0,0.0,0.0,0.0,0.0,0.0,0.0,0.0,0.0,0.0,0.0,0.0,0.0,0.0,0.0,0.0,0.0,0.0,0.0,0.0,0.0,0.0,0.0,0.0,0.0,0.0,0.0,0.0,0.0,0.0,0.0,0.0,0.0,0.0,0.0,0.0,0.0,0.0,0.0,0.0,0.0,0.0,0.0,0.0,0.0,0.0,0.0,0.0,0.0,0.0,0.0,0.0,0.0,0.0,0.0,0.0,0.0,0.0,0.0,0.0,0.0,0.0,0.0,0.0,0.0,0.0,0.0,0.0,0.0,0.0,0.0,0.0,0.0,0.0,0.0,0.0,0.0,0.0,0.0,0.0,0.0,0.0,0.0,0.0,0.0,0.0,0.0,0.0,0.0,0.0,0.0,0.0,0.0,0.0,0.0,0.0,0.0,0.0,0.0,0.0,0.0,0.0,0.0,0.0,0.0,0.0,0.0,0.0,0.0,0.0,0.0,0.0,0.0,0.0,0.0,0.0,0.0,0.0,0.0,0.0,0.0,0.0,0.0,0.0,0.0,0.0,0.0,0.0,0.0,0.0,0.0,0.0,0.0,0.0,0.0,0.0,0.0,0.0,0.0,0.0,0.0,0.0,0.0,0.0,0.0,0.0,0.0,0.0,0.0,0.0,0.0,0.0,0.0,0.0,0.0,0.0,0.0,0.0,0.0,0.0,0.0,0.0,0.0,0.0,0.0,0.0,0.0,0.0,0.0,0.0,0.0,0.0,0.0,0.0,0.0,0.0,0.0,0.0,0.0,0.0,0.0,0.0,0.0,0.0,0.0,0.0,0.0,0.0,0.0,0.0,0.0,0.0,0.0,0.0,0.0,0.0,0.0,0.0,0.0,0.0,0.0,0.0,0.0,0.0,0.0,0.0,0.0,0.0,0.0,0.0,0.0,0.0,0.0,0.0,0.0,0.0,0.0,0.0,0.0,0.0,0.0,0.0,0.0,0.0,0.0,0.0,0.0,0.0,0.0,0.0,0.0,0.0,0.0,0.0,0.0,0.0,0.0,0.0,0.0,0.0,0.0,0.0,0.0,0.0,0.0,0.0,0.0,0.0,0.0,0.0,0.0,0.0,0.0,0.0,0.0,0.0,0.0,0.0,0.0,0.0,0.0,0.0,0.0,0.0,0.0,0.0,0.0,0.0,0.0,0.0,0.0,0.0,0.0,0.0,0.0,0.0,0.0,0.0,0.0,0.0,0.0,0.0,0.0,0.0,0.0,0.0,0.0,0.0,0.0,0.0,0.0,0.0,0.0,0.0,0.0,0.0,0.0,0.0,0.0,0.0,0.0,0.0,0.0,0.0,0.0,0.0,0.0,0.0,0.0,0.0,0.0,0.0,0.0,0.0,0.0,0.0,0.0,0.0,0.0,0.0,0.0,0.0,0.0,0.0,0.0,0.0,0.0,0.0,0.0,0.0,0.0,0.0,0.0,0.0,0.0,0.0,0.0,0.0,0.0,0.0,0.0,0.0,0.0,0.0,0.0,0.0,0.0,0.0,0.0,0.0,0.0,0.0,0.0,0.0,0.0,0.0,0.0,0.0,0.0,0.0,0.0,0.0,0.0,0.0,0.0,0.0,0.0,0.0,0.0,0.0,0.0,0.0,0.0,0.0,0.0,0.0,0.0,0.0,0.0,0.0,0.0,0.0,0.0,0.0,0.0,0.0,0.0,0.0,0.0,0.0,0.0,0.0,0.0,0.0,0.0,0.0,0.0,0.0,0.0,0.0,0.0,0.0,0.0,0.0,0.0,0.0,0.0,0.0,0.0,0.0,0.0,0.0,0.0,0.0,0.0,0.0,0.0,0.0,0.0,0.0,0.0,0.0,0.0,0.0,0.0,0.0,0.0,0.0,0.0,0.0,0.0,0.0,0.0,0.0,0.0,0.0,0.0,0.0,0.0,0.0,0.0,0.0,0.0,0.0,0.0,0.0,0.0,0.0,0.0,0.0,0.0,0.0,0.0,0.0,0.0,0.0,0.0,0.0,0.0,0.0,0.0,0.0,0.0,0.0,0.0,0.0,0.0,0.0,0.0,0.0,0.0,0.0,0.0,0.0,0.0,0.0,0.0,0.0,0.0,0.0,0.0,0.0,0.0,0.0,0.0,0.0,0.0,0.0,0.0,0.0,0.0,0.0,0.0,0.0,0.0,0.0,0.0,0.0,0.0,0.0,0.0,0.0,0.0,0.0,0.0,0.0,0.0,0.0,0.0,0.0,0.0,0.0,0.0,0.0,0.0,0.0,0.0,0.0,0.0,0.0,0.0,0.0,0.0,0.0,0.0,0.0,0.0,0.0,0.0,0.0,0.0,0.0,0.0,0.0,0.0,0.0,0.0,0.0,0.0,0.0,0.0,0.0,0.0,0.0,0.0,0.0,0.0,0.0,0.0,0.0,0.0,0.0,0.0,0.0,0.0,0.0,0.0,0.0,0.0,0.0,0.0,0.0,0.0,0.0,0.0,0.0,0.0,0.0,0.0,0.0,0.0,0.0,0.0,0.0,0.0,0.0,0.0,0.0,0.0,0.0,0.0,0.0,0.0,0.0,0.0,0.0,0.0,0.0,0.0,0.0,0.0,0.0,0.0,0.0,0.0,0.0,0.0,0.0,0.0,0.0,0.0,0.0,0.0,0.0,0.0,0.0,0.0,0.0,0.0,0.0,0.0,0.0,0.0,0.0,0.0,0.0,0.0,0.0,0.0,0.0,0.0,0.0,0.0,0.0,0.0,0.0,0.0,0.0,0.0,0.0,0.0,0.0,0.0,0.0,0.0,0.0,0.0,0.0,0.0,0.0,0.0,0.0,0.0,0.0,0.0,0.0,0.0,0.0,0.0,0.0,0.0,0.0,0.0,0.0,0.0,0.0,0.0,0.0,0.0,0.0,0.0,0.0,0.0,0.0,0.0,0.0,0.0,0.0,0.0,0.0,0.0,0.0,0.0,0.0,0.0,0.0,0.0,0.0,0.0,0.0,0.0,0.0,0.0,0.0,0.0,0.0,0.0,0.0,0.0,0.0,0.0,0.0,0.0,0.0,0.0,0.0,0.0,0.0,0.0,0.0,0.0,0.0,0.0,0.0,0.0,0.0,0.0,0.0,0.0,0.0,0.0,0.0,0.0,0.0,0.0,0.0,0.0,0.0,0.0,0.0,0.0,0.0,0.0,0.0,0.0,0.0,0.0,0.0,0.0,0.0,0.0,0.0,0.0,0.0,0.0,0.0,0.0,0.0,0.0,0.0,0.0,0.0,0.0,0.0,0.0,0.0,0.0,0.0,0.0,0.0,0.0,0.0,0.0,0.0,0.0,0.0,0.0,0.0,0.0,0.0,0.0,0.0,0.0,0.0,0.0,0.0,0.0,0.0,0.0,0.0,0.0,0.0,0.0,0.0,0.0,0.0,0.0,0.0,0.0,0.0,0.0,0.0,0.0,0.0,0.0,0.0,0.0,0.0,0.0,0.0,0.0,0.0,0.0,0.0,0.0,0.0,0.0,0.0,0.0,0.0,0.0,0.0,0.0,0.0,0.0,0.0,0.0,0.0,0.0,0.0,0.0,0.0,0.0,0.0,0.0,0.0,0.0,0.0,0.0,0.0,0.0,0.0,0.0,0.0,0.0,0.0,0.0,0.0,0.0,0.0,0.0,0.0,0.0,0.0,0.0,0.0,0.0,0.0,0.0,0.0,0.0,0.0,0.0,0.0,0.0,0.0,0.0,0.0,0.0,0.0,0.0,0.0,0.0,0.0,0.0,0.0,0.0,0.0,0.0,0.0,0.0,0.0,0.0,0.0,0.0,0.0,0.0,0.0,0.0,0.0,0.0,0.0,0.0,0.0,0.0,0.0,0.0,0.0,0.0,0.0,0.0,0.0,0.0,0.0,0.0,0.0,0.0,0.0,0.0,0.0,0.0,0.0,0.0,0.0,0.0,0.0,0.0,0.0,0.0,0.0,0.0,0.0,0.0,0.0,0.0,0.0,0.0,0.0,0.0,0.0,0.0,0.0,0.0,0.0,0.0,0.0,0.0,0.0,0.0,0.0,0.0,0.0,0.0,0.0,0.0,0.0,0.0,0.0,0.0,0.0,0.0,0.0,0.0,0.0,0.0,0.0,0.0,0.0,0.0,0.0,0.0,0.0,0.0,0.0,0.0,0.0,0.0,0.0,0.0,0.0,0.0,0.0,0.0,0.0,0.0,0.0,0.0,0.0,0.0,0.0,0.0,0.0,0.0,0.0,0.0,0.0,0.0,0.0,0.0,0.0,0.0,0.0,0.0,0.0,0.0,0.0,0.0,0.0,0.0,0.0,0.0,0.0,0.0,0.0,0.0,0.0,0.0,0.0,0.0,0.0,0.0,0.0,0.0,0.0,0.0,0.0,0.0,0.0,0.0,0.0,0.0,0.0,0.0,0.0,0.0,0.0,0.0,0.0,0.0,0.0,0.0,0.0,0.0,0.0,0.0,0.0,0.0,0.0,0.0,0.0,0.0,0.0,0.0,0.0,0.0,0.0,0.0,0.0,0.0,0.0,0.0,0.0,0.0,0.0,0.0,0.0,0.0,0.0,0.0,0.0,0.0,0.0,0.0,0.0,0.0,0.0,0.0,0.0,0.0,0.0,0.0,0.0,0.0,0.0,0.0,0.0,0.0,0.0,0.0,0.0,0.0,0.0,0.0,0.0,0.0,0.0,0.0,0.0,0.0,0.0,0.0,0.0,0.0,0.0,0.0,0.0,0.0,0.0,0.0,0.0,0.0,0.0,0.0,0.0,0.0,0.0,0.0,0.0,0.0,0.0,0.0,0.0,0.0,0.0,0.0,0.0,0.0,0.0,0.0,0.0,0.0,0.0,0.0,0.0,0.0,0.0,0.0,0.0,0.0,0.0,0.0,0.0,0.0,0.0,0.0,0.0,0.0,0.0,0.0,0.0,0.0,0.0,0.0,0.0,0.0,0.0,0.0,0.0,0.0,0.0,0.0,0.0,0.0,0.0,0.0,0.0,0.0,0.0,0.0,0.0,0.0,0.0,0.0,0.0,0.0,0.0,0.0,0.0,0.0,0.0,0.0,0.0,0.0,0.0,0.0,0.0,0.0,0.0,0.0,0.0,0.0,0.0,0.0,0.0,0.0,0.0,0.0,0.0,0.0,0.0,0.0,0.0,0.0,0.0,0.0,0.0,0.0,0.0,0.0,0.0,0.0,0.0,0.0,0.0,0.0,0.0,0.0,0.0,0.0,0.0,0.0,0.0,0.0,0.0,0.0,0.0,0.0,0.0,0.0,0.0,0.0,0.0,0.0,0.0,0.0,0.0,0.0,0.0,0.0,0.0,0.0,0.0,0.0,0.0,0.0,0.0,0.0,0.0,0.0,0.0,0.0,0.0,0.0,0.0,0.0,0.0,0.0,0.0,0.0,0.0,0.0,0.0,0.0,0.0,0.0,0.0,0.0,0.0,0.0,0.0,0.0,0.0,0.0,0.0,0.0,0.0,0.0,0.0,0.0,0.0,0.0,0.0,0.0,0.0,0.0,0.0,0.0,0.0,0.0,0.0,0.0,0.0,0.0,0.0,0.0,0.0,0.0,0.0,0.0,0.0,0.0,0.0,0.0,0.0,0.0,0.0,0.0,0.0,0.0,0.0,0.0,0.0,0.0,0.0,0.0,0.0,0.0,0.0,0.0,0.0,0.0,0.0,0.0,0.0,0.0,0.0,0.0,0.0,0.0,0.0,0.0,0.0,0.0,0.0,0.0,0.0,0.0,0.0,0.0,0.0,0.0,0.0,0.0,-4.9264,0.0,0.0,0.0,0.0,0.0,0.0,0.0,0.0,0.0,0.0,0.0,0.0,0.0,0.0,0.0,0.0,0.0,0.0,0.0,0.0,0.0,0.0,0.0,0.0,0.0,0.0,0.0,0.0,0.0,0.0,0.0,0.0,0.0,0.0,0.0,0.0,0.0,0.0,0.0,0.0,0.0,0.0,0.0,0.0,0.0,0.0,0.0,0.0,0.0,0.0,0.0,0.0,0.0,0.0,0.0,0.0,0.0,0.0,0.0,0.0,0.0,0.0,0.0,0.0,0.0,0.0,0.0,0.0,0.0,0.0,0.0,0.0,0.0,0.0,0.0,0.0,0.0,0.0,0.0,0.0,0.0,0.0,0.0,0.0,0.0,0.0,0.0,0.0,0.0,0.0,0.0,0.0,0.0,0.0,0.0,0.0,0.0,0.0,0.0,0.0,0.0,0.0,0.0,0.0,0.0,0.0,0.0,0.0,0.0,0.0,0.0,0.0,0.0,0.0,0.0,0.0,-5.0419,0.0,0.0,0.0,0.0,0.0,0.0,0.0,0.0,0.0,0.0,0.0,0.0,0.0,0.0,0.0,0.0,0.0,0.0,0.0,0.0,0.0,0.0,0.0,0.0,0.0,0.0,0.0,0.0,0.0,0.0,0.0,0.0,0.0,0.0,0.0,0.0,0.0,0.0,0.0,0.0,0.0,0.0,0.0,0.0,0.0,0.0,0.0,0.0,0.0,0.0,0.0,0.0,0.0,0.0,0.0,0.0,0.0,0.0,0.0,0.0,0.0,0.0,0.0,0.0,0.0,0.0,0.0,0.0,0.0,0.0,0.0,0.0,0.0,0.0,0.0,0.0,0.0,0.0,0.0,0.0,0.0,0.0,0.0,0.0,0.0,0.0,0.0,0.0,0.0,0.0,0.0,0.0,0.0,0.0,0.0,0.0,0.0,0.0,0.0,0.0,0.0,0.0,0.0,0.0,0.0,0.0,0.0,0.0,-5.5089,-5.5616,-5.647,-5.5566,-5.5139,-5.5039,-5.3231,-5.195,-5.1172,-5.1448,0.0,0.0,0.0,0.0,0.0,0.0,0.0,0.0,0.0,0.0,0.0,0.0,0.0,0.0,0.0,0.0,0.0,0.0,0.0,0.0,0.0,0.0,0.0,0.0,0.0,0.0,0.0,0.0,0.0,0.0,0.0,0.0,0.0,0.0,0.0,0.0,0.0,0.0,-6.2245,-6.2144,-6.2381,-6.2888,-6.167,0.0,0.0,0.0,0.0,0.0,0.0,0.0,0.0,0.0,0.0,0.0,0.0,0.0,0.0,0.0,0.0,0.0,0.0,0.0,0.0,0.0,0.0,0.0,0.0,0.0,0.0,0.0,0.0,0.0,0.0,0.0,0.0,0.0,0.0,0.0,0.0,0.0,0.0,0.0,0.0,0.0,0.0,0.0,-5.5146,-5.671,0.0,0.0,0.0,0.0,0.0,0.0,0.0,0.0,0.0,0.0,0.0,0.0,0.0,-5.4863,-5.5042,-5.5965,-5.657,-5.6721,-5.7223,-5.7549,-5.7675,-5.7524,-5.7449,-5.7449,-5.7148,0.0,-5.3959,-5.308,0.0,0.0,0.0,0.0,0.0,0.0,0.0,0.0,0.0,0.0,0.0,0.0,0.0,0.0,0.0,0.0,0.0,0.0,0.0,0.0,0.0,0.0,0.0,0.0,0.0,0.0,0.0,0.0,0.0,0.0,0.0,0.0,0.0,0.0,0.0,0.0,-6.255,-6.2922,-6.3632,-6.3632,-6.3802,-6.4106,-6.3429,-6.2922,-6.2516,-6.2076,0.0,0.0,0.0,0.0,0.0,0.0,0.0,0.0,0.0,0.0,0.0,0.0,0.0,0.0,0.0,0.0,0.0,0.0,0.0,0.0,0.0,0.0,0.0,0.0,0.0,0.0,0.0,0.0,0.0,0.0,0.0,0.0,0.0,0.0,0.0,0.0,0.0,0.0,0.0,-5.4889,-5.6234,-5.5834,-5.7097,-5.7363,0.0,0.0,0.0,0.0,0.0,0.0,0.0,0.0,0.0,-5.6164,-5.614,-5.6234,-5.6319,-5.7424,-5.8278,-5.888,-5.9458,-5.991,-6.0211,-6.0211,-6.0035,-5.9734,-5.9734,-5.9006,-5.7675,-5.5942,-5.5239,-5.5164,0.0,0.0,0.0,0.0,-5.4059,-5.411,0.0,0.0,0.0,0.0,0.0,0.0,0.0,0.0,0.0,0.0,0.0,0.0,0.0,0.0,0.0,0.0,0.0,0.0,0.0,0.0,0.0,0.0,0.0,0.0,0.0,0.0,0.0,0.0,-6.37,-6.4174,-6.4884,-6.4884,-6.5087,-6.5459,-6.5459,-6.4952,-6.4005,-6.326,-6.2651,0.0,0.0,0.0,0.0,0.0,0.0,0.0,0.0,0.0,0.0,0.0,0.0,0.0,0.0,0.0,0.0,0.0,0.0,0.0,0.0,0.0,0.0,0.0,0.0,0.0,0.0,0.0,0.0,0.0,0.0,0.0,0.0,0.0,0.0,0.0,0.0,0.0,0.0,-5.6554,-5.7902,-5.6179,-5.9458,-6.0835,0.0,0.0,0.0,0.0,0.0,0.0,-5.8127,-5.7948,-5.8086,-5.8471,-5.8222,-5.8227,-5.8504,-5.9508,-6.0387,-6.119,-6.1743,-6.2169,-6.2446,-6.2446,-6.2144,-6.1592,-6.1592,-6.1441,-6.1014,-5.8629,-5.7575,-5.7399,-5.6846,-5.6394,-5.6093,-5.6495,-5.6646,-5.6696,0.0,0.0,0.0,0.0,0.0,0.0,0.0,0.0,0.0,0.0,0.0,0.0,0.0,0.0,0.0,0.0,0.0,0.0,0.0,0.0,0.0,0.0,0.0,0.0,0.0,0.0,0.0,-6.3531,-6.4208,-6.4918,-6.5628,-6.5628,-6.6373,-6.7726,-6.7726,-6.6948,-6.5527,-6.4783,-6.4478,-6.4377,0.0,0.0,0.0,0.0,0.0,0.0,0.0,0.0,0.0,0.0,0.0,0.0,0.0,0.0,0.0,0.0,0.0,0.0,0.0,0.0,0.0,0.0,0.0,0.0,0.0,0.0,0.0,0.0,0.0,0.0,0.0,0.0,0.0,0.0,0.0,0.0,0.0,0.0,0.0,-6.0775,-6.4246,0.0,0.0,0.0,0.0,-6.1872,-6.2829,-6.2515,-6.0158,-6.0551,-6.0956,-6.0997,-6.1018,-6.1492,-6.2521,-6.3149,-6.3475,-6.3525,-6.4053,-6.4053,-6.3601,-6.3601,-6.3299,-6.2747,-6.2747,-6.3048,-6.3299,-6.0512,-5.9056,-5.8529,-5.8027,-5.7801,-5.7775,-5.7801,-5.7801,-5.7826,0.0,0.0,0.0,0.0,0.0,0.0,0.0,0.0,0.0,0.0,0.0,0.0,0.0,0.0,0.0,0.0,0.0,0.0,0.0,0.0,0.0,0.0,0.0,0.0,0.0,0.0,-6.3971,-6.4918,-6.5189,-6.5696,-6.6406,-6.6406,-6.6948,-6.7895,-6.7895,-6.7895,-6.7827,-6.7049,-6.644,-6.6,-6.573,-6.4749,0.0,0.0,0.0,0.0,0.0,0.0,0.0,0.0,0.0,0.0,0.0,0.0,0.0,0.0,0.0,0.0,0.0,0.0,0.0,0.0,0.0,0.0,0.0,0.0,0.0,0.0,0.0,0.0,0.0,0.0,0.0,0.0,0.0,0.0,0.0,0.0,0.0,-6.4276,-6.7747,0.0,-6.7089,-6.6471,-6.5569,-6.4103,-6.3876,-6.3362,-6.2499,-6.2952,-6.3625,-6.4304,-6.4354,-6.4555,-6.4931,-6.4781,-6.4731,-6.4731,-6.4906,-6.4705,-6.4178,-6.4178,-6.3902,-6.3375,-6.2998,-6.3149,-6.3626,-6.2621,-6.1868,-6.1266,-6.0362,-5.9784,-5.9508,-5.9885,-6.001,-6.006,0.0,0.0,0.0,0.0,0.0,0.0,0.0,0.0,0.0,0.0,0.0,0.0,0.0,0.0,0.0,0.0,0.0,0.0,0.0,0.0,0.0,0.0,0.0,0.0,0.0,-6.3768,-6.4478,-6.5696,-6.5933,-6.6339,-6.6812,-6.6812,-6.7354,-6.8301,-6.8301,-6.8876,-6.9823,-6.9282,-6.847,-6.759,-6.759,-6.6846,-6.5493,0.0,0.0,0.0,0.0,0.0,0.0,0.0,0.0,0.0,0.0,0.0,0.0,0.0,0.0,0.0,0.0,0.0,0.0,0.0,0.0,0.0,0.0,0.0,0.0,0.0,0.0,0.0,0.0,0.0,0.0,0.0,0.0,0.0,0.0,0.0,-6.7358,-6.7358,-7.1218,-7.2835,-7.0083,-6.9775,-6.8724,-6.6359,-6.5967,-6.5618,-6.5091,-6.5584,-6.6287,-6.7216,-6.7241,-6.7141,-6.6965,-6.6413,-6.6036,-6.586,-6.566,-6.5283,-6.4756,-6.4756,-6.4454,-6.3927,-6.355,-6.3701,-6.4228,-6.4028,-6.3827,-6.355,-6.2446,-6.1667,-6.1215,-6.1592,-6.1743,-6.1793,0.0,0.0,0.0,0.0,0.0,0.0,0.0,0.0,0.0,0.0,0.0,0.0,0.0,0.0,0.0,0.0,0.0,0.0,0.0,0.0,0.0,0.0,0.0,0.0,-6.3531,-6.4275,-6.4986,-6.573,-6.644,-6.6812,-6.6812,-6.6846,-6.7658,-6.9113,-6.9113,-6.9958,-7.1312,-7.1312,-7.05,-6.918,-6.918,-6.8707,-6.7793,0.0,0.0,0.0,0.0,0.0,0.0,0.0,0.0,0.0,0.0,0.0,0.0,0.0,0.0,0.0,0.0,0.0,0.0,0.0,0.0,0.0,0.0,0.0,0.0,0.0,0.0,0.0,0.0,0.0,0.0,0.0,0.0,0.0,-6.3258,-6.7178,-7.0111,-7.0201,-7.4749,-7.6272,-7.2085,-7.4006,-7.3542,-6.8723,-6.9338,-6.9409,-6.7957,-6.8422,-6.8949,-6.9526,-6.9526,-6.925,-6.8698,-6.8145,-6.7568,-6.7015,-6.6413,-6.586,-6.5333,-6.5308,-6.5007,-6.4479,-6.4479,-6.4781,-6.5258,-6.4705,-6.4806,-6.5183,-6.4128,-6.3375,-6.2847,-6.2847,-6.2847,-6.2822,0.0,0.0,0.0,0.0,0.0,0.0,0.0,0.0,0.0,0.0,0.0,0.0,0.0,0.0,0.0,0.0,0.0,0.0,0.0,0.0,0.0,0.0,0.0,0.0,-6.4275,-6.5019,-6.5764,-6.6508,-6.6711,-6.6812,-6.6812,-6.7354,-6.8132,-6.9113,-6.9654,-7.0432,-7.1312,-7.1312,-7.1075,-7.0703,-7.0703,-7.0229,-6.9451,0.0,0.0,0.0,0.0,0.0,0.0,0.0,0.0,0.0,0.0,0.0,0.0,0.0,0.0,0.0,0.0,0.0,0.0,0.0,0.0,0.0,0.0,0.0,0.0,0.0,0.0,0.0,0.0,0.0,0.0,0.0,0.0,-6.5712,-6.7178,-7.0111,-7.2984,-7.5377,-7.7801,-7.8553,-7.6608,-7.6153,-7.4637,-7.1597,-7.0236,-6.9777,-7.0129,-7.033,-7.0832,-7.1786,-7.1435,-7.0958,-7.0405,-6.9476,-6.8723,-6.817,-6.7191,-6.6664,-6.6488,-6.566,-6.5208,-6.5032,-6.463,-6.4781,-6.5283,-6.5132,-6.5157,-6.5233,-6.453,-6.3927,-6.345,-6.345,-6.3199,-6.2822,0.0,0.0,0.0,0.0,0.0,0.0,0.0,0.0,0.0,0.0,0.0,0.0,0.0,0.0,0.0,0.0,0.0,0.0,0.0,0.0,0.0,0.0,0.0,-6.4005,-6.5019,-6.5459,-6.6068,-6.6812,-6.6812,-6.6812,-6.6812,-6.7252,-6.803,-6.9113,-6.9553,-7.0331,-7.1312,-7.1312,-7.1312,-7.1312,-7.1312,-7.1041,-7.0612,-7.032,-6.9636,-6.8658,-6.7187,-6.6579,-6.6075,-6.2746,0.0,0.0,0.0,0.0,0.0,0.0,0.0,0.0,0.0,0.0,0.0,0.0,0.0,0.0,0.0,0.0,0.0,0.0,0.0,0.0,0.0,0.0,0.0,0.0,-6.5922,-6.8944,-7.1547,-7.3432,-7.5677,-7.8699,-7.9352,-7.9279,-7.8573,-7.6619,-7.4614,-7.2746,-7.1287,-7.0958,-7.2087,-7.2138,-7.2539,-7.3418,-7.2891,-7.2238,-7.1435,-7.033,-6.9401,-6.8622,-6.7744,-6.7317,-6.7292,-6.6639,-6.6338,0.0,-6.576,-6.571,-6.5986,-6.5735,-6.5634,0.0,0.0,0.0,0.0,0.0,-6.3324,-6.2822,0.0,0.0,0.0,0.0,0.0,0.0,0.0,0.0,0.0,0.0,0.0,0.0,0.0,0.0,0.0,0.0,0.0,0.0,0.0,0.0,0.0,-6.3497,-6.3768,-6.4444,-6.5662,-6.5865,-6.6237,-6.6812,-6.6812,-6.6812,-6.6812,-6.6914,-6.7658,-6.8977,-6.9147,-6.9891,-7.1075,-7.1244,-7.1255,-7.1219,-7.1287,-7.1389,-7.1522,-7.1732,-7.1874,-7.1942,-7.1435,-7.0452,-6.8992,-6.6439,0.0,0.0,0.0,0.0,0.0,0.0,0.0,0.0,0.0,0.0,0.0,0.0,0.0,0.0,0.0,0.0,0.0,0.0,0.0,0.0,0.0,0.0,0.0,0.0,-6.9034,-7.2265,-7.5557,-7.6604,-7.8011,-8.0614,-8.0375,-7.9682,-7.892,-7.6647,-7.4533,-7.303,-7.2464,-7.2665,-7.372,0.0,0.0,0.0,0.0,-7.3242,-7.2113,-7.1058,-6.9978,-6.8899,-6.8346,-6.807,-6.807,-6.802,-6.7945,-6.7869,-6.7367,-6.7116,-6.7015,-6.6438,-6.6162,-6.6061,-6.5509,-6.4957,-6.4404,-6.3877,-6.3324,0.0,0.0,0.0,0.0,0.0,0.0,0.0,0.0,0.0,0.0,0.0,0.0,0.0,0.0,0.0,0.0,0.0,0.0,0.0,0.0,0.0,-6.2719,-6.3497,-6.5222,-6.6034,-6.5696,-6.6846,-6.7252,-6.6812,-6.6812,-6.6812,-6.6812,-6.7421,-6.7861,-6.8199,-6.9417,-6.9823,-6.962,-7.0804,-7.1061,-7.0698,-7.1319,-7.1939,-7.254,-7.2576,-7.3083,-7.3726,-7.2998,-7.3048,-7.2889,-6.9136,-6.7748,-6.6888,-6.288,-6.0744,0.0,0.0,0.0,0.0,0.0,0.0,0.0,0.0,0.0,0.0,0.0,0.0,0.0,0.0,0.0,0.0,0.0,0.0,0.0,-6.7926,-7.0739,-7.3492,-7.6275,-7.7682,-7.9208,-8.1332,-8.3252,-8.3167,-7.9754,-7.9883,-7.8448,-7.4334,-7.3996,-7.4222,-7.4875,-7.4925,0.0,-7.5728,-7.5201,-7.4397,-7.3268,-7.259,-7.1686,-7.0606,0.0,0.0,-6.9777,-6.9325,-6.8874,-6.8447,-6.8346,-6.8045,-6.7593,-6.7041,-6.6538,-6.6061,-6.5509,-6.4957,-6.4404,-6.3877,-6.3324,-6.2822,0.0,0.0,0.0,0.0,0.0,0.0,0.0,0.0,0.0,0.0,0.0,0.0,0.0,0.0,0.0,0.0,0.0,0.0,0.0,0.0,-6.3057,-6.4546,-6.6034,-6.6643,-6.6271,-6.7726,-6.7963,-6.6812,-6.7184,-6.7184,-6.6812,-6.7184,-6.7557,-6.7929,-6.8707,-6.9313,-6.9822,-7.0575,-7.1028,-7.1217,-7.1602,-7.2296,-7.3104,-7.3104,-7.3649,-7.4476,-7.4604,-7.4714,-7.4356,-7.1942,-7.0551,-6.9258,-6.5935,-6.4286,-6.313,0.0,0.0,0.0,0.0,0.0,0.0,0.0,0.0,0.0,0.0,0.0,0.0,0.0,0.0,-6.0027,-6.2989,0.0,-6.8465,-7.1457,-7.3582,-7.5677,-7.8011,-8.0016,-8.1631,-8.2649,-8.348,-8.3657,-8.2906,-8.0989,-7.9001,-7.7175,-7.5604,-7.5075,-7.5628,-7.5653,-7.5778,-7.6055,-7.5251,-7.4423,-7.3594,-7.274,-7.1912,-7.1083,-7.0807,-7.0681,-7.0656,-7.038,-7.0104,-6.9828,-6.9275,-6.8874,-6.8547,-6.7744,-6.7066,-6.6513,-6.6237,-6.5609,-6.4806,-6.4279,-6.3726,-6.3224,0.0,0.0,0.0,0.0,0.0,0.0,0.0,0.0,0.0,0.0,0.0,0.0,0.0,0.0,0.0,0.0,0.0,0.0,0.0,-6.2584,-6.3734,-6.5797,-6.6914,-6.7387,-6.7252,-6.847,-6.8402,-6.7015,-6.7489,-6.7387,-6.6812,-6.6812,-6.7117,-6.7692,-6.804,-6.9008,-7.0337,-7.0814,-7.1476,-7.2227,-7.2191,-7.2686,-7.3454,-7.3273,-7.3816,-7.4751,-7.5369,-7.5092,-7.4242,-7.3051,-7.1715,-7.0146,-6.7896,-6.7069,-6.6441,-6.3647,-6.3039,0.0,0.0,0.0,0.0,0.0,0.0,0.0,0.0,-5.9166,-5.9839,-6.1373,-6.2398,-6.4186,-6.8016,-7.0051,-7.2086,-7.4958,-7.6544,-7.81,-8.0105,-8.232,-8.3936,-8.4444,-8.4016,-8.4308,-8.5852,-8.218,-7.9759,-7.974,-7.7473,-7.6093,-7.6279,-7.6205,-7.6205,-7.6205,-7.5352,-7.4573,-7.392,-7.3016,-7.2263,-7.1736,-7.1736,-7.1736,-7.1736,-7.1736,-7.161,-7.1334,-7.0255,-6.9652,-6.9285,-6.8371,-6.7568,-6.6965,-6.6739,-6.6086,-6.5233,-6.468,-6.4128,-6.3601,0.0,0.0,0.0,0.0,0.0,0.0,0.0,0.0,0.0,0.0,0.0,0.0,0.0,0.0,0.0,0.0,0.0,0.0,0.0,-6.326,-6.5053,-6.6609,-6.8707,-6.9519,-6.8876,-6.9011,-6.8673,-6.7793,-6.7218,-6.688,-6.6812,-6.6812,-6.6846,-6.699,-6.852,-6.9352,-6.9762,-7.1906,-7.3012,-7.3308,-7.3274,-7.3402,-7.3589,-7.2864,-7.3523,-7.4751,-7.4047,-7.3359,-7.2357,-6.9778,-6.8857,-6.8539,-6.727,-6.6829,-6.6501,-6.4832,-6.3491,-6.1855,-5.877,-5.8071,-5.9038,-6.2093,-6.2736,-6.4132,0.0,-6.8729,-6.7104,-7.0276,-7.0307,-7.0141,-7.1248,-7.3522,-7.5736,-7.7233,-7.8609,-8.0165,-8.214,-8.3187,-8.4624,-8.6988,-8.8232,-8.8078,-8.6197,-8.6024,-8.4188,-7.9983,-7.9387,-7.8498,-7.6957,-7.6783,-7.6783,-7.6783,-7.6657,-7.6105,-7.5075,-7.4925,-7.4598,-7.4046,-7.4046,-7.4046,-7.4046,-7.4046,-7.3494,-7.2489,-7.1384,-7.0355,-6.9311,-6.8798,-6.7919,-6.6865,-6.586,-6.5409,-6.5233,-6.468,-6.4128,-6.3601,0.0,0.0,0.0,0.0,0.0,0.0,0.0,0.0,0.0,0.0,0.0,0.0,0.0,0.0,0.0,0.0,0.0,0.0,0.0,0.0,-6.5019,-6.7354,-6.9214,-6.9857,-6.9113,-6.9958,-6.9789,-6.8605,-6.8707,-6.8571,-6.8132,-6.8747,-6.9001,-6.9082,-7.0357,-7.1292,-7.1873,-7.2904,-7.3444,-7.3598,-7.2987,-7.2549,-7.2035,-7.073,-7.0357,-7.0638,-7.1304,-7.0987,0.0,0.0,-6.713,-6.6949,-6.6488,-6.6573,-6.6417,-6.4505,-6.4155,-6.4069,-6.2803,-6.2149,-6.249,-6.5363,-6.7247,-6.909,-7.1748,-7.1952,-7.2041,-7.3714,-7.4067,-7.445,-7.5674,-7.7143,-7.8609,-7.9896,-8.1542,-8.3098,-8.4295,-8.5701,-8.7018,-8.8155,-8.9441,-8.9924,-8.9297,-8.787,-8.6332,-8.4677,-8.1876,-7.9852,-7.9003,-7.7934,-7.721,-7.6883,-7.6557,-7.603,-7.5251,-7.4925,-7.4649,-7.4423,-7.4423,-7.4423,-7.4423,-7.4423,-7.3795,-7.2665,-7.156,-7.0455,-6.9401,-6.8848,-6.7769,-6.6438,-6.5961,-6.5383,-6.4756,-6.4203,-6.3877,-6.3601,0.0,0.0,0.0,0.0,0.0,0.0,0.0,0.0,0.0,0.0,0.0,0.0,0.0,0.0,0.0,0.0,0.0,0.0,0.0,0.0,-6.5019,-6.7793,-6.9383,0.0,-6.9722,-7.0567,-7.0466,-6.9417,-7.0002,-7.0029,-6.9527,-7.0545,-7.1024,-7.1063,-7.2045,-7.3006,-7.3832,-7.4098,-7.4128,-7.3897,-7.3011,-7.1899,-7.056,-6.8885,-6.7621,-6.6882,-6.8197,-6.8126,0.0,0.0,-6.5021,-6.5073,-6.5031,-6.5436,-6.5512,-6.3738,-6.3533,-6.3945,-6.439,-6.4718,-6.5535,-6.8213,-7.1411,-7.3924,-7.3919,-7.5042,-7.6122,-7.6425,-7.6606,-7.7154,-7.8566,-7.9507,-8.0584,-8.208,-8.3816,-8.5342,-8.6359,-8.7766,-8.8693,-8.8693,-8.9352,-9.016,-9.0997,-8.9157,-8.7987,-8.7985,-8.3969,-8.1345,-8.1018,-7.8861,-7.7511,-7.7109,-7.6582,-7.603,-7.5477,-7.5075,-7.4875,-7.4875,-7.4875,-7.4875,-7.4849,-7.4548,-7.3895,-7.2891,-7.1636,-7.0455,-6.9401,-6.8698,-6.7593,-6.6312,-6.5835,-6.5157,-6.4379,-6.3701,-6.355,-6.3601,0.0,0.0,0.0,0.0,0.0,0.0,0.0,0.0,0.0,0.0,0.0,0.0,0.0,0.0,0.0,0.0,0.0,0.0,0.0,0.0,-6.5561,-6.7793,-6.9383,-7.0534,-7.1244,-7.0567,-7.0195,-7.0161,-7.0464,-7.058,-7.0585,-7.1563,-7.2045,-7.2082,-7.3035,-7.3907,-7.4733,-7.5614,-7.552,-7.4624,-7.3796,-7.2034,-6.9671,-6.8041,-6.6391,-6.4973,-6.5044,0.0,0.0,-6.2059,-6.2021,-6.2676,-6.2559,-6.3037,-6.3441,-6.2662,-6.0898,-5.9539,-6.1028,-6.3524,-6.6563,-7.0274,-7.4525,-7.8185,-7.9627,-7.9645,-7.943,-7.9515,-7.8575,-7.7992,-7.8669,-7.9866,-8.1422,-8.3367,-8.4803,-8.6359,-8.8304,-8.8634,-8.8693,-8.8693,-8.8155,-8.8304,0.0,-9.0197,-8.9813,-8.816,-8.555,-8.3559,-8.2277,-7.9396,-7.7687,-7.7687,-7.7134,-7.6582,-7.603,-7.6004,-7.6004,-7.6004,-7.6004,-7.6004,-7.5979,-7.49,-7.4096,-7.3468,-7.1811,-7.0455,-6.9351,-6.8271,-6.7467,-6.6789,-6.5157,-6.4505,-6.4329,-6.3249,-6.3199,-6.3601,0.0,0.0,0.0,0.0,0.0,0.0,0.0,0.0,0.0,0.0,0.0,0.0,0.0,0.0,0.0,0.0,0.0,0.0,0.0,0.0,-6.3903,-6.5628,-6.7624,-6.9045,-6.9823,-7.006,-7.0432,-7.0939,-7.1032,-7.143,-7.2076,-7.3111,-7.3901,-7.458,-7.4891,-7.5207,-7.5426,-7.5045,-7.4405,-7.3475,-7.1614,-7.0005,-6.8511,-6.5852,-6.3844,-6.2412,0.0,0.0,0.0,-5.9596,-5.9559,-6.0225,-6.0167,-6.0668,-6.1109,-6.0374,-6.0329,-6.096,-6.2956,-6.6029,-6.9714,-7.3953,-7.6455,-7.8532,-8.0917,-8.0855,-8.0288,-8.0103,-7.8305,-7.6837,-7.6844,-7.7592,-7.8819,-8.0823,-8.4055,-8.6898,-8.8454,-8.9441,-8.9322,-8.7586,-8.7975,0.0,0.0,0.0,0.0,-9.0996,-8.7163,-8.4581,-8.424,-8.042,-7.7913,-7.7185,-7.7335,-7.6984,-7.6055,-7.6406,-7.6406,-7.6055,-7.6055,-7.5854,-7.5477,-7.4372,-7.3368,-7.2389,-7.0706,-6.9376,-6.8271,-6.7141,-6.6137,-6.5208,-6.4304,-6.3726,-6.335,-6.2973,-6.2948,-6.3099,0.0,0.0,0.0,0.0,0.0,0.0,0.0,0.0,0.0,0.0,0.0,0.0,0.0,0.0,0.0,0.0,0.0,0.0,0.0,0.0,-6.2245,-6.3734,-6.5425,-6.6812,-6.7861,-6.8335,-6.8944,-6.9722,-7.0054,-7.0675,-7.1625,-7.2619,-7.3581,-7.4473,-7.4473,-7.4473,-7.4438,-7.3792,-7.2531,-7.0853,-6.93,-6.7342,-6.5126,-6.3062,-6.1366,0.0,0.0,0.0,0.0,-5.7915,-5.7983,-5.8558,-5.8321,-5.8727,-5.937,-5.9742,-6.0179,-6.124,-6.422,-6.717,-7.0432,-7.4636,-7.6899,-7.872,-8.1085,-8.1076,-8.0432,-8.0053,-7.7763,-7.5749,-7.5593,-7.5677,-7.6365,-7.813,-8.1691,-8.4953,-8.6988,-8.7796,-8.7885,-8.7167,-8.7197,-8.7048,0.0,0.0,0.0,-9.1716,-8.738,-8.4843,-8.5184,-8.0785,-7.7913,-7.7185,-7.7511,-7.726,-7.6356,-7.6707,-7.6507,-7.5753,-7.5753,-7.5477,-7.49,-7.3795,-7.2765,-7.1811,-6.9953,-6.8648,-6.7719,-6.6589,-6.5685,-6.4982,-6.4254,-6.3751,-6.3375,-6.2973,-6.2822,-6.2822,0.0,0.0,0.0,0.0,0.0,0.0,0.0,0.0,0.0,0.0,0.0,0.0,0.0,0.0,0.0,0.0,0.0,0.0,0.0,0.0,0.0,-6.2144,-6.299,-6.4072,-6.5493,-6.5561,-6.5967,-6.6745,-6.7644,-6.8574,-6.9445,-7.0335,-7.1161,-7.1905,-7.1833,-7.1761,-7.1761,-7.1795,-6.9937,-6.7049,-6.7049,-6.4267,-6.0216,-6.0148,0.0,0.0,0.0,0.0,-5.778,-5.7103,-5.7408,-5.7949,-5.7306,-5.7611,-5.866,-6.0748,-6.0491,-6.0463,-6.4741,-6.7003,-6.9041,-7.2689,-7.6043,-7.8778,-8.0272,-8.0304,-7.9839,-7.917,-7.6684,-7.4616,-7.4518,-7.4091,-7.421,-7.5617,-7.822,-8.1212,-8.4474,-8.4444,-8.4983,-8.7407,-8.606,-8.5641,-8.7467,-8.7028,0.0,-9.0203,0.0,-8.4401,-8.497,-8.0322,-7.7712,-7.7712,-7.7737,-7.7486,-7.6933,-7.6883,-7.6331,-7.5276,-7.5251,-7.495,-7.4372,-7.3217,-7.2364,-7.1711,-6.9526,-6.8271,-6.7668,-6.6538,-6.6061,-6.5961,-6.4881,-6.4454,-6.4304,-6.3249,-6.2847,-6.2822,0.0,0.0,0.0,0.0,0.0,0.0,0.0,0.0,0.0,0.0,0.0,0.0,0.0,0.0,0.0,0.0,0.0,0.0,0.0,0.0,0.0,0.0,0.0,0.0,0.0,0.0,0.0,0.0,0.0,-6.6587,-6.8617,-6.7738,-6.8149,-6.9529,-6.8217,-6.7642,-6.7603,-6.7423,-6.6531,-6.5193,0.0,-6.3401,-6.167,0.0,0.0,0.0,0.0,0.0,-5.7848,-5.7679,-5.8863,-6.0486,-6.0858,-6.1839,-6.283,-6.2324,-6.3144,-6.444,-6.561,-6.8144,-7.125,-7.428,-7.5567,-7.6562,-7.8447,-7.7936,-7.6704,-7.5508,-7.3089,-7.0804,-6.9283,-7.0455,-7.2415,-7.4749,-7.9836,-8.4444,-8.7287,-8.8364,-8.8604,-8.7796,-8.7676,-8.7467,-8.6988,-8.6068,-8.5949,0.0,-8.4869,-8.313,-8.2516,-7.9387,-7.7712,-7.7712,-7.8088,-7.8038,-7.7486,-7.7084,-7.6532,-7.5854,-7.5427,-7.495,-7.4372,-7.2816,-7.1585,-7.0581,-6.8773,-6.7693,-6.7091,-6.5961,-6.5484,-6.5434,-6.4731,-6.4228,-6.3852,-6.3576,-6.3199,-6.2822,0.0,0.0,0.0,0.0,0.0,0.0,0.0,0.0,0.0,0.0,0.0,0.0,0.0,0.0,0.0,0.0,0.0,0.0,0.0,0.0,0.0,0.0,0.0,0.0,0.0,0.0,0.0,0.0,0.0,0.0,0.0,-6.4507,-6.4675,-6.5887,-6.4913,-6.4473,-6.4469,-6.4285,0.0,0.0,0.0,0.0,0.0,0.0,0.0,0.0,0.0,0.0,-5.9869,-5.9862,-6.093,-6.2516,-6.3903,-6.448,-6.4681,-6.5243,-6.5171,-6.5254,-6.6512,-6.8595,-7.0897,-7.2967,-7.4308,-7.5196,-7.5819,-7.5476,-7.4462,-7.2601,-7.0306,-6.8271,-6.684,-6.8515,-7.0739,-7.2804,-7.7951,-8.2918,-8.6449,-8.7317,-8.7856,-8.8484,-8.8394,-8.775,-8.6503,-8.552,-8.4447,0.0,-8.2092,-8.1352,-8.0718,-7.8833,-7.7586,-7.736,-7.8114,-7.8139,-7.736,-7.6783,-7.613,-7.5327,-7.5025,-7.4448,-7.3644,-7.2439,-7.1435,-7.0556,0.0,-6.807,-6.7267,-6.6388,-6.5886,-6.5559,-6.4781,-6.4279,-6.3977,-6.35,-6.3099,-6.2873,0.0,0.0,0.0,0.0,0.0,0.0,0.0,0.0,0.0,0.0,0.0,0.0,0.0,0.0,0.0,0.0,0.0,0.0,0.0,0.0,0.0,0.0,0.0,0.0,0.0,0.0,0.0,0.0,0.0,0.0,0.0,0.0,0.0,0.0,0.0,0.0,0.0,0.0,0.0,0.0,0.0,0.0,0.0,0.0,0.0,0.0,0.0,-6.0554,-6.2419,-6.2637,-6.3302,-6.4386,-6.6345,-6.6277,-6.5955,-6.8471,-6.7005,-6.5097,-6.7685,-6.8759,-6.9586,-7.086,-7.2992,-7.4451,-7.307,-7.326,-7.2871,-7.0044,-6.8081,-6.6602,-6.5771,-6.7292,-6.9303,-7.1009,-7.5048,-7.9524,-8.3997,-8.4451,-8.5465,-8.844,-8.8152,-8.7086,-8.5681,-8.4733,-8.2758,-7.9176,-7.9045,-7.917,-7.9249,-7.8152,-7.7411,-7.7009,-7.7913,-7.7913,-7.6883,-7.6406,-7.5653,-7.4623,-7.4473,-7.3895,-7.2941,-7.2238,-7.161,-7.1033,0.0,0.0,-6.7769,-6.7216,-6.6639,-6.6011,-6.5057,-6.463,-6.4454,-6.35,-6.3099,-6.3124,0.0,0.0,0.0,0.0,0.0,0.0,0.0,0.0,0.0,0.0,-5.4905,-5.46,0.0,0.0,0.0,0.0,0.0,0.0,0.0,0.0,0.0,0.0,0.0,0.0,0.0,0.0,0.0,0.0,0.0,0.0,0.0,0.0,0.0,0.0,0.0,0.0,0.0,0.0,0.0,0.0,0.0,0.0,0.0,0.0,0.0,0.0,0.0,-6.0994,-6.2588,0.0,-6.5535,-6.7213,-6.7601,-6.8736,-6.9947,-6.9866,-6.9375,-6.9043,-6.9544,-7.0093,-7.0869,-7.2206,-7.3304,-7.3732,-7.2379,-7.2176,-7.1213,-6.7468,-6.644,-6.5652,-6.3918,-6.5682,-6.8675,-7.2714,-7.6335,-7.9887,-8.3628,-8.6306,-8.6945,-8.4676,-8.5993,-8.6025,-8.3372,-8.119,-7.9628,0.0,-7.7042,-7.6212,-7.6669,-7.6956,-7.7185,-7.7536,-7.7737,-7.7536,-7.6883,-7.6783,-7.6406,-7.5753,-7.4849,-7.4322,-7.4071,-7.259,-7.161,-7.1033,0.0,0.0,-6.7769,-6.7216,-6.6639,-6.6086,-6.5911,-6.5534,-6.5132,-6.4931,-6.458,-6.4203,0.0,0.0,0.0,0.0,0.0,0.0,0.0,-5.5209,-5.5716,-5.7239,-5.7103,-5.6596,-5.5818,-5.6055,0.0,0.0,0.0,0.0,0.0,0.0,0.0,0.0,0.0,0.0,0.0,0.0,-5.866,-5.9032,0.0,0.0,0.0,-5.8389,-5.8084,-5.8423,0.0,0.0,0.0,0.0,0.0,0.0,0.0,0.0,0.0,0.0,0.0,0.0,0.0,-6.0972,-6.2589,-6.2242,-6.4293,-6.7353,-6.9542,-7.0893,-7.1608,-7.1676,-7.1077,-7.0639,-7.1323,-7.1966,-7.2823,-7.4147,-7.4704,-7.4202,-7.1513,-7.0663,-6.9276,-6.5345,-6.4506,-6.4218,-6.3288,-6.5226,-6.7971,-7.0834,-7.439,-7.8189,-8.2252,-8.3943,-8.4761,-8.469,-8.468,-8.359,-8.0869,-7.9575,-7.8278,-7.6718,-7.5984,-7.5778,-7.603,-7.6306,-7.6707,-7.726,-7.6984,-7.6707,-7.6456,-7.6456,-7.618,-7.5628,-7.5101,-7.4699,-7.4372,-7.3293,-7.2313,-7.146,-7.0656,0.0,-6.7769,-6.7518,-6.7066,-6.6538,-6.6237,-6.6137,-6.6086,-6.5509,-6.5132,-6.4906,0.0,0.0,0.0,0.0,0.0,0.0,0.0,-5.6461,-5.7036,-5.9438,-5.9742,-5.9235,-5.7915,-5.7476,-5.7137,0.0,0.0,0.0,0.0,0.0,0.0,0.0,0.0,0.0,0.0,0.0,0.0,-5.8761,-5.8761,0.0,0.0,0.0,0.0,0.0,-5.7881,-5.7881,0.0,0.0,0.0,0.0,0.0,-5.8355,0.0,0.0,0.0,0.0,0.0,-6.0476,-6.1771,-6.0505,-6.2372,-6.5871,-6.9633,-7.1288,-7.1967,-7.2552,-7.225,-7.2026,-7.3223,-7.4031,-7.4766,-7.5829,-7.5957,-7.4851,-7.0907,-6.9499,-6.787,-6.3905,-6.3079,-6.3079,-6.3079,-6.4764,-6.6754,-6.847,-7.1225,-7.4653,-7.9228,-8.0036,-8.0921,-8.3226,-8.2567,-8.0885,-7.8315,-7.8126,0.0,-7.472,0.0,0.0,-7.6055,-7.6055,-7.6256,-7.6682,-7.6281,-7.6055,-7.6055,-7.6055,-7.5829,-7.5402,-7.5301,-7.5,-7.4573,-7.3895,-7.3042,-7.2037,-7.1359,0.0,0.0,-6.802,-6.7643,-6.7116,-6.6639,-6.6739,-6.7041,-6.6162,-6.576,-6.566,0.0,0.0,0.0,0.0,0.0,0.0,0.0,-5.7306,-5.8727,-6.1704,-6.2076,-6.1772,-6.096,-5.9641,-5.8254,0.0,0.0,0.0,0.0,0.0,0.0,0.0,0.0,0.0,0.0,0.0,0.0,-5.7983,-5.7983,0.0,0.0,0.0,0.0,0.0,0.0,-5.7881,-5.7881,-5.7881,0.0,0.0,0.0,0.0,0.0,0.0,0.0,0.0,0.0,-5.8979,-5.9343,-6.0409,-6.1454,-6.2694,-6.4974,-6.8116,-7.0993,-7.1118,-7.2727,-7.4659,-7.5437,-7.6096,-7.6534,-7.6673,-7.6334,-7.4842,-7.0926,-6.9499,-6.787,-6.3905,-6.3079,-6.3079,-6.3079,-6.3314,-6.4453,-6.7599,-6.7519,-6.8646,-7.3011,-7.5511,-7.6507,-7.5618,-7.8093,-7.8796,-7.5837,-7.5494,-7.5396,-7.5176,0.0,0.0,-7.6055,-7.6055,-7.608,-7.613,-7.608,-7.6055,-7.6055,-7.6055,-7.603,-7.5979,-7.5477,-7.5201,-7.5126,-7.4071,-7.3242,-7.259,-7.1535,0.0,0.0,-6.8748,-6.8221,-6.7719,-6.7668,-6.7668,-6.7719,-6.7618,-6.7241,-6.6815,0.0,0.0,0.0,0.0,0.0,0.0,-5.707,-5.734,-5.8626,-6.255,-6.3057,-6.2956,-6.2685,-6.167,-5.9911,-5.7036,0.0,0.0,0.0,0.0,0.0,0.0,0.0,0.0,0.0,0.0,-5.7881,-5.7881,-5.7881,0.0,0.0,0.0,0.0,0.0,0.0,-5.7881,-5.7881,-5.7881,0.0,0.0,0.0,0.0,0.0,0.0,0.0,0.0,0.0,0.0,-5.8294,-5.8115,-5.9266,-6.0977,-6.1781,-6.4784,-6.8345,-7.032,-7.2505,-7.4689,-7.6544,-7.7502,-7.8071,-7.8513,-7.7222,-7.5041,-7.1865,-6.9682,-6.7508,-6.4319,-6.3344,-6.3079,-6.3079,-6.3079,-6.3176,-6.3405,-6.3777,-6.4813,-6.7152,-6.8584,-7.0493,-7.3209,-7.4125,-7.471,0.0,0.0,-7.5377,0.0,0.0,0.0,-7.6055,-7.6055,-7.6055,-7.6055,-7.6055,-7.6055,-7.6055,-7.6055,-7.6055,-7.6055,-7.5502,-7.5251,-7.5201,-7.4096,-7.3268,-7.2665,-7.156,0.0,0.0,-6.9351,-6.8999,-6.8798,-6.8798,-6.8798,-6.8748,-6.8422,-6.7945,-6.7417,0.0,0.0,0.0,0.0,0.0,-5.4431,-5.7137,-5.7306,-5.8592,-6.2651,-6.3193,-6.326,-6.3497,-6.2448,-6.0554,-5.7712,-5.7712,0.0,0.0,0.0,0.0,0.0,0.0,0.0,0.0,0.0,-5.7881,-5.7881,-5.7881,-5.7881,0.0,0.0,-5.7881,-5.7881,0.0,0.0,0.0,0.0,0.0,0.0,0.0,0.0,0.0,0.0,0.0,0.0,0.0,0.0,0.0,0.0,0.0,-6.0116,-6.0326,-6.245,0.0,-6.8794,-7.1727,-7.439,-7.6634,-7.8011,-7.8981,-7.9605,-7.7812,-7.522,-7.2493,-6.9916,-6.723,-6.4588,-6.3492,-6.3079,-6.3079,-6.2703,0.0,0.0,0.0,-6.1436,-6.2892,-6.3606,-6.5678,-7.0166,0.0,-7.1133,0.0,-7.49,-7.5628,0.0,0.0,0.0,0.0,-7.6055,-7.6055,-7.6055,-7.6055,-7.6055,-7.6055,-7.6055,-7.5979,-7.5804,-7.5427,-7.5151,-7.4975,-7.4021,-7.3368,-7.2916,0.0,0.0,0.0,-6.9903,-6.9602,-6.9361,-6.9361,-6.9351,-6.915,-6.8773,-6.817,-6.7493,0.0,0.0,0.0,0.0,0.0,0.0,-5.6461,-5.7408,-5.8964,-6.2009,-6.2415,-6.2685,-6.3429,-6.1501,-5.981,-5.9066,-5.8321,0.0,0.0,0.0,0.0,0.0,0.0,0.0,0.0,0.0,-5.7881,-5.7881,-5.7881,-5.7881,-5.7881,-5.7881,-5.7881,-5.7881,0.0,0.0,0.0,0.0,0.0,0.0,0.0,0.0,0.0,0.0,0.0,0.0,0.0,0.0,0.0,0.0,0.0,0.0,0.0,-6.1583,0.0,0.0,-7.029,-7.418,-7.5557,-7.7322,-7.8938,-7.9627,-7.782,-7.522,-7.2493,-6.9843,-6.7245,-6.4565,-6.3492,-6.3079,-6.3079,-6.17,-6.052,0.0,0.0,0.0,-6.0875,-6.1684,-6.2822,0.0,0.0,-6.8698,-7.0907,-7.4096,0.0,0.0,0.0,0.0,0.0,-7.6055,-7.6055,-7.6055,-7.6055,-7.6055,-7.6055,-7.6055,-7.5778,-7.5251,-7.5251,-7.495,-7.4397,-7.3845,-7.3594,0.0,0.0,0.0,0.0,-7.048,-6.9928,-6.9361,-6.9361,-6.91,-6.8622,-6.8622,-6.7919,-6.699,0.0,0.0,0.0,0.0,0.0,0.0,0.0,-5.548,-5.6697,-5.9708,-6.008,-6.0757,-6.255,-6.1163,-6.0216,-6.0554,-5.893,0.0,0.0,0.0,0.0,0.0,0.0,0.0,0.0,0.0,-5.7881,-5.7881,-5.8389,-5.8389,-5.7915,-5.8423,-5.8389,-5.7881,-5.7881,-5.7881,0.0,0.0,0.0,0.0,0.0,0.0,0.0,0.0,0.0,0.0,0.0,0.0,0.0,0.0,0.0,0.0,0.0,0.0,0.0,-6.4395,-6.7926,-7.1398,-7.2265,-7.427,-7.6066,-7.5826,-7.448,-7.2835,-7.1522,-6.9572,-6.7533,-6.5771,-6.4454,-6.376,-6.3709,-6.2912,-6.1872,0.0,0.0,0.0,0.0,0.0,0.0,-6.6086,-7.1259,-7.4849,0.0,0.0,0.0,0.0,0.0,0.0,0.0,-7.6055,-7.6055,-7.6055,-7.5703,-7.5502,-7.5502,-7.5126,-7.4849,-7.4674,-7.4297,-7.4021,-7.382,-7.3268,0.0,0.0,0.0,0.0,0.0,-7.161,-7.1058,-7.0556,-7.0556,-6.9777,-6.8622,-6.8622,-6.7919,-6.6965,0.0,0.0,0.0,0.0,0.0,0.0,0.0,-5.4397,-5.5344,-5.7509,-5.8017,-5.9032,-6.1298,-6.0419,-6.0114,-6.1231,-5.9708,0.0,0.0,0.0,0.0,0.0,0.0,0.0,-5.7881,-5.7881,-5.8017,-5.8321,-5.9066,-5.9201,-5.8727,-5.9505,-5.9115,-5.7696,-5.7696,-5.7435,0.0,0.0,0.0,0.0,0.0,0.0,-5.6262,0.0,0.0,0.0,0.0,0.0,0.0,0.0,0.0,0.0,0.0,0.0,0.0,0.0,-6.5951,-6.8794,-7.0171,-7.2475,-7.448,-7.43,-7.3246,-7.2053,-7.1122,-6.9434,-6.7608,-6.6241,-6.5114,-6.4365,-6.4367,-6.2793,-6.1282,0.0,0.0,0.0,0.0,0.0,0.0,-6.7166,0.0,0.0,0.0,0.0,0.0,0.0,0.0,0.0,0.0,-7.6055,-7.6055,-7.6055,-7.5728,-7.5552,-7.5552,-7.5201,-7.4925,-7.4724,-7.4372,-7.4096,-7.387,-7.3318,0.0,0.0,0.0,0.0,0.0,-7.1836,-7.1259,-7.0732,-7.0305,-6.9401,-6.8296,-6.807,-6.7292,-6.6338,0.0,0.0,0.0,0.0,0.0,0.0,0.0,-5.4093,-5.4769,-5.5547,-5.6258,-5.7509,-5.9641,-5.937,-5.9607,-6.1095,0.0,0.0,0.0,0.0,0.0,0.0,0.0,0.0,-5.7881,-5.7881,-5.8254,-5.9032,-5.981,-6.0144,-6.0068,-6.0912,-5.9929,-5.7402,-5.7376,-5.6661,0.0,0.0,0.0,0.0,-5.5359,-5.5209,0.0,0.0,0.0,0.0,0.0,0.0,0.0,0.0,0.0,0.0,0.0,0.0,0.0,0.0,0.0,0.0,0.0,-7.1577,-7.3672,-7.424,-7.3507,-7.2306,-7.1004,-6.9316,0.0,-6.6362,-6.553,-6.5053,-6.5022,-6.181,-5.9414,0.0,0.0,0.0,0.0,-6.1492,0.0,0.0,-7.1535,0.0,0.0,0.0,0.0,0.0,0.0,0.0,0.0,-7.6055,-7.6055,-7.6055,-7.6055,-7.603,-7.6004,-7.5954,-7.5678,-7.5176,-7.5176,-7.49,-7.4397,-7.3895,0.0,0.0,0.0,0.0,0.0,-7.1359,-7.0757,-7.0104,-6.9074,-6.8296,-6.7668,-6.7166,-6.6287,-6.5333,0.0,0.0,0.0,0.0,0.0,0.0,0.0,0.0,0.0,0.0,-5.5513,-5.6393,-5.7476,-5.8457,-5.937,0.0,0.0,0.0,0.0,0.0,0.0,0.0,0.0,0.0,-5.7881,-5.7881,-5.8254,-5.9032,-6.0351,-6.05,-5.9521,-6.0879,-6.006,-5.7473,-5.6927,-5.6098,0.0,0.0,0.0,0.0,-5.548,-5.5508,0.0,0.0,0.0,0.0,-5.8441,-5.9847,0.0,0.0,0.0,0.0,0.0,0.0,0.0,0.0,-6.4844,-6.6251,-6.7388,0.0,-7.0081,-6.9718,-6.9739,-6.9689,0.0,-6.8353,-6.776,-6.6936,-6.6251,-6.5586,-6.5089,-6.3112,-6.1388,0.0,0.0,-6.0008,-6.0572,0.0,0.0,-7.3318,-7.613,0.0,0.0,0.0,0.0,0.0,0.0,0.0,0.0,0.0,-7.6055,-7.6055,-7.6055,-7.5854,-7.5427,-7.5,-7.4749,-7.4623,-7.4623,-7.4548,-7.4423,-7.4272,0.0,0.0,0.0,0.0,-7.1887,-7.1761,-7.0882,-6.9602,-6.9351,-6.8396,-6.7166,-6.7015,-6.6538,-6.586,0.0,0.0,0.0,0.0,0.0,0.0,0.0,0.0,0.0,0.0,0.0,0.0,0.0,0.0,0.0,0.0,0.0,0.0,0.0,0.0,0.0,0.0,0.0,-5.7881,-5.7881,-5.7881,-5.8423,-5.9505,-6.0192,-6.0429,-6.036,-6.1,-5.982,-5.7224,-5.5968,-5.5115,-5.4622,-5.5597,-5.5951,-5.5748,-5.5957,0.0,0.0,0.0,0.0,0.0,-5.874,-5.9967,0.0,-6.1545,-6.2268,-6.3079,0.0,0.0,0.0,0.0,-6.4725,-6.5772,-6.6729,-6.8196,-6.9456,-6.931,-6.94,-6.9325,-6.8985,-6.8411,-6.7894,-6.7501,-6.6468,-6.5597,-6.5491,-6.329,-6.148,0.0,-6.1259,0.0,0.0,0.0,-7.2313,-7.5603,0.0,0.0,0.0,0.0,0.0,0.0,0.0,0.0,0.0,0.0,-7.6055,-7.6055,-7.6055,-7.5904,-7.5628,-7.5327,-7.5176,-7.5176,-7.5176,-7.5176,-7.5151,-7.49,-7.4498,0.0,0.0,0.0,-7.1887,-7.1636,-7.0706,-6.9311,-6.8899,-6.7995,-6.694,-6.6664,-6.6061,-6.5308,0.0,0.0,0.0,0.0,0.0,0.0,0.0,0.0,0.0,0.0,0.0,0.0,0.0,0.0,0.0,0.0,0.0,0.0,0.0,0.0,0.0,0.0,0.0,-5.7949,-5.8051,-5.7949,-5.8586,-6.0021,-5.9842,-6.0299,-6.1315,-6.127,-5.9727,-5.6933,-5.5469,-5.4581,-5.4311,-5.5598,-5.5897,-5.5568,-5.6555,0.0,0.0,0.0,0.0,0.0,0.0,0.0,0.0,-6.1331,-6.2202,-6.3079,-6.3079,0.0,0.0,0.0,0.0,0.0,-6.7029,-6.8824,-7.0325,-7.0457,-7.0213,-6.9905,-6.9615,-6.8857,-6.8081,-6.7673,-6.6403,-6.5392,-6.5639,-6.3062,-6.1111,0.0,0.0,0.0,-6.9325,-7.1033,-7.2991,0.0,0.0,0.0,0.0,0.0,0.0,0.0,0.0,0.0,0.0,0.0,0.0,-7.6055,-7.6055,-7.6055,-7.6055,-7.6055,-7.6055,-7.6055,-7.5979,-7.5929,-7.5904,-7.5377,-7.4824,0.0,0.0,0.0,-7.1736,-7.1083,-7.0179,-6.9074,-6.797,-6.7191,-6.6639,-6.6061,-6.5283,-6.4454,0.0,0.0,0.0,0.0,0.0,0.0,0.0,0.0,0.0,0.0,0.0,0.0,0.0,0.0,0.0,0.0,0.0,0.0,0.0,0.0,0.0,-5.7879,-5.7881,-5.8186,-5.8829,-5.822,-5.8484,-5.958,-6.0609,-6.0812,-6.0215,-6.1886,-6.065,-5.7106,-5.7408,-5.6286,-5.4311,-5.5598,-5.6406,-5.6765,-5.6436,0.0,0.0,0.0,0.0,0.0,0.0,0.0,0.0,-6.2418,-6.2927,-6.3079,-6.3079,0.0,0.0,0.0,0.0,0.0,-6.8854,-7.053,-7.1117,-6.898,-6.9227,-6.9572,-6.7859,-6.8166,-6.8185,-6.598,-6.6105,-6.598,-6.3827,-6.3033,-6.2631,0.0,0.0,-6.7693,0.0,0.0,-7.5176,0.0,0.0,0.0,0.0,0.0,0.0,0.0,0.0,0.0,0.0,0.0,0.0,-7.6055,-7.6055,-7.6055,-7.6055,-7.6055,-7.6055,-7.6055,-7.5578,-7.5377,-7.5352,-7.4799,-7.4247,0.0,0.0,-7.2238,-7.1133,-7.0104,-6.9049,-6.7945,-6.6815,-6.6036,-6.5484,-6.4931,-6.4605,-6.4404,0.0,0.0,0.0,0.0,0.0,0.0,0.0,0.0,0.0,0.0,0.0,0.0,0.0,0.0,0.0,0.0,0.0,0.0,0.0,0.0,0.0,-5.9066,-5.8433,-5.8091,-5.8058,-5.8053,-5.8558,-5.9543,-5.9823,-6.0309,-6.099,-6.056,-5.941,-5.7633,-5.7244,-5.6406,-5.5299,-5.5927,-5.6526,-5.7064,0.0,0.0,0.0,0.0,0.0,0.0,0.0,0.0,0.0,0.0,-6.2807,-6.3079,-6.3079,0.0,0.0,0.0,0.0,0.0,-6.7418,-6.8764,-6.9496,-6.8269,-6.9821,-7.1302,-7.0407,-6.9258,-6.8156,-6.734,-6.5846,-6.467,0.0,0.0,-6.5052,-6.7304,0.0,-7.043,-7.3971,0.0,0.0,0.0,0.0,0.0,0.0,0.0,0.0,0.0,0.0,0.0,0.0,0.0,0.0,0.0,-7.6055,-7.5904,-7.5628,-7.5603,-7.5603,-7.5603,-7.5352,-7.4925,-7.4347,-7.4096,-7.3343,-7.2213,0.0,-7.1033,-6.9727,-6.92,-6.817,-6.684,-6.6312,-6.5584,-6.4781,-6.4254,-6.4053,-6.3977,0.0,0.0,0.0,0.0,0.0,0.0,0.0,0.0,0.0,0.0,0.0,0.0,0.0,0.0,0.0,0.0,0.0,0.0,0.0,0.0,-5.8114,-5.8786,-5.8181,-5.8035,-5.8396,-5.8322,-5.8863,-6.0131,-5.9866,-6.064,-6.2342,-5.9891,-5.874,-5.853,-5.7363,-5.6675,-5.6406,-5.6555,-5.6915,-5.7363,0.0,0.0,0.0,0.0,0.0,0.0,0.0,0.0,0.0,0.0,0.0,0.0,0.0,0.0,0.0,-6.4695,-6.5024,-6.5233,-6.6191,-6.7328,-6.8244,-6.8203,-6.9981,-7.1835,-7.2199,-7.0231,-6.8298,-6.8639,-6.6396,-6.4474,0.0,-6.5409,0.0,-7.0907,-7.1811,0.0,0.0,0.0,0.0,0.0,0.0,0.0,0.0,0.0,0.0,0.0,0.0,0.0,0.0,0.0,0.0,0.0,-7.5929,-7.5653,-7.5251,-7.4975,-7.4849,-7.4849,-7.4573,-7.3946,-7.2991,-7.274,-7.1912,-7.0681,-7.0556,-6.9727,-6.8396,-6.8145,-6.7191,-6.5886,-6.5634,-6.4957,-6.4028,-6.3626,-6.35,-6.3425,0.0,0.0,0.0,0.0,0.0,0.0,0.0,0.0,0.0,0.0,0.0,0.0,0.0,0.0,0.0,0.0,0.0,0.0,0.0,0.0,-5.4454,-5.4957,-5.605,-5.8307,-6.1953,-5.9718,-5.9553,-6.1709,-6.2268,-6.2982,-6.3794,-6.1849,-6.0565,-5.9907,-5.9219,-5.8201,-5.7064,-5.7723,-5.8022,-5.8112,-5.871,0.0,0.0,0.0,0.0,0.0,0.0,0.0,0.0,0.0,0.0,0.0,0.0,0.0,-6.4066,-6.4814,-6.5024,-6.5443,-6.7328,-6.8375,-6.8937,-6.8956,-6.8628,-6.8756,-7.0264,-6.9943,-6.9037,-6.819,-6.8302,-6.7721,-6.506,-6.6197,-6.8221,0.0,0.0,0.0,0.0,0.0,0.0,0.0,0.0,0.0,0.0,0.0,0.0,0.0,0.0,0.0,0.0,0.0,0.0,0.0,0.0,-7.5276,-7.5251,-7.4222,-7.372,-7.3694,-7.264,-7.1836,-7.1234,-7.0204,-6.9677,-6.9526,-6.9024,-6.8447,-6.7769,-6.6739,-6.5911,-6.5258,-6.4254,-6.35,-6.2948,-6.2898,-6.2898,-6.2898,0.0,0.0,0.0,0.0,0.0,0.0,0.0,0.0,0.0,0.0,0.0,0.0,0.0,0.0,0.0,0.0,0.0,0.0,0.0,-5.4857,-5.5947,-5.6584,-5.6712,-5.7878,-6.0171,-5.9598,-6.0191,-6.202,-6.3072,-6.3508,-6.3378,-6.1403,-6.0116,-5.9458,-5.88,-5.8441,-5.8351,-5.862,-5.9219,-5.9967,-5.9787,-6.0116,0.0,0.0,0.0,0.0,0.0,0.0,0.0,0.0,-6.3079,-6.3079,0.0,-6.3228,-6.3558,-6.4186,-6.4395,-6.4545,-6.5293,-6.6909,-6.8375,-6.8405,-6.7829,-6.7956,-7.0463,-6.9857,-6.8789,-6.917,-6.9231,-6.8889,-6.7731,0.0,-7.0782,0.0,0.0,0.0,0.0,0.0,0.0,0.0,0.0,0.0,0.0,0.0,0.0,0.0,0.0,0.0,0.0,0.0,0.0,0.0,0.0,-7.5075,-7.4724,-7.3619,-7.2539,-7.151,-7.1435,-7.0932,-7.0054,-6.9275,-6.8547,-6.7869,-6.7317,-6.6739,-6.6187,-6.5409,-6.4781,-6.4228,-6.345,-6.3023,-6.2822,-6.2822,-6.2822,-6.2822,0.0,0.0,0.0,0.0,0.0,0.0,0.0,0.0,0.0,0.0,0.0,0.0,0.0,0.0,0.0,0.0,0.0,0.0,-5.31,-5.4459,-5.5471,-5.6032,-5.6091,-5.6817,-5.8264,-5.9325,-6.0624,-6.2072,-6.3369,-6.3677,-6.3049,-6.1253,-6.0176,-5.9697,-5.9039,-5.9099,-5.9727,-5.9727,-6.0266,-6.1104,-6.0835,-6.1014,0.0,0.0,0.0,0.0,0.0,0.0,0.0,0.0,0.0,0.0,0.0,0.0,0.0,0.0,-6.4156,-6.4336,-6.4336,-6.5622,-6.7147,-6.7567,-6.6791,-6.685,-7.044,-6.9783,-6.8914,-7.0528,-7.042,-7.0019,-6.9727,-7.0978,0.0,0.0,0.0,0.0,0.0,0.0,0.0,0.0,0.0,0.0,0.0,0.0,0.0,0.0,0.0,0.0,0.0,0.0,0.0,0.0,0.0,-7.4448,-7.3895,-7.259,-7.1629,-7.1013,-7.086,-7.0044,-6.8648,-6.8572,-6.7811,-6.6413,-6.5835,-6.5283,-6.4756,-6.4379,-6.3902,-6.3375,-6.2973,-6.2822,-6.2822,-6.2822,-6.2822,-6.2822,0.0,0.0,0.0,0.0,0.0,0.0,0.0,0.0,0.0,0.0,0.0,0.0,0.0,0.0,0.0,0.0,0.0,0.0,-5.1229,-5.1828,-5.2187,-5.2187,-5.3473,-5.5119,-5.7034,-5.9039,-6.0735,-6.2,-6.3343,-6.3677,-6.3049,-6.1732,-6.1104,-6.1074,-6.0386,-6.0475,-6.1134,-6.1134,-6.1134,-6.1194,-6.1852,-6.2121,-6.2121,0.0,0.0,0.0,0.0,0.0,0.0,0.0,-6.3079,0.0,0.0,0.0,0.0,0.0,-6.4485,-6.5024,-6.5024,-6.5024,-6.535,-6.6704,-6.5474,-6.5218,-6.9891,-6.9742,-6.946,-7.2174,-7.2165,-7.1383,-7.0508,-7.1523,0.0,-7.1982,0.0,0.0,0.0,0.0,0.0,0.0,0.0,0.0,0.0,0.0,0.0,0.0,0.0,0.0,0.0,0.0,0.0,0.0,0.0,0.0,-7.274,-7.1175,-7.1077,-7.2584,-7.0905,-6.9046,-6.7089,-6.8071,-6.7359,-6.5258,-6.4705,-6.4178,-6.3701,-6.3676,-6.335,-6.2822,-6.2822,-6.2822,-6.2822,-6.2822,-6.2822,-6.2822,0.0,0.0,0.0,0.0,0.0,0.0,0.0,0.0,0.0,0.0,0.0,0.0,0.0,0.0,0.0,0.0,0.0,0.0,-5.1229,-5.1828,-5.2187,-5.2187,-5.3473,-5.4491,-5.5059,-5.7453,-6.0431,-6.4132,-6.406,-6.3438,-6.2361,-6.1523,-6.0864,-6.0416,-6.0685,-6.1194,-6.1792,-6.1792,-6.2061,-6.251,-6.272,-6.278,-6.278,0.0,0.0,0.0,0.0,0.0,0.0,0.0,0.0,0.0,0.0,0.0,0.0,-6.3617,-6.4156,-6.4814,-6.3917,-6.5054,-6.6732,-6.8057,-6.9286,-7.051,-7.2039,-6.9856,-6.9064,-7.4762,-7.5408,-7.4796,-7.4115,-7.5405,0.0,-7.4742,0.0,0.0,0.0,0.0,0.0,0.0,0.0,0.0,0.0,0.0,0.0,0.0,0.0,0.0,0.0,0.0,0.0,0.0,0.0,0.0,-7.2138,-7.3566,-7.348,-7.2065,-7.3289,-7.2256,-6.9163,-6.9075,-6.7722,-6.5258,-6.4705,-6.4178,-6.3651,-6.3249,-6.2973,-6.2797,-6.2395,-6.2245,-6.2195,-6.1818,-6.1667,-6.1667,0.0,0.0,0.0,0.0,0.0,0.0,0.0,0.0,0.0,0.0,-5.1947,-5.2097,0.0,0.0,0.0,0.0,0.0,0.0,0.0,-5.1738,-5.2037,-5.2576,-5.3623,-5.482,-5.6137,-5.8231,-6.0685,-6.3468,-6.3318,-6.257,-6.1313,-6.1702,-6.1523,-6.0954,-6.2391,-6.2989,-6.2869,-6.3139,-6.3199,-6.3079,-6.3079,-6.3079,-6.3079,0.0,0.0,0.0,0.0,0.0,0.0,0.0,0.0,0.0,0.0,0.0,0.0,-6.3588,-6.4006,-6.4575,-6.4632,-6.5831,-6.7608,-7.0297,-7.1827,-7.3032,-7.4098,-7.2641,-7.2699,-7.8453,-7.9285,-7.8835,-7.8057,-7.8916,0.0,0.0,0.0,0.0,0.0,0.0,0.0,0.0,0.0,0.0,0.0,0.0,0.0,0.0,0.0,0.0,0.0,0.0,0.0,0.0,0.0,0.0,-7.2204,-7.4159,-7.4554,-7.3295,-7.4613,-7.3914,-7.1492,-7.0097,-6.7762,-6.463,-6.4053,-6.3626,-6.3324,-6.2973,-6.2697,-6.2496,-6.237,-6.2069,-6.1667,-6.1542,-6.1366,-6.119,0.0,0.0,0.0,0.0,0.0,0.0,0.0,0.0,0.0,0.0,-5.2247,-5.2067,0.0,0.0,0.0,0.0,0.0,0.0,0.0,0.0,-5.1858,-5.3025,-5.3982,-5.5957,-5.9129,-6.0326,-6.0954,-6.1014,-6.1672,-6.1373,-6.0206,-6.2091,-6.269,-6.2301,-6.4725,-6.5144,-6.4036,-6.4605,-6.4097,-6.2875,-6.2875,-6.2875,-6.2875,-6.2875,0.0,0.0,0.0,0.0,0.0,0.0,0.0,0.0,-6.3079,-6.3169,-6.3348,-6.3767,-6.4036,-6.4544,-6.6402,-6.7063,-6.8303,-7.2861,-7.3642,-7.3945,-7.6651,-7.7552,-7.8819,-8.2434,0.0,-8.3018,-8.1944,-8.2114,0.0,0.0,0.0,0.0,0.0,0.0,0.0,0.0,0.0,0.0,0.0,0.0,0.0,0.0,0.0,0.0,0.0,0.0,0.0,0.0,0.0,0.0,-7.2633,-7.3869,-7.48,0.0,-7.4954,-7.4394,-7.3523,-7.0986,-6.761,-6.3651,-6.3023,-6.2747,-6.2747,-6.2697,-6.2395,-6.1969,-6.2421,-6.1994,-6.1165,-6.1617,-6.1441,-6.0964,0.0,0.0,0.0,0.0,0.0,0.0,0.0,0.0,0.0,0.0,0.0,0.0,0.0,0.0,0.0,0.0,0.0,0.0,0.0,0.0,-5.2127,-5.2396,-5.5029,-5.7543,-5.9817,-5.9668,-5.9787,-6.0296,-6.0984,-6.1194,-6.0924,-6.1882,-6.251,-6.2899,-6.3977,-6.4276,-6.3977,-6.3647,-6.2558,-6.105,-6.105,-6.105,-6.105,-6.105,-6.191,0.0,0.0,0.0,0.0,0.0,0.0,0.0,-6.3079,-6.3767,-6.4425,-6.3528,-6.4366,-6.5682,-6.612,-6.7393,0.0,-7.3677,-7.6326,-7.8925,-8.2807,-8.2767,-8.206,-8.2595,-8.4145,-8.5,-8.3798,0.0,0.0,0.0,0.0,0.0,0.0,0.0,0.0,0.0,0.0,0.0,0.0,0.0,0.0,0.0,0.0,0.0,0.0,0.0,0.0,0.0,0.0,-7.5467,-7.2968,-7.6148,-7.6736,0.0,-7.5331,-7.4714,-7.2992,-7.1266,-6.8011,-6.3626,-6.2621,-6.2195,-6.2144,-6.1718,-6.1466,-6.1341,-6.0989,-6.0713,-6.0462,-6.0161,-5.9709,-5.9307,0.0,0.0,0.0,0.0,0.0,0.0,0.0,0.0,0.0,0.0,0.0,0.0,0.0,0.0,0.0,0.0,0.0,0.0,0.0,0.0,-5.2755,-5.4042,-5.6645,-5.853,-5.9608,-5.9578,-5.9578,-5.9608,-5.9967,-6.0326,-6.0655,-6.1642,-6.245,-6.3139,-6.4395,-6.4159,-6.2791,-6.2791,-6.1449,-5.9352,-6.0176,-6.048,-6.06,-6.1437,-6.2292,-6.3079,-6.3079,0.0,0.0,0.0,0.0,0.0,0.0,0.0,-6.4006,-6.3617,-6.4246,-6.5353,-6.7001,0.0,0.0,-7.6434,0.0,-8.1673,-8.4576,-8.4546,-8.3815,-8.3582,-8.5302,-8.6386,0.0,0.0,0.0,0.0,0.0,0.0,0.0,0.0,0.0,0.0,0.0,0.0,0.0,0.0,0.0,0.0,0.0,0.0,0.0,0.0,0.0,0.0,-7.5682,-7.5678,-7.376,-7.6447,-7.6973,-7.5186,-7.5695,-7.4491,-7.187,-6.9475,-6.6897,-6.4203,-6.2729,-6.1843,-6.1592,-6.1291,-6.0864,-6.0387,-6.0638,-6.0085,-5.9182,-5.9408,-5.9006,-5.8403,0.0,0.0,0.0,0.0,0.0,0.0,0.0,0.0,0.0,0.0,0.0,0.0,0.0,0.0,0.0,0.0,0.0,0.0,0.0,0.0,0.0,-5.6406,-5.8082,-5.9099,-5.9458,-5.9877,-5.9817,-5.9279,-5.9159,-5.9548,-6.0446,-6.1583,-6.251,-6.3318,-6.4606,-6.382,-6.1488,-6.1643,-6.025,-5.8131,-5.9475,-6.0237,-6.0661,-6.2086,-6.2817,-6.3079,-6.3079,-6.3079,-6.3079,-6.3079,0.0,0.0,0.0,0.0,-6.3169,-6.3677,-6.3917,-6.4663,-6.7517,0.0,-7.2907,-7.8923,-8.1463,0.0,-8.3778,-8.408,-8.4198,-8.4031,-8.5802,0.0,0.0,0.0,0.0,0.0,0.0,0.0,0.0,0.0,0.0,0.0,0.0,0.0,0.0,0.0,0.0,0.0,0.0,0.0,0.0,0.0,-7.4647,-7.379,-7.504,-7.5397,-7.4761,-7.6023,-7.6365,-7.5736,-7.5617,-7.401,-7.1143,-6.7934,-6.5882,-6.4763,-6.2941,-6.171,-6.0889,-6.0788,-6.0161,-5.9307,-6.0236,-5.9508,-5.8001,-5.8905,-5.8654,-5.7976,0.0,0.0,0.0,0.0,0.0,0.0,0.0,0.0,0.0,0.0,-5.2217,-5.2486,0.0,0.0,0.0,0.0,0.0,0.0,-5.2276,0.0,0.0,-5.7752,-5.8112,-5.9069,-6.0805,-6.0356,-6.0057,-5.9967,-5.9368,-6.0027,-6.1822,-6.2002,-6.272,-6.3828,-6.2637,-6.1877,-6.1369,-5.9458,-5.8333,-5.8005,-5.8257,-5.9166,-6.054,-6.075,-6.1762,-6.3079,-6.3079,-6.3079,-6.3079,-6.3079,-6.3079,0.0,0.0,0.0,-6.3079,-6.3169,-6.3588,-6.4216,0.0,0.0,-7.4411,0.0,-8.0057,-8.1062,0.0,0.0,-8.2047,0.0,0.0,0.0,0.0,0.0,0.0,0.0,0.0,0.0,0.0,0.0,0.0,0.0,0.0,0.0,0.0,0.0,0.0,0.0,0.0,0.0,0.0,-7.5239,-7.5681,-7.6247,-7.6516,-7.6331,-7.5706,-7.5926,-7.5677,-7.5018,-7.442,-7.3626,-7.2544,-7.0325,-6.7478,-6.4054,-6.3352,-6.1761,-5.9684,-5.9232,-5.8679,-5.8127,-5.8278,-5.8152,-5.7926,-5.8052,-5.8027,-5.7976,0.0,0.0,0.0,0.0,0.0,0.0,0.0,0.0,0.0,0.0,0.0,-5.2725,0.0,0.0,0.0,-5.1259,-5.1229,-5.1648,-5.2665,-5.4371,-5.5987,-5.7483,-5.8261,-5.9069,-5.9967,-6.0057,-5.9907,-5.9548,-5.9249,-6.0146,-6.2121,-6.248,-6.3348,-6.4486,-6.2395,-6.0965,-6.0005,-5.857,-5.7432,-5.6699,-5.8606,-5.9843,-6.06,-6.1585,-6.2409,-6.3079,-6.3079,-6.3079,-6.3079,-6.3079,-6.3079,-6.3079,-6.3079,0.0,0.0,0.0,-6.3524,-6.4599,-6.7547,-7.1063,-7.4687,0.0,-7.9263,-7.9869,-8.0641,0.0,0.0,0.0,0.0,0.0,0.0,0.0,0.0,0.0,0.0,0.0,0.0,0.0,0.0,0.0,0.0,0.0,0.0,0.0,0.0,0.0,0.0,0.0,-7.45,-7.5612,-7.6276,-7.6265,-7.5946,-7.5437,-7.4779,-7.442,-7.4091,-7.3762,-7.3492,-7.2984,-7.2325,-7.1398,-6.9304,-6.6231,-6.4827,-6.2698,-6.0134,-5.9827,-5.8823,-5.7449,-5.7775,-5.7499,-5.7022,-5.765,-5.77,-5.7549,0.0,0.0,0.0,0.0,0.0,0.0,0.0,0.0,0.0,0.0,0.0,0.0,0.0,0.0,0.0,0.0,-5.1379,-5.1947,-5.3114,-5.473,-5.5957,-5.6585,-5.7902,-5.868,-5.886,-5.9488,-5.9608,-5.9099,-5.9279,-6.0446,-6.26,-6.3258,-6.4455,-6.5921,-6.3214,-6.1297,-6.0074,-5.8812,-5.7944,-5.7646,-5.9673,-6.075,-6.1318,-6.2613,-6.3079,-6.3079,-6.3079,-6.3079,-6.3079,-6.3079,-6.3079,-6.3079,-6.3079,-6.3079,0.0,0.0,0.0,-6.4445,0.0,0.0,-7.2985,-7.6431,-7.7575,-7.8214,0.0,0.0,0.0,0.0,0.0,0.0,0.0,0.0,0.0,0.0,0.0,0.0,0.0,0.0,0.0,0.0,0.0,0.0,0.0,0.0,0.0,0.0,0.0,0.0,-7.4271,-7.5768,-7.6215,-7.5437,-7.4899,-7.43,-7.3642,-7.3163,-7.2834,-7.2654,-7.2654,-7.2206,-7.1398,-7.1398,-7.017,-6.7957,-6.6352,-6.3543,-6.0177,-6.0335,-5.8911,-5.6671,-5.7248,-5.6947,-5.6319,-5.7323,-5.7499,-5.7399,0.0,0.0,0.0,0.0,0.0,0.0,0.0,0.0,0.0,0.0,0.0,-5.2486,-5.3054,-5.2576,-5.1947,-5.1289,-5.1798,-5.2456,-5.3144,-5.3892,-5.461,-5.5269,-5.6526,0.0,-5.8171,-5.883,-5.9129,-5.9099,-5.9727,-6.1373,-6.3917,-6.4605,-6.6311,-6.8642,-6.5027,-6.3336,-6.3095,-6.0194,-6.0554,-6.2917,-6.1228,-6.1525,-6.2933,-6.3079,-6.3079,-6.3079,-6.3079,-6.3079,-6.3079,-6.3079,-6.3079,-6.3079,-6.3079,-6.3079,-6.3079,0.0,0.0,0.0,0.0,-6.6812,0.0,-7.2248,0.0,0.0,0.0,0.0,0.0,0.0,0.0,0.0,0.0,0.0,0.0,0.0,0.0,0.0,0.0,0.0,0.0,0.0,0.0,0.0,0.0,0.0,0.0,0.0,0.0,0.0,-7.5837,-7.5876,-7.5347,-7.4031,-7.3971,-7.3642,-7.2984,-7.2924,-7.2595,-7.1936,-7.1936,-7.1278,-7.0081,-7.0081,-6.9363,-6.7978,-6.7268,-6.3954,-5.9035,-5.9518,-5.8083,-5.5541,-5.6093,-5.6269,-5.6294,-5.6872,-5.7399,-5.7926,0.0,0.0,0.0,0.0,0.0,0.0,0.0,0.0,0.0,0.0,0.0,0.0,0.0,-5.2336,-5.1947,-5.1289,-5.2606,-5.3952,-5.5029,-5.5688,-5.6376,-5.7034,-5.7513,-5.8082,-5.874,-5.8979,-5.9099,-5.9099,-5.9338,-6.0595,-6.281,-6.3468,-6.4725,-6.6369,-6.4414,-6.3486,-6.3371,-6.096,-6.0594,-6.1582,-6.1997,-6.2555,-6.3079,-6.3079,-6.3079,-6.3079,-6.3079,-6.3079,-6.3139,-6.3528,-6.3408,-6.3139,-6.3558,-6.3408,-6.3079,-6.3079,-6.2931,-6.3196,0.0,0.0,0.0,-7.0284,-7.2358,0.0,0.0,0.0,0.0,0.0,0.0,0.0,0.0,0.0,0.0,0.0,0.0,0.0,0.0,0.0,0.0,0.0,0.0,0.0,0.0,0.0,0.0,0.0,0.0,0.0,-7.5288,-7.4839,-7.439,-7.3911,-7.3073,-7.2116,-7.1038,-7.1038,-7.0679,-7.0021,-7.0021,-6.9782,-6.9333,-6.8884,-6.8196,-6.7296,-6.5921,-6.332,-6.0077,-5.9846,-5.7874,-5.4913,-5.5465,-5.5691,-5.5842,-5.7123,-5.7725,-5.8027,0.0,0.0,0.0,0.0,0.0,0.0,0.0,0.0,-5.2127,-5.2785,0.0,0.0,0.0,0.0,-5.2785,-5.2576,-5.3773,-5.4999,-5.6158,-5.6555,-5.7004,-5.7453,-5.7902,-5.8321,-5.877,-5.9219,-5.9338,-5.9099,-5.9338,-6.0356,-6.2121,-6.278,-6.3887,-6.5293,-6.4146,-6.4184,-6.4886,-6.3071,-6.2458,-6.2725,-6.297,-6.3079,-6.3139,-6.3797,-6.3767,-6.3438,-6.3887,-6.3535,-6.2884,-6.3502,-6.3177,-6.2647,-6.3442,-6.3408,-6.3079,-6.3079,-6.3079,-6.3344,-6.4704,-6.518,0.0,0.0,0.0,0.0,0.0,0.0,0.0,0.0,0.0,0.0,0.0,0.0,0.0,0.0,0.0,0.0,0.0,0.0,0.0,0.0,0.0,0.0,0.0,0.0,0.0,0.0,0.0,0.0,-7.4899,-7.424,-7.3582,-7.2924,-7.1816,-7.0739,-6.9662,-6.9423,-6.9093,-6.8645,-6.8435,-6.8226,-6.7986,-6.7537,-6.6693,-6.5394,-6.398,-6.2182,-6.0169,-5.9511,-5.7308,-5.4336,-5.5089,-5.539,-5.5591,-5.7273,-5.7901,-5.8052,0.0,0.0,0.0,0.0,0.0,0.0,0.0,0.0,-5.3414,-5.4102,0.0,0.0,0.0,0.0,0.0,-5.5209,-5.5269,-5.5568,-5.6226,-5.6308,-5.6256,-5.6205,-5.7401,-5.8035,-5.8035,-5.9344,-5.9673,-5.9069,-5.9727,-6.0715,-6.2032,-6.266,-6.4006,-6.5832,-6.4575,-6.5413,-6.7747,-6.643,-6.6281,-6.67,-6.4096,-6.3109,-6.3378,-6.5233,-6.5144,-6.4216,-6.5533,-6.4411,-6.2418,-6.3061,-6.2351,-6.1527,-6.2705,-6.3079,-6.3079,-6.3079,-6.3079,-6.3079,0.0,0.0,0.0,0.0,0.0,0.0,0.0,0.0,0.0,0.0,0.0,0.0,0.0,0.0,0.0,0.0,0.0,0.0,0.0,0.0,0.0,0.0,0.0,0.0,0.0,0.0,0.0,0.0,0.0,-7.4839,-7.4809,-7.418,-7.2894,-7.0949,-7.026,-6.9602,-6.8944,-6.8256,-6.7897,-6.7867,-6.7238,-6.661,-6.5981,-6.5891,-6.4624,-6.2414,-6.1656,-6.0438,-5.8843,-5.8226,-5.6314,-5.3808,-5.4938,-5.5365,-5.5591,-5.7273,-5.7901,-5.8052,0.0,0.0,0.0,0.0,0.0,-5.3623,-5.4132,-5.3623,-5.3264,0.0,0.0,0.0,-5.3533,-5.4341,-5.5568,-5.7184,-5.7304,-5.7603,-5.8231,-5.8291,-5.7778,-5.6598,-5.6919,-5.7122,-5.7122,-5.7472,-5.7856,-5.8411,-5.859,-5.9099,-5.9937,-6.0116,-6.1283,-6.3199,-6.3737,-6.4156,-6.4336,-6.3019,-6.3677,-6.5383,-6.3228,-6.3498,-6.5114,-6.4216,-6.4545,-6.5443,-6.5353,-6.4526,-6.3919,-6.5969,-6.4526,-6.2072,-6.2853,-6.3079,-6.3079,-6.3079,-6.3079,-6.3079,-6.3079,0.0,0.0,0.0,0.0,0.0,0.0,0.0,0.0,0.0,0.0,0.0,0.0,0.0,0.0,0.0,0.0,0.0,0.0,0.0,0.0,0.0,0.0,0.0,0.0,0.0,0.0,0.0,-7.418,-7.3941,-7.3492,-7.2355,-7.1278,-7.026,-6.9123,-6.8196,-6.7567,-6.6879,-6.6311,-6.5832,-6.5652,-6.5473,-6.5233,-6.3495,-6.2412,-6.1656,-5.8907,-5.7243,-5.6382,-5.62,-5.5158,-5.3783,-5.4511,-5.5039,-5.5591,-5.7273,-5.7901,-5.8052,0.0,0.0,0.0,0.0,0.0,-5.4551,-5.497,-5.47,-5.4521,0.0,0.0,0.0,-5.5239,-5.6436,-5.7573,-5.8471,-5.877,-5.8679,-5.8136,-5.8081,-5.7384,-5.5791,-5.5734,-5.6136,-5.711,-5.711,-5.7584,-5.853,-5.8261,-5.8171,-5.8261,-5.856,-5.9458,-6.0864,-6.1613,-6.2061,-6.2151,-6.0535,-6.1553,-6.4126,-6.2959,-6.3737,-6.5562,-6.5233,-6.5832,-6.6849,-6.7029,-6.6353,-6.5629,-6.7097,-6.5697,-6.3373,-6.3176,-6.3079,-6.3079,-6.3079,-6.3079,-6.3079,-6.3079,-6.3079,-6.3314,-6.4141,0.0,0.0,-6.6422,-6.6487,0.0,0.0,0.0,0.0,0.0,0.0,0.0,0.0,0.0,0.0,0.0,0.0,0.0,0.0,0.0,0.0,0.0,0.0,0.0,0.0,-7.3642,-7.3073,-7.2116,-7.1098,-6.9961,-6.8764,-6.7956,-6.7119,-6.6191,-6.5503,-6.4964,-6.4605,-6.3594,-6.3088,-6.3088,-6.0983,-5.9667,-5.882,-5.6781,-5.5296,-5.4366,-5.4366,-5.4117,-5.3783,-5.4587,-5.5114,-5.5591,-5.7273,-5.7901,-5.8052,0.0,0.0,-5.5209,-5.5299,-5.5777,-5.6278,-5.6376,-5.6368,-5.6526,0.0,-5.6825,-5.7034,-5.8411,-5.9548,-5.9967,-5.9368,-5.9682,-5.9044,-5.6821,-5.6479,-5.5649,-5.4208,-5.4094,-5.5113,-5.7311,-5.7311,-5.7852,-5.9009,-5.8411,-5.7812,-5.7214,-5.7752,-5.8351,-5.9009,-5.9009,-5.9608,-6.0565,-5.9099,-6.0116,-6.275,-6.2899,-6.3917,-6.5533,-6.7059,-6.7867,-6.8315,-6.9393,-6.872,-6.7235,-6.6656,-6.5854,-6.4725,-6.3204,-6.2667,-6.2607,-6.2519,-6.2519,-6.2519,-6.2519,-6.2637,-6.3166,-6.4913,-6.4201,0.0,-6.6557,-6.5162,0.0,0.0,0.0,0.0,0.0,0.0,0.0,0.0,0.0,0.0,0.0,0.0,0.0,0.0,0.0,0.0,0.0,0.0,-7.3791,-7.3582,-7.2894,-7.1966,-7.0769,-7.0021,-6.8824,-6.7059,-6.6759,-6.6101,-6.4934,-6.4246,-6.3828,-6.3564,-6.152,-6.0419,-6.0176,-5.8481,-5.6828,-5.5419,-5.5221,-5.4299,-5.2929,-5.298,-5.3281,-5.3808,-5.4888,-5.534,-5.5591,-5.7273,-5.7901,-5.8052,0.0,-5.5179,-5.5359,-5.5897,-5.6077,-5.6526,-5.7573,-5.7274,-5.7334,-5.856,-5.862,-5.9249,-6.1104,-6.1074,-6.0864,-6.0745,-5.9646,-5.8292,-5.6793,-5.508,-5.3598,-5.249,-5.2063,-5.2815,-5.4967,-5.5054,-5.608,-5.8321,-5.8171,-5.8052,-5.7932,-5.7483,-5.7663,-5.8321,-5.8321,-5.8141,-5.7992,-5.9787,-6.0595,-6.0775,-6.1852,-6.4336,-6.7268,-6.6071,-6.7268,-6.9482,-6.8645,-6.7859,-6.6768,-6.4071,-6.4139,-6.4624,-6.1321,-5.9974,-5.9538,-5.9131,-5.9015,-5.9015,-5.9015,-5.9654,-6.0469,-6.1374,-6.2372,0.0,-6.2127,-6.1955,-6.1408,0.0,0.0,0.0,0.0,0.0,0.0,0.0,0.0,0.0,0.0,0.0,0.0,0.0,0.0,0.0,0.0,0.0,-7.3223,-7.1607,-7.041,-6.9662,-6.9393,-6.8226,-6.7388,-6.6999,-6.5413,-6.4455,-6.4216,-6.3558,-6.2587,-6.1164,-6.0718,-5.9782,-5.8446,-5.6699,-5.5748,-5.5287,-5.3987,-5.3179,-5.2955,-5.3381,-5.3607,-5.3758,-5.4461,-5.4988,-5.5591,-5.7273,-5.7901,-5.8052,-5.5119,-5.5179,-5.5388,-5.6047,-5.6436,-5.7064,-5.8411,-5.8321,-5.859,-5.9937,-6.0386,-6.0984,-6.2002,-6.1792,-6.1151,-5.9997,-5.8871,-5.7135,-5.4533,-5.337,-5.209,-5.0477,-5.0415,-5.1698,-5.4359,-5.4386,-5.5623,-5.8112,0.0,0.0,-5.6645,-5.6645,-5.6645,-5.6675,-5.7004,-5.7124,-5.7184,-5.853,-5.9697,-6.0715,-6.2061,-6.4366,-6.6879,-6.5892,-6.7388,-6.9842,-6.8854,-6.7918,-6.6739,-6.4207,-6.399,-6.4099,-6.0648,-5.9963,-6.0268,-5.9127,-5.8772,-5.8653,-5.8123,-5.8388,-5.909,-6.0207,-6.0558,0.0,0.0,-5.9414,-5.8081,0.0,0.0,0.0,0.0,0.0,0.0,0.0,0.0,0.0,0.0,0.0,0.0,0.0,0.0,0.0,0.0,0.0,-7.1727,-7.0081,-6.8734,-6.7986,-6.7986,-6.6729,-6.5862,-6.5503,-6.4515,-6.3857,-6.3528,-6.2381,-6.1377,-6.048,-5.8765,-5.7505,-5.6634,-5.4942,-5.4164,-5.4122,-5.3222,-5.308,-5.3306,-5.3306,-5.3457,-5.3783,-5.4637,-5.5139,-5.5591,-5.7273,-5.7901,-5.8052,-5.4999,-5.5089,-5.5388,-5.6047,-5.6795,-5.7752,-5.9099,-5.9398,-5.9937,-6.1134,-6.1882,-6.2157,-6.184,-6.1783,-6.0968,-5.8858,-5.7615,-5.5691,-5.2677,-5.1757,-5.0592,-4.885,-4.9088,-5.0805,-5.4059,-5.4086,-5.531,-5.7932,0.0,0.0,0.0,-5.5987,-5.5897,-5.5388,-5.5658,-5.6286,-5.7094,-5.7094,-5.865,-6.1224,0.0,-6.4066,-6.5832,-6.5951,-6.7508,-6.9512,-6.9004,-6.8012,-6.6698,-6.4907,-6.3903,-6.2995,-6.0171,-6.0107,-6.0836,-5.9326,-5.8973,-5.8769,-5.7805,-5.7821,-5.8473,-5.9807,-5.9445,-5.8969,0.0,0.0,0.0,0.0,0.0,0.0,0.0,0.0,0.0,0.0,0.0,0.0,0.0,0.0,0.0,0.0,0.0,0.0,0.0,0.0,-6.9722,-6.8704,-6.7358,-6.661,-6.661,-6.5473,-6.4575,-6.4006,-6.3887,-6.3441,-6.2613,-6.1198,-6.0176,-5.9475,-5.6736,-5.5247,-5.4849,-5.3495,-5.2929,-5.2929,-5.2929,-5.3181,-5.3507,-5.3105,-5.3231,-5.3808,-5.4838,-5.5239,-5.544,-5.7123,-5.7801,-5.8052,-5.4311,-5.479,-5.5388,-5.6047,-5.7184,-5.8441,-5.9757,-6.0505,-6.1134,-6.1882,-6.257,-6.2378,-6.0814,-6.0694,-6.0141,-5.8757,-5.5943,-5.423,-5.422,-5.1049,-4.9065,-4.885,-4.8335,-4.955,-5.2644,-5.2701,-5.4175,-5.7214,-5.7124,0.0,0.0,0.0,-5.6188,-5.6068,-5.491,-5.5418,-5.7094,-5.7094,-5.865,0.0,-6.1912,-6.3378,0.0,-6.5772,-6.6939,-6.8196,-6.8106,-6.739,-6.6067,0.0,-6.2375,-6.077,-5.8743,-5.7874,-5.744,-5.6746,-5.6601,-5.6421,-5.5864,-5.7161,-5.8711,-5.8901,-6.0082,-6.1018,-6.0629,0.0,-5.912,-5.7943,0.0,0.0,0.0,0.0,0.0,0.0,0.0,0.0,0.0,0.0,0.0,0.0,0.0,0.0,0.0,0.0,0.0,-6.7238,-6.5981,-6.5263,-6.5263,-6.4545,-6.4066,-6.4006,-6.3468,-6.2439,-6.081,-6.06,-5.8952,-5.5984,-5.5617,-5.4608,-5.3179,-5.2998,-5.2929,-5.2929,-5.2929,-5.2955,-5.3005,-5.2955,-5.3231,-5.3758,-5.4411,-5.4662,-5.4863,-5.652,-5.7449,-5.8001,-5.428,-5.4999,-5.5269,-5.5568,-5.6376,-5.7423,-5.874,-6.0505,-6.1792,-6.2061,-6.1819,-6.155,-6.1516,-5.9962,-5.859,-5.7823,-5.5536,-5.3752,-5.2679,-5.0785,-4.959,-4.9264,-4.991,-5.0725,-5.1713,-5.3464,-5.4677,-5.5254,-5.6162,0.0,0.0,0.0,0.0,-5.5598,-5.5418,-5.5987,-5.7154,-5.7932,-5.9129,0.0,0.0,-6.26,0.0,-6.4455,-6.4841,-6.4839,-6.5283,-6.3966,-6.1808,0.0,-6.0188,0.0,-5.8311,-5.8396,-5.8677,-5.7531,-5.697,-5.6501,-5.5608,-5.6827,-5.8471,-5.8706,-5.9712,-6.058,-6.051,-5.9632,-5.8675,-5.8084,0.0,0.0,0.0,0.0,0.0,0.0,-6.303,0.0,0.0,0.0,0.0,0.0,0.0,0.0,0.0,0.0,0.0,0.0,0.0,-6.4425,-6.4425,-6.3827,-6.3,-6.2025,-6.1702,-6.075,-5.9042,-5.8013,-5.6801,-5.5419,-5.4433,-5.3538,-5.2929,-5.2929,-5.2929,-5.2929,-5.2929,-5.3105,-5.3381,-5.3381,-5.3708,-5.426,-5.4813,-5.5039,-5.5239,-5.6922,-5.77,-5.8027,-5.3965,-5.4442,-5.4535,-5.5099,-5.5718,-5.6735,-5.8411,-5.9934,-6.0988,-6.1343,-6.0349,-5.991,-6.0694,-5.9008,-5.7784,-5.7598,-5.5959,-5.4277,-5.2722,-5.1523,-5.0741,-5.0525,-5.1471,-5.2109,-5.223,-5.4403,-5.514,-5.4293,-5.5375,-5.5748,0.0,0.0,0.0,-5.5209,-5.5867,-5.6615,-5.7453,0.0,-5.9787,-6.0984,-6.1762,-6.1953,-6.1788,-6.2883,-6.2992,-6.2496,-6.2721,-6.1024,-5.8683,-5.8724,-5.8915,0.0,-5.8507,-5.9119,-5.9763,-5.8313,-5.7665,-5.7221,-5.5991,0.0,-5.8878,-5.8956,-5.9589,-6.0323,-6.1015,-6.0181,-5.9276,-5.9392,-5.9683,0.0,0.0,0.0,-6.1491,-6.2225,0.0,-6.1785,0.0,0.0,0.0,0.0,0.0,0.0,0.0,0.0,0.0,0.0,-6.3707,0.0,-6.3468,-6.3049,-6.2114,-6.054,-6.048,-5.9475,-5.7277,-5.601,-5.5181,-5.4675,-5.3495,-5.2929,-5.2929,-5.2929,-5.2929,-5.2929,-5.2929,-5.313,-5.3482,-5.3482,-5.3909,-5.4612,-5.5013,-5.534,-5.5767,-5.7148,-5.765,-5.7801,-5.29,-5.2526,-5.2739,-5.4857,-5.5718,-5.7086,-5.9638,-5.8771,-5.8292,-5.9445,-5.8264,-5.7305,-5.7274,-5.7663,-5.8082,-5.8605,-5.7121,-5.6141,-5.6068,-5.3532,-5.2323,-5.2849,-5.2341,-5.2919,-5.4728,-5.4864,-5.4988,-5.5158,-5.5209,-5.5538,0.0,0.0,-5.5179,-5.5209,-5.5867,-5.6885,-5.8141,-5.883,-6.0595,-6.2929,-6.2331,-6.1496,-6.0658,0.0,-6.1986,-6.2371,-6.1277,0.0,0.0,-5.9976,-5.9424,0.0,0.0,0.0,0.0,0.0,0.0,0.0,0.0,0.0,0.0,-5.9697,0.0,0.0,0.0,0.0,-6.249,-6.2872,-6.3905,-6.4438,-6.3196,-6.3019,-6.3049,-6.3049,-6.3079,0.0,0.0,0.0,0.0,0.0,0.0,0.0,0.0,0.0,0.0,0.0,-6.1942,0.0,-6.2121,-6.2151,-6.1641,-6.0511,-6.048,-5.889,-5.5551,-5.5419,-5.4608,-5.2998,-5.2929,-5.2929,-5.2929,-5.2929,-5.2929,-5.2929,-5.2929,-5.2929,-5.2955,-5.2955,-5.3582,-5.4561,-5.4658,-5.5239,-5.6244,-5.6846,-5.7072,-5.7148,-5.2501,-5.1623,-5.136,-5.406,-5.4318,-5.4313,-5.4995,-5.5644,-5.6777,-5.8697,-5.7932,-5.7943,-6.0184,-5.923,-5.8804,-5.9659,-5.8604,-5.7399,-5.6294,-5.5714,-5.5147,-5.4601,-5.5792,-5.6251,-5.583,-5.704,-5.7021,-5.5625,-5.5812,-5.6166,0.0,-5.5688,-5.5628,-5.6466,-5.6675,-5.7274,0.0,0.0,0.0,0.0,0.0,-6.018,-5.9942,0.0,0.0,-5.7775,-5.7339,-5.6621,0.0,-5.686,-5.7207,-5.7527,-5.8591,-5.8719,-5.844,-5.844,-5.805,0.0,0.0,0.0,-6.052,-6.0262,0.0,0.0,0.0,0.0,0.0,0.0,-6.3385,-6.3196,-6.1668,-6.1374,-6.1374,-6.1374,-6.0061,-5.9423,0.0,0.0,0.0,0.0,0.0,0.0,0.0,0.0,0.0,-6.1792,-6.0535,-6.0475,0.0,-6.0614,-5.9414,-5.8828,-5.7724,-5.6076,-5.3742,-5.3742,-5.3495,-5.2929,-5.2929,-5.2929,-5.2929,-5.2929,-5.2929,-5.2929,-5.2929,-5.2929,-5.298,-5.3708,-5.4235,-5.4637,-5.5365,-5.5892,-5.6269,-5.6821,-5.7022,-5.7123,-5.0989,-5.0683,-5.0677,-5.2619,-5.2718,-5.2512,-5.2513,-5.3904,-5.5627,-5.7543,-5.7372,-5.8109,-6.0855,-6.0023,-5.9734,-6.0814,-6.0111,-5.9085,-5.7801,-5.7964,-5.7671,-5.6647,-5.862,-5.9028,-5.743,-5.8349,-5.8173,-5.6673,-5.6231,-5.6509,-5.7423,-5.6137,-5.5867,-5.6436,-5.6885,-5.7214,-5.7603,-6.0057,-6.0618,0.0,0.0,-5.8592,0.0,0.0,-5.7587,-5.5893,0.0,-5.4594,-5.4446,-5.5375,-5.6051,-5.6645,-5.7698,-5.7843,-5.7531,-5.7545,-5.7298,-5.6985,-5.6985,-5.8315,0.0,-5.962,-6.1052,0.0,-6.249,0.0,-6.2966,0.0,0.0,-6.2293,-6.0501,-5.9855,-5.9825,-6.0356,-5.9035,-5.8378,0.0,-5.8456,0.0,0.0,0.0,0.0,0.0,0.0,-6.0655,-6.0416,-5.9159,-5.8912,0.0,0.0,-5.7768,-5.6795,-5.5904,-5.4608,-5.2929,-5.2929,-5.2929,-5.2929,-5.2929,-5.2929,-5.2929,-5.2929,-5.2929,-5.2929,-5.2929,-5.303,-5.3256,-5.3959,-5.4486,-5.4938,-5.5641,-5.6043,-5.6269,-5.6821,-5.6922,-5.6771,-4.8579,-4.9565,-5.0491,-5.0491,-5.107,-5.1675,-5.2223,-5.3361,-5.4629,-5.5981,-5.6724,-5.7801,-5.9483,-6.0136,-6.0864,-6.1943,-6.1542,-6.1016,-6.0425,-6.0124,-5.9632,-5.8943,-6.0677,-6.0969,-5.9523,-5.8834,-5.8348,-5.8161,-5.6372,-5.6369,-5.8082,-5.6653,-5.5696,-5.5209,-5.6466,0.0,-5.6376,-5.9588,-6.0322,-5.9197,-5.8258,-5.6882,-5.5366,-5.5314,-5.5957,-5.6657,-5.4474,-5.3677,-5.3974,-5.5584,-5.5774,-5.5578,-5.6586,-5.6875,-5.6712,-5.5682,-5.6095,-5.6687,-5.5701,-5.6576,-5.7784,-5.7886,0.0,0.0,0.0,0.0,-6.2898,0.0,0.0,0.0,-5.9818,-5.8638,-5.8467,-6.0004,-5.9821,-5.9103,-5.7884,-5.5855,-5.5256,0.0,0.0,0.0,-6.0902,-6.022,-5.9478,-5.8822,-5.7511,-5.6745,0.0,0.0,0.0,-5.4652,-5.5063,-5.4474,-5.2929,-5.2929,-5.2904,-5.2879,-5.2879,-5.2879,-5.2879,-5.2879,-5.2904,-5.2929,-5.2929,-5.3206,-5.3658,-5.3683,-5.4336,-5.5315,-5.534,-5.5666,-5.6194,-5.6746,-5.662,-5.6093,-4.85,-4.7919,-4.7416,-4.7416,-4.8805,-4.987,0.0,-5.1407,-5.3495,-5.5883,-5.7772,-5.9659,-6.1743,-6.2094,-6.2295,-6.2596,-6.2119,-6.1349,-6.0353,-6.0687,-6.0838,-6.0721,-6.0792,-6.085,-6.0966,-5.9025,-5.8358,-5.9132,-5.5677,-5.5365,-5.8028,0.0,0.0,-5.4521,0.0,-5.6316,-5.6324,-5.8305,-5.8136,-5.6418,-5.6191,-5.5573,0.0,0.0,-5.425,-5.5045,-5.3646,-5.3677,-5.4345,-5.4328,-5.4838,-5.5451,-5.5739,-5.5516,-5.5228,-5.5401,-5.5332,-5.5234,-5.5357,-5.573,-5.6327,-5.7571,-5.8109,-5.8993,0.0,0.0,0.0,0.0,0.0,0.0,0.0,0.0,-5.7429,-5.7841,-5.9022,-5.9513,-5.8169,-5.6875,-5.63,-5.6824,0.0,0.0,-5.7879,-5.628,-5.4941,-5.4403,-5.3103,0.0,0.0,0.0,0.0,-5.4561,-5.3881,-5.3359,-5.2929,-5.2929,-5.2729,-5.2327,-5.2327,-5.2327,-5.2327,-5.2327,-5.2528,-5.2929,-5.2929,-5.3005,-5.3155,-5.3557,-5.3858,-5.4185,-5.4612,-5.4863,-5.5064,-5.5616,-5.5717,-5.5516,-4.725,-4.7078,-4.7004,-4.7004,-4.8753,0.0,-4.9543,-5.1172,0.0,-5.5566,-5.7976,-5.996,-6.124,-6.2245,-6.2722,-6.2496,-6.2195,-6.1609,-6.0788,-6.1565,-6.1543,-6.0303,-6.0933,-6.0794,-5.9589,-5.7987,-5.7811,-5.9067,-5.5426,-5.5027,-5.755,0.0,0.0,0.0,0.0,-5.4387,-5.3926,-5.5634,-5.597,-5.5353,-5.4608,0.0,0.0,-5.3155,-5.3306,-5.3758,-5.3155,-5.3312,-5.3822,-5.3723,-5.3957,-5.4344,-5.4555,-5.4482,-5.4257,-5.4557,-5.4666,-5.4666,-5.4934,-5.503,-5.5274,-5.6249,-5.662,-5.7356,-5.9523,-6.0193,-6.0322,0.0,0.0,0.0,0.0,0.0,-5.6583,-5.7468,-5.8784,-5.9129,-5.77,-5.648,-5.5653,-5.5616,-5.3888,0.0,0.0,-5.3486,-5.2927,-5.2318,0.0,0.0,0.0,0.0,0.0,-5.2711,-5.2641,-5.2678,-5.2929,-5.2678,-5.2402,-5.2101,-5.2101,-5.2101,-5.2126,-5.2352,-5.2628,-5.2929,-5.2929,-5.3055,-5.3281,-5.3582,-5.3858,-5.411,-5.4436,-5.4561,-5.4561,-5.4637,-5.4662,-5.4612,-4.5799,-4.6903,-4.7958,-4.7732,-4.969,0.0,0.0,-5.2402,0.0,-5.5717,0.0,-5.9935,-5.9935,-6.1617,-6.2521,-6.2044,-6.1868,-6.1545,-6.1145,-6.2048,-6.1542,-5.9157,-6.065,-6.0168,-5.7214,-5.6363,-5.6596,-5.7871,-5.4796,-5.4312,-5.6212,0.0,0.0,0.0,0.0,0.0,0.0,-5.2722,-5.4064,-5.4877,-5.3445,-5.2929,-5.2929,-5.2929,-5.2929,-5.2929,-5.2929,-5.2955,-5.3111,-5.3464,-5.3329,-5.3074,-5.3431,-5.3619,-5.3619,-5.3619,-5.4003,-5.4363,-5.4363,-5.4363,-5.4388,-5.4482,-5.4845,-5.5499,-5.6811,-5.7459,-5.7708,-5.7236,-5.6652,-5.5947,0.0,0.0,-5.5945,-5.7833,-5.8386,-5.8143,-5.6822,-5.5196,-5.4224,-5.4281,-5.1992,0.0,0.0,0.0,0.0,0.0,0.0,0.0,0.0,0.0,0.0,0.0,-5.1523,0.0,-5.2929,0.0,-5.2176,-5.2101,-5.2101,-5.2101,-5.2126,-5.2603,-5.2854,-5.2929,-5.2929,-5.3181,-5.3607,-5.3607,-5.3909,-5.4361,-5.4361,-5.4361,-5.4285,-5.3783,-5.3607,-5.3607,-4.6301,-4.7481,-4.8184,-4.6828,-4.9188,-5.1699,-5.2929,-5.534,-5.7449,-5.8629,-6.0814,-6.2245,-6.2245,-6.2195,-6.2119,-6.2019,-6.1165,-6.0594,-6.0477,-5.9819,-5.9711,-6.0289,-5.8373,-5.7268,-5.7282,-5.5229,-5.4299,-5.4629,-5.1346,-5.0492,-5.1899,0.0,0.0,0.0,0.0,0.0,-5.1196,-5.2394,0.0,-5.2725,-5.2866,-5.2929,-5.2929,-5.2929,-5.2929,-5.2929,-5.2929,-5.3193,-5.3482,-5.3167,-5.3256,-5.3525,-5.3168,-5.3048,-5.3048,-5.3048,-5.3074,-5.3193,-5.3193,-5.3193,-5.3312,-5.3764,-5.3948,-5.4587,-5.6801,-5.7379,-5.7371,-5.7249,-5.6822,-5.5838,-5.4199,0.0,0.0,0.0,0.0,0.0,-5.6076,-5.436,-5.3252,-5.3668,-5.1717,-5.0071,0.0,0.0,0.0,0.0,0.0,0.0,0.0,0.0,0.0,0.0,0.0,0.0,0.0,0.0,0.0,-5.2101,-5.2101,-5.2101,-5.2101,-5.2201,-5.2503,-5.2929,-5.2929,-5.298,-5.3055,-5.3055,-5.313,-5.3206,-5.3206,-5.3206,-5.3206,-5.3105,-5.3055,-5.3055,-4.7958,-4.8661,-4.9138,-4.8912,-5.1172,0.0,0.0,-5.7549,-5.9031,-5.8704,-5.9834,-6.0563,-6.0311,-6.1316,-6.1768,-6.119,-6.0914,-6.0512,-5.9935,-5.9408,-5.911,-5.9193,-5.7565,-5.6403,-5.5915,-5.4752,-5.3895,-5.3255,-5.0701,-4.9772,-5.0325,-4.7729,0.0,-4.6005,0.0,-4.7963,0.0,0.0,0.0,-5.2151,-5.2703,-5.2929,-5.2929,-5.2929,-5.2929,-5.2929,-5.2929,-5.3074,-5.3287,-5.2955,-5.3074,-5.3218,-5.2955,-5.2929,-5.2929,-5.2929,-5.2929,-5.2929,-5.2929,-5.2929,-5.2955,-5.3193,-5.3525,-5.4043,-5.5158,-5.5629,-5.5847,-5.5507,-5.5223,-5.4868,-5.4628,-5.4537,0.0,0.0,0.0,0.0,0.0,-5.4366,-5.3188,-5.317,-5.1562,-4.9866,-4.846,0.0,0.0,0.0,0.0,0.0,0.0,0.0,0.0,0.0,0.0,0.0,0.0,0.0,0.0,-5.2101,-5.2101,-5.2101,-5.2126,-5.2402,-5.2678,-5.2929,-5.2929,-5.2929,-5.2929,-5.2929,-5.2929,-5.2929,-5.2929,-5.2929,-5.2929,-5.2929,-5.2929,-5.2929,-4.959,-5.0142,-5.067,-5.1348,-5.3482,0.0,-5.6846,-5.8805,-5.9759,-5.873,-5.8956,-5.9056,-5.8654,-6.0412,-6.1291,-6.0387,-6.0638,-6.0437,-5.9558,-5.9282,-5.878,-5.7926,-5.6997,-5.5892,-5.4658,-5.4336,-5.3538,-5.2108,-5.0523,-4.9402,0.0,-4.7134,0.0,0.0,0.0,0.0,0.0,0.0,-5.067,-5.2151,-5.2703,-5.2929,-5.2929,-5.2929,-5.2929,-5.2929,-5.2929,-5.2929,-5.2929,-5.2929,-5.2929,-5.2929,-5.2929,-5.2929,-5.2929,-5.2929,-5.2929,-5.2929,-5.2929,-5.2929,-5.2929,-5.2929,-5.3193,-5.3525,-5.3525,-5.3884,-5.4123,-5.3645,-5.3525,-5.379,-5.4722,-5.4482,0.0,0.0,0.0,0.0,0.0,0.0,-5.3089,-5.2528,-5.1393,-4.9841,-4.7933,0.0,0.0,0.0,0.0,-4.6778,-4.6326,-4.723,0.0,0.0,0.0,0.0,-5.2101,0.0,-5.2277,0.0,-5.2277,-5.2277,-5.2302,-5.2729,-5.2929,-5.2929,-5.2929,-5.2929,-5.2929,-5.2929,-5.2929,-5.2929,-5.2929,-5.2929,-5.2929,-5.2929,-5.2929,-5.2929,0.0,0.0,0.0,0.0,0.0,0.0,-5.7022,-5.8478,-5.9885,-6.0763,-6.0914,-6.0939,-6.0889,-6.0638,-6.0437,-6.0337,-5.991,-5.9608,-5.9508,-5.8579,-5.8001,-5.7901,-5.5892,-5.4712,-5.4561,-5.3582,-5.2018,-4.9923,-4.9267,-4.7612,0.0,0.0,0.0,0.0,0.0,0.0,0.0,-4.9464,-5.1021,-5.2151,-5.2703,-5.2929,-5.2929,-5.2929,-5.2929,-5.2929,-5.2929,-5.2929,-5.2929,-5.2929,-5.2929,-5.2929,-5.2929,-5.2929,-5.2929,-5.2929,-5.2929,-5.2929,-5.2929,-5.2929,-5.2929,-5.2929,-5.2955,-5.2955,-5.2955,-5.3048,-5.3048,-5.2955,-5.2955,-5.3048,-5.3074,-5.3074,-5.2955,0.0,0.0,0.0,0.0,0.0,-5.2035,-5.1513,-5.133,-5.0142,-4.7456,-4.7631,0.0,0.0,-4.6075,-4.6376,-4.6301,-4.6878,0.0,-4.8736,0.0,-5.0971,-5.2101,-5.2603,0.0,-5.2854,-5.2854,-5.2854,-5.2854,-5.2904,-5.2929,-5.2929,-5.2929,-5.2929,-5.2929,-5.2929,-5.2929,-5.2929,-5.2929,-5.2929,-5.2929,-5.2929,-5.2929,-5.2929,0.0,0.0,0.0,0.0,0.0,0.0,0.0,-5.8102,-5.8704,-5.9156,-5.9759,-6.006,-5.9734,-5.9508,-5.9232,-5.8905,-5.8956,-5.888,-5.8554,-5.8127,-5.775,-5.7399,-5.5892,-5.4913,-5.4587,-5.3808,-5.2477,0.0,-4.9364,0.0,0.0,0.0,0.0,0.0,0.0,-4.6979,-4.8209,-4.9766,-5.1071,-5.2151,-5.2703,-5.2929,-5.2929,-5.2929,-5.2929,-5.2929,-5.2929,-5.2929,-5.2929,-5.2929,-5.2929,-5.2929,-5.2929,-5.2929,-5.2929,-5.2929,-5.2929,-5.2929,-5.2929,-5.2929,-5.2929,-5.2929,-5.2929,-5.2929,-5.2929,-5.2929,-5.2929,-5.2929,-5.2929,-5.2929,-5.2929,-5.2929,-5.2836,0.0,0.0,0.0,0.0,0.0,0.0,-5.087,-5.0167,-4.9088,-4.7305,0.0,0.0,0.0,0.0,-4.6301,-4.6301,-4.6527,0.0,-4.8209,0.0,-5.0469,-5.1599,-5.2477,-5.2929,-5.2929,-5.2929,-5.2929,-5.2929,-5.2929,-5.2929,-5.2929,-5.2929,-5.2929,-5.2929,-5.2929,-5.2929,-5.2929,-5.2929,-5.2929,-5.2929,-5.2929,-5.2929,-5.2929,-5.308,0.0,-5.411,0.0,-5.5691,-5.6068,-5.765,-5.7901,-5.7901,-5.7901,-5.8403,-5.8704,-5.8504,-5.8478,-5.8328,-5.7926,-5.8252,-5.8252,-5.7675,-5.7499,-5.7148,-5.657,-5.5491,0.0,-5.431,-5.3758,-5.2754,-5.1272,-5.0092,0.0,0.0,0.0,0.0,0.0,-4.6928,-4.8159,-4.9339,-5.0444,-5.1473,-5.2377,-5.2779,-5.2929,-5.2929,-5.2929,-5.2929,-5.2929,-5.2929,-5.2929,-5.2929,-5.2929,-5.2929,-5.2929,-5.2929,-5.2929,-5.2929,-5.2929,-5.2929,-5.2929,-5.2929,-5.2929,-5.2929,-5.2929,-5.2929,-5.2929,-5.2929,-5.2929,-5.2929,-5.2929,-5.2929,-5.2929,-5.2929,-5.2929,-5.2836,-5.2692,0.0,0.0,0.0,-5.2359,0.0,-5.055,-4.9428,-4.8297,-4.7004,-4.6552,0.0,0.0,0.0,0.0,0.0,0.0,0.0,0.0,0.0,0.0,0.0,-5.2452,-5.2929,-5.2929,-5.2929,-5.2929,-5.2929,-5.2929,-5.2929,-5.2929,-5.2929,-5.2929,-5.2929,-5.2929,-5.2929,-5.2929,-5.2929,-5.2929,-5.2929,-5.2929,-5.2929,-5.2929,-5.3482,-5.4587,-5.5717,-5.6821,-5.7474,-5.7876,-5.7901,-5.7901,-5.7901,-5.7901,-5.7424,-5.7273,-5.7851,-5.7901,-5.7901,-5.7901,-5.7901,-5.765,-5.7072,-5.652,-5.5993,0.0,0.0,-5.3708,-5.3708,-5.3206,-5.2402,-5.1272,0.0,0.0,-4.7908,0.0,-4.7857,-4.7933,-4.9615,-5.0368,-5.0469,-5.1599,-5.2402,-5.2929,-5.2929,-5.2929,-5.2929,-5.2929,-5.2929,-5.2929,-5.2929,-5.2929,-5.2929,-5.2929,-5.2929,-5.2929,-5.2929,-5.2929,-5.2929,-5.2929,-5.2929,-5.2929,-5.2929,-5.2929,-5.2929,-5.2929,-5.2929,-5.2929,-5.2929,-5.2929,-5.2929,-5.2929,-5.2929,-5.2929,-5.2929,-5.2929,-5.2717,-5.2216,0.0,0.0,0.0,0.0,0.0,-5.0532,-4.9482,-4.8133,-4.6476,0.0,0.0,0.0,0.0,0.0,0.0,0.0,0.0,-4.8736,-4.9841,0.0,-5.2076,-5.2653,-5.2929,-5.2929,-5.2929,-5.2929,-5.2929,-5.2929,-5.2929,-5.2929,-5.2929,-5.2929,-5.2929,-5.2929,-5.2929,-5.2929,-5.2929,-5.2929,-5.2929,-5.2929,-5.2929,-5.2929,-5.4135,-5.4888,-5.5616,-5.6344,-5.662,-5.6746,-5.6746,-5.6746,-5.662,-5.6244,-5.6018,-5.5842,-5.5641,-5.6294,-5.6595,0.0,-5.652,-5.6344,0.0,-5.5541,-5.5415,-5.4863,-5.411,-5.3708,-5.3708,-5.3181,-5.2754,-5.2402,0.0,0.0,0.0,-4.8887,-4.9063,-4.9113,-5.0419,-5.1222,-5.1624,-5.2352,-5.2754,-5.2929,-5.2929,-5.2929,-5.2929,-5.2929,-5.2929,-5.2929,-5.2929,-5.2929,-5.2929,-5.2929,-5.2929,-5.2929,-5.2929,-5.2929,-5.2929,-5.2929,-5.2929,-5.2929,-5.2929,-5.2929,-5.2929,-5.2929,-5.2929,-5.2929,-5.2929,-5.2929,-5.2929,-5.2929,-5.2929,-5.2929,-5.2929,-5.2929,-5.2836,-5.2692,-5.281,0.0,0.0,0.0,-5.053,-4.9432,-4.8621,-4.7708,0.0,-4.6652,0.0,0.0,0.0,0.0,0.0,0.0,0.0,0.0,-5.0042,0.0,-5.2101,-5.2277,-5.2553,-5.2929,-5.2929,-5.2929,-5.2929,-5.2929,-5.2929,-5.2929,-5.2929,-5.2929,-5.2929,-5.2929,-5.2929,-5.2929,-5.2929,-5.2929,-5.2929,-5.2929,-5.2929,-5.2929,-5.4135,-5.4511,-5.4938,-5.5491,-5.5591,-5.5591,-5.5591,-5.5591,-5.5465,-5.5114,-5.5089,-5.4938,-5.4612,-5.5189,0.0,-5.5114,-5.539,-5.5214,-5.431,-5.4561,-5.4511,-5.3959,-5.3607,-5.3406,-5.3406,0.0,0.0,-5.2929,-5.2026,-5.1147,-5.0343,-5.0469,-5.0645,-5.087,-5.1574,-5.2101,-5.2427,-5.2779,-5.2929,-5.2929,-5.2929,-5.2929,-5.2929,-5.2929,-5.2929,-5.2929,-5.2929,-5.2929,-5.2929,-5.2929,-5.2929,-5.2929,-5.2929,-5.2929,-5.2929,-5.2929,-5.2929,-5.2929,-5.2929,-5.2929,-5.2929,-5.2929,-5.2929,-5.2929,-5.2929,-5.2929,-5.2929,-5.2929,-5.2929,-5.2929,-5.2929,-5.2929,-5.2929,-5.2929,-5.2717,-5.2385,-5.1886,0.0,0.0,0.0,0.0,0.0,0.0,-4.723,0.0,0.0,0.0,0.0,0.0,0.0,0.0,-4.9866,-5.0444,0.0,-5.2402,-5.2427,-5.2578,-5.2929,-5.2929,-5.2929,-5.2929,-5.2929,-5.2929,-5.2929,-5.2929,-5.2929,-5.2929,-5.2929,-5.2929,-5.2929,-5.2929,-5.2929,-5.2929,-5.2929,-5.2929,-5.2929,-5.3607,-5.3708,0.0,0.0,-5.4561,0.0,-5.4561,-5.4561,-5.4536,-5.4511,-5.4511,-5.4486,-5.4461,-5.4461,-5.4461,-5.4461,0.0,0.0,0.0,-5.3658,-5.3432,-5.2955,-5.2929,0.0,-5.2929,-5.2929,-5.2929,-5.2929,-5.2427,-5.2427,-5.2929,-5.2402,-5.2427,-5.2929,-5.2929,-5.2929,-5.2929,-5.2879,-5.2904,-5.2929,-5.2879,-5.2904,-5.2929,-5.2929,-5.2929,-5.2929,-5.2929,-5.2929,-5.2929,-5.2929,-5.2929,-5.2929,-5.2929,-5.2929,-5.2929,-5.2929,-5.2929,-5.2929,-5.2929,-5.2929,-5.2929,-5.2929,-5.2929,-5.2929,-5.2929,-5.2929,-5.2929,-5.2929,-5.2929,-5.2929,-5.2929,-5.2929,-5.2929,-5.2836,-5.2385,-5.1836,-5.124,0.0,0.0,0.0,0.0,0.0,0.0,-4.7958,-4.7782,0.0,0.0,0.0,0.0,0.0,-4.8786,-5.0419,-5.1046,-5.185,-5.2929,-5.2879,-5.2879,-5.2929,-5.2929,-5.2929,-5.2929,-5.2929,-5.2929,-5.2929,-5.2929,-5.2929,-5.2929,-5.2929,-5.2929,-5.2929,-5.2929,-5.2929,-5.2929,-5.2929,-5.2929,-5.2929,0.0,0.0,-5.3884,-5.4461,-5.4561,-5.4561,-5.4561,-5.4561,-5.4411,-5.3959,-5.3909,-5.3758,-5.3356,-5.3306,-5.3306,-5.3306,-5.3683,-5.3683,-5.3155,-5.3105,-5.3055,-5.2929,-5.2929,-5.2929,-5.2929,-5.2929,-5.2929,-5.2929,-5.2804,-5.2804,-5.2929,-5.2804,-5.2804,-5.2929,-5.2929,-5.2929,-5.2904,-5.2477,-5.2553,-5.2879,-5.2477,-5.2553,-5.2929,-5.2929,-5.2929,-5.2929,-5.2929,-5.2929,-5.2929,-5.2929,-5.2929,-5.2929,-5.2929,-5.2929,-5.2929,-5.2929,-5.2929,-5.2929,-5.2929,-5.2929,-5.2929,-5.2929,-5.2929,-5.2929,-5.2929,-5.2929,-5.2929,-5.2929,-5.2929,-5.2929,-5.2929,-5.2929,-5.2742,-5.236,-5.1817,-5.1105,-5.0156,-4.9027,0.0,0.0,-4.7983,-4.7902,-4.7895,-4.8347,-4.851,0.0,0.0,0.0,0.0,0.0,-4.9766,-5.1046,-5.1624,-5.2226,-5.2929,-5.2503,-5.2503,-5.2929,-5.2929,-5.2929,-5.2929,-5.2929,-5.2929,-5.2929,-5.2929,-5.2929,-5.2929,-5.2929,-5.2929,-5.2929,-5.2929,-5.2929,-5.2929,-5.2929,-5.2929,-5.2929,-5.3281,-5.3356,-5.3457,-5.3758,-5.3808,-5.3808,-5.3808,-5.3808,-5.3708,-5.3381,-5.3356,-5.3231,-5.2955,-5.2929,-5.2929,-5.2929,-5.3181,-5.3231,-5.2955,-5.2929,-5.2929,-5.2929,-5.2929,-5.2929,-5.2929,-5.2929,-5.2929,-5.2929,-5.2929,-5.2804,-5.2553,-5.2553,-5.2553,-5.2528,-5.2277,-5.2452,-5.2879,-5.2327,-5.2427,-5.2904,-5.2603,-5.2653,-5.2929,-5.2929,-5.2929,-5.2929,-5.2929,-5.2929,-5.2929,-5.2929,-5.2929,-5.2929,-5.2929,-5.2929,-5.2929,-5.2929,-5.2929,-5.2929,-5.2929,-5.2929,-5.2929,-5.2929,-5.2929,-5.2929,-5.2929,-5.2929,-5.2929,-5.2929,-5.2929,-5.2929,-5.2929,-5.2929,-5.2631,-5.1841,-5.1235,-5.0413,-4.9039,-4.8095,0.0,-4.7846,-4.7907,-4.8219,-4.8957,-4.935,-4.9414,-4.9163,0.0,0.0,-4.9565,-5.0092,-5.0645,-5.1272,-5.1825,-5.2377,-5.2929,-5.2628,-5.2628,-5.2929,-5.2929,-5.2929,-5.2929,-5.2929,-5.2929,-5.2929,-5.2929,-5.2929,-5.2929,-5.2929,-5.2929,-5.2929,-5.2929,-5.2929,-5.2929,-5.2929,-5.2929,-5.2929,-5.2929,-5.2929,-5.2929,-5.2929,-5.2929,-5.2929,-5.2929,-5.2929,-5.2929,-5.2929,-5.2929,-5.2929,-5.2929,-5.2929,-5.2929,-5.2929,-5.2929,-5.2929,-5.2929,-5.2929,-5.2929,-5.2929,-5.2929,-5.2929,-5.2929,-5.2929,-5.2929,-5.2929,-5.2929,-5.2678,-5.2226,-5.2151,-5.2101,-5.2076,-5.1523,-5.18,-5.2628,-5.2076,-5.2226,-5.2804,-5.2703,-5.2779,-5.2929,-5.2929,-5.2929,-5.2929,-5.2929,-5.2929,-5.2929,-5.2929,-5.2929,-5.2929,-5.2929,-5.2929,-5.2929,-5.2929,-5.2929,-5.2929,-5.2929,-5.2929,-5.2929,-5.2929,-5.2929,-5.2929,-5.2929,-5.2929,-5.2929,-5.2929,-5.2929,-5.2929,-5.2929,-5.2836,-5.2421,-5.1487,-5.0592,-4.952,-4.8119,0.0,-4.7237,-4.7945,-4.8095,-4.8763,-5.0362,-5.0569,-5.0393,-5.0017,-5.0318,-5.0368,0.0,-5.087,-5.1398,-5.1398,-5.195,-5.2452,-5.2929,-5.2929,-5.2929,-5.2929,-5.2929,-5.2929,-5.2929,-5.2929,-5.2929,-5.2929,-5.2929,-5.2929,-5.2929,-5.2929,-5.2929,-5.2929,-5.2929,-5.2929,-5.2929,-5.2929,-5.2929,-5.2929,-5.2929,-5.2929,-5.2929,-5.2929,-5.2929,-5.2929,-5.2929,-5.2929,-5.2929,-5.2929,-5.2929,-5.2929,-5.2929,-5.2929,-5.2929,-5.2929,-5.2929,-5.2929,-5.2929,-5.2929,-5.2929,-5.2929,-5.2929,-5.2929,-5.2929,-5.2929,-5.2929,-5.2929,-5.2929,-5.2879,-5.2779,-5.2327,-5.2101,-5.2076,-5.1523,-5.1373,-5.1498,-5.0921,-5.1272,-5.2201,-5.1724,-5.2101,-5.2929,-5.2929,-5.2929,-5.2929,-5.2929,-5.2929,-5.2929,-5.2929,-5.2929,-5.2929,-5.2929,-5.2929,-5.2929,-5.2929,-5.2929,-5.2929,-5.2929,-5.2929,-5.2929,-5.2929,-5.2929,-5.2929,-5.2929,-5.2929,-5.2929,-5.2929,-5.2929,-5.2929,-5.2929,-5.2504,-5.2008,-5.1396,-4.9625,-4.8186,-4.794,0.0,-4.696,-4.8469,-4.9035,-4.9801,-5.1055,-5.118,-5.1297,-5.1674,-5.1373,-5.1322,-5.1699,-5.1875,-5.1975,-5.1975,-5.2528,-5.2829,-5.2929,-5.2929,-5.2929,-5.2929,-5.2929,-5.2929,-5.2929,-5.2929,-5.2929,-5.2929,-5.2929,-5.2929,-5.2929,-5.2929,-5.2929,-5.2929,-5.2929,-5.2929,-5.2929,-5.2929,-5.2929,-5.2854,-5.2929,-5.2929,-5.2929,-5.2929,-5.2929,-5.2929,-5.2929,-5.2929,-5.2929,-5.2929,-5.2929,-5.2929,-5.2929,-5.2929,-5.2929,-5.2929,-5.2929,-5.2929,-5.2929,-5.2929,-5.2929,-5.2929,-5.2929,-5.2929,-5.2929,-5.2929,-5.2929,-5.2929,-5.2929,-5.2628,-5.2026,-5.1774,-5.1498,-5.1172,-5.0619,-5.072,-5.1247,-5.067,-5.0896,-5.1649,-5.1373,-5.1774,-5.2477,-5.2477,-5.2678,-5.2929,-5.2929,-5.2929,-5.2929,-5.2929,-5.2929,-5.2929,-5.2929,-5.2929,-5.2929,-5.2929,-5.2929,-5.2929,-5.2929,-5.2929,-5.2929,-5.2929,-5.2929,-5.2929,-5.2929,-5.2929,-5.2929,-5.2929,-5.2929,-5.2929,-5.2929,-5.2717,-5.2284,-5.1443,-4.9896,0.0,0.0,-4.7683,-4.7686,-4.9047,-4.9719,-5.0504,-5.1597,-5.1707,-5.1825,-5.2076,-5.1875,-5.1699,-5.1649,-5.195,-5.2101,-5.2101,-5.2628,-5.2929,-5.2929,-5.2929,-5.2929,-5.2929,-5.2929,-5.2929,-5.2929,-5.2929,-5.2929,-5.2929,-5.2929,-5.2929,-5.2929,-5.2929,-5.2929,-5.2929,-5.2929,-5.2929,-5.2929,-5.2929,-5.2729,-5.2452,-5.2929,-5.2929,-5.2929,-5.2929,-5.2929,-5.2929,-5.2929,-5.2929,-5.2929,-5.2929,-5.2929,-5.2929,-5.2929,-5.2929,-5.2929,-5.2929,-5.2929,-5.2929,-5.2929,-5.2929,-5.2929,-5.2929,-5.2929,-5.2929,-5.2929,-5.2929,-5.2929,-5.2929,-5.2804,-5.2302,-5.1473,-5.1197,-5.0845,-5.0393,-4.9841,-5.0067,-5.0845,-5.0419,-5.0544,-5.1071,-5.1071,-5.1498,-5.2101,-5.2101,-5.2452,-5.2929,-5.2929,-5.2929,-5.2929,-5.2929,-5.2929,-5.2929,-5.2929,-5.2929,-5.2929,-5.2929,-5.2929,-5.2929,-5.2929,-5.2929,-5.2929,-5.2929,-5.2929,-5.2929,-5.2929,-5.2929,-5.2929,-5.2929,-5.2929,-5.2929,-5.2929,-5.281,-5.2366,-5.1448,0.0,0.0,0.0,-4.8597,-4.8739,-4.9847,-5.0493,-5.1184,-5.2184,-5.2302,-5.2302,-5.2302,-5.2302,-5.2126,-5.1674,-5.2076,-5.2302,-5.2302,-5.2703,-5.2929,-5.2929,-5.2929,-5.2929,-5.2929,-5.2929,-5.2929,-5.2929,-5.2929,-5.2929,-5.2929,-5.2929,-5.2929,-5.2929,-5.2779,-5.2729,-5.2729,-5.2603,-5.2628,-5.2729,-5.2578,-5.2352,-5.2076,-5.2929,-5.2929,-5.2929,-5.2929,-5.2929,-5.2929,-5.2929,-5.2929,-5.2929,-5.2929,-5.2929,-5.2929,-5.2929,-5.2929,-5.2929,-5.2929,-5.2929,-5.2929,-5.2929,-5.2929,-5.2929,-5.2929,-5.2929,-5.2929,-5.2929,-5.2929,-5.2929,-5.2929,-5.2427,-5.2126,-5.2026,-5.0971,-5.0469,-5.0393,-4.9841,-4.964,-4.9715,-4.9665,-4.9967,-5.0469,-5.0469,-5.1122,-5.2101,-5.2101,-5.2452,-5.2929,-5.2929,-5.2929,-5.2929,-5.2929,-5.2929,-5.2929,-5.2929,-5.2929,-5.2929,-5.2929,-5.2929,-5.2929,-5.2929,-5.2929,-5.2929,-5.2929,-5.2929,-5.2929,-5.2929,-5.2929,-5.2929,-5.2929,-5.2929,-5.2929,-5.2929,-5.2479,-5.1986,-5.1356,0.0,0.0,-4.9529,-4.9461,-4.9872,-5.1048,-5.1668,-5.2167,-5.276,-5.2879,-5.2879,-5.2879,-5.2879,-5.2854,-5.2804,-5.2854,-5.2879,-5.2879,-5.2904,-5.2929,-5.2929,-5.2929,-5.2929,-5.2929,-5.2929,-5.2929,-5.2929,-5.2929,-5.2929,-5.2929,-5.2929,-5.2929,-5.2879,-5.2377,-5.2176,-5.2126,-5.1599,-5.1724,-5.2101,-5.1599,-5.1699,-5.195,-5.2929,-5.2929,-5.2929,-5.2929,-5.2929,-5.2929,-5.2929,-5.2929,-5.2929,-5.2929,-5.2929,-5.2929,-5.2929,-5.2929,-5.2929,-5.2929,-5.2929,-5.2929,-5.2929,-5.2929,-5.2929,-5.2929,-5.2929,-5.2779,-5.2427,-5.2754,-5.2578,-5.19,-5.2051,-5.1749,-5.1046,-5.0619,-5.0243,-4.9891,-4.969,-4.959,-4.959,-4.959,-4.9715,-4.9941,-5.0268,-5.0896,-5.1624,-5.1975,-5.2452,-5.2929,-5.2929,-5.2929,-5.2929,-5.2929,-5.2929,-5.2929,-5.2929,-5.2929,-5.2929,-5.2929,-5.2929,-5.2929,-5.2929,-5.2929,-5.2929,-5.2929,-5.2929,-5.2929,-5.2929,-5.2929,-5.2929,-5.2929,-5.2929,-5.2929,-5.2929,-5.2717,-5.2566,-5.2352,0.0,-5.0787,-5.1122,-5.0847,-5.0904,-5.1668,-5.2266,-5.2692,-5.2861,-5.2929,-5.2929,-5.2929,-5.2929,-5.2779,-5.2427,-5.2427,-5.2578,-5.2929,-5.2929,-5.2929,-5.2929,-5.2929,-5.2929,-5.2929,-5.2929,-5.2929,-5.2929,-5.2929,-5.2929,-5.2929,-5.2929,-5.2929,-5.2879,-5.2327,-5.2101,-5.2051,-5.1498,-5.1398,-5.1574,-5.1348,-5.1197,-5.0996,-5.2904,-5.2929,-5.2929,-5.2929,-5.2929,-5.2929,-5.2929,-5.2929,-5.2929,-5.2929,-5.2929,-5.2929,-5.2929,-5.2929,-5.2929,-5.2929,-5.2929,-5.2929,-5.2929,-5.2929,-5.2929,-5.2929,-5.2929,-5.2754,-5.2377,-5.2578,-5.2377,-5.18,-5.1649,-5.1272,-5.067,-5.0318,-4.9967,-4.959,-4.959,-4.959,-4.959,-4.959,-4.969,-4.9891,-5.0268,-5.087,-5.1574,-5.195,-5.2452,-5.2929,-5.2929,-5.2929,-5.2929,-5.2929,-5.2929,-5.2929,-5.2929,-5.2929,-5.2929,-5.2929,-5.2929,-5.2929,-5.2929,-5.2929,-5.2929,-5.2929,-5.2929,-5.2929,-5.2929,-5.2929,-5.2929,-5.2929,-5.2929,-5.2929,-5.2929,-5.2929,-5.2836,-5.2692,-5.2184,-5.1858,-5.2054,-5.1915,-5.1958,-5.2285,-5.2692,-5.2929,-5.2929,-5.2929,-5.2929,-5.2929,-5.2929,-5.2754,-5.2377,-5.2201,-5.2277,-5.2653,-5.2678,-5.2678,-5.2678,-5.2829,-5.2929,-5.2929,-5.2929,-5.2929,-5.2929,-5.2929,-5.2929,-5.2929,-5.2754,-5.2678,-5.2603,-5.1875,-5.1574,-5.1523,-5.0971,-5.0845,-5.0996,-5.082,-5.0619,-5.0393,-5.2804,-5.2929,-5.2929,-5.2929,-5.2929,-5.2929,-5.2929,-5.2929,-5.2929,-5.2929,-5.2929,-5.2929,-5.2929,-5.2929,-5.2929,-5.2929,-5.2929,-5.2929,-5.2929,-5.2929,-5.2929,-5.2929,-5.2929,-5.2929,-5.2929,-5.2402,-5.2377,-5.2904,-5.1247,-5.072,-5.1247,-5.0117,-4.959,-4.959,-4.959,-4.959,-4.959,-4.959,-4.9916,-5.0419,-5.0419,-5.1096,-5.2101,-5.2101,-5.2452,-5.2929,-5.2929,-5.2929,-5.2929,-5.2929,-5.2929,-5.2929,-5.2929,-5.2929,-5.2929,-5.2929,-5.2929,-5.2929,-5.2929,-5.2929,-5.2929,-5.2929,-5.2929,-5.2929,-5.2929,-5.2929,-5.2929,-5.2929,-5.2929,-5.2929,-5.2929,-5.2929,-5.2717,-5.2216,-5.2573,-5.2678,-5.2203,-5.2571,-5.2929,-5.2929,-5.2929,-5.2929,-5.2929,-5.2929,-5.2929,-5.2929,-5.2929,-5.2929,-5.2929,-5.2402,-5.2101,-5.2101,-5.2101,-5.2101,-5.2101,-5.2653,-5.2929,-5.2929,-5.2929,-5.2929,-5.2929,-5.2929,-5.2929,-5.2904,-5.2352,-5.2101,-5.2026,-5.087,-5.0419,-5.0368,-4.9816,-4.9941,-5.0343,-4.9791,-4.9941,-5.0343,-5.2251,-5.2352,-5.2477,-5.2854,-5.2929,-5.2929,-5.2929,-5.2929,-5.2929,-5.2929,-5.2929,-5.2929,-5.2929,-5.2929,-5.2929,-5.2929,-5.2929,-5.2929,-5.2929,-5.2929,-5.2929,-5.2929,-5.2929,-5.2754,-5.2352,-5.2578,-5.2377,-5.1774,-5.1272,-5.0896,-5.067,-4.9941,-4.959,-4.959,-4.959,-4.959,-4.959,-4.959,-4.9916,-5.0444,-5.087,-5.1448,-5.2151,-5.2528,-5.2779,-5.2929,-5.2929,-5.2929,-5.2929,-5.2929,-5.2929,-5.2929,-5.2929,-5.2929,-5.2929,-5.2929,-5.2929,-5.2929,-5.2929,-5.2929,-5.2929,-5.2929,-5.2929,-5.2929,-5.2929,-5.2929,-5.2929,-5.2929,-5.2929,-5.2929,-5.2929,-5.2929,-5.2836,-5.2692,-5.281,-5.2854,-5.2653,-5.2804,-5.2929,-5.2929,-5.2929,-5.2929,-5.2929,-5.2929,-5.2929,-5.2929,-5.2578,-5.2352,-5.2352,-5.2201,-5.2101,-5.2101,-5.2101,-5.2101,-5.2101,-5.2277,-5.2553,-5.2929,-5.2929,-5.2929,-5.2929,-5.2929,-5.2929,-5.2904,-5.2352,-5.2101,-5.2026,-5.087,-5.0419,-5.0368,-4.9816,-4.969,-4.9816,-4.9665,-4.969,-4.9816,-5.1674,-5.1774,-5.1875,-5.2226,-5.2452,-5.2528,-5.2302,-5.2653,-5.2779,-5.2327,-5.2477,-5.2528,-5.2302,-5.2277,-5.2377,-5.2578,-5.2804,-5.2829,-5.2628,-5.2804,-5.2929,-5.2929,-5.2929,-5.2779,-5.2427,-5.2553,-5.2377,-5.1925,-5.1498,-5.1096,-5.0745,-5.0419,-5.0017,-4.9615,-5.0067,-5.0017,-4.9615,-5.0067,-5.0469,-5.082,-5.1373,-5.195,-5.2477,-5.2804,-5.2929,-5.2929,-5.2929,-5.2929,-5.2929,-5.2929,-5.2929,-5.2929,-5.2929,-5.2929,-5.2929,-5.2929,-5.2929,-5.2929,-5.2929,-5.2929,-5.2929,-5.2929,-5.2929,-5.2929,-5.2929,-5.2929,-5.2929,-5.2929,-5.2929,-5.2929,-5.2929,-5.2929,-5.2929,-5.2929,-5.2929,-5.2929,-5.2929,-5.2929,-5.2929,-5.2929,-5.2929,-5.2929,-5.2929,-5.2929,-5.2929,-5.2929,-5.2226,-5.1975,-5.2402,-5.2026,-5.1875,-5.2101,-5.2101,-5.2,-5.1774,-5.2,-5.2277,-5.2603,-5.2603,-5.2603,-5.2603,-5.2603,-5.2603,-5.2553,-5.1774,-5.1448,-5.1373,-5.0469,-5.0092,-5.0067,-4.9715,-4.959,-4.959,-4.959,-4.959,-4.959,-5.0797,-5.0947,-5.1064,-5.1272,-5.1699,-5.185,-5.1348,-5.2126,-5.2427,-5.1423,-5.1724,-5.185,-5.1348,-5.1272,-5.1498,-5.2,-5.2528,-5.2628,-5.2126,-5.2628,-5.2929,-5.2929,-5.2929,-5.2929,-5.2929,-5.2427,-5.2427,-5.2929,-5.1875,-5.1348,-5.1348,-5.1297,-5.0745,-4.9791,-5.082,-5.0695,-4.9816,-5.0845,-5.1272,-5.1322,-5.1875,-5.2402,-5.2854,-5.2904,-5.2929,-5.2929,-5.2929,-5.2929,-5.2929,-5.2929,-5.2929,-5.2929,-5.2929,-5.2929,-5.2929,-5.2929,-5.2929,-5.2929,-5.2929,-5.2929,-5.2929,-5.2929,-5.2929,-5.2929,-5.2929,-5.2929,-5.2929,-5.2929,-5.2929,-5.2929,-5.2929,-5.2929,-5.2929,-5.2929,-5.2929,-5.2929,-5.2929,-5.2929,-5.2929,-5.2929,-5.2929,-5.2929,-5.2929,-5.2929,-5.2879,-5.2779,-5.19,-5.1774,-5.2729,-5.1875,-5.1599,-5.2076,-5.2051,-5.18,-5.1297,-5.1724,-5.1975,-5.2026,-5.2076,-5.2101,-5.2101,-5.2051,-5.2051,-5.2051,-5.0896,-5.0419,-5.0368,-4.9816,-4.959,-4.959,-4.959,-4.959,-4.959,-4.959,-4.959,-4.959,-4.7841,-4.8209,-4.9072,-5.0997,-5.1373,-5.1423,-5.1297,-5.1498,-5.1548,-5.1322,-5.1398,-5.1423,-5.1297,-5.1272,-5.1322,-5.1448,-5.1975,-5.2226,-5.2126,-5.2628,-5.2929,-5.2929,-5.2929,-5.2929,-5.2929,-5.2804,-5.2804,-5.2929,-5.2251,-5.1925,-5.1925,-5.1498,-5.1147,-5.0921,-5.1172,-5.1147,-5.0946,-5.1172,-5.1272,-5.1322,-5.1875,-5.2176,-5.2327,-5.2754,-5.2929,-5.2929,-5.2929,-5.2929,-5.2929,-5.2929,-5.2929,-5.2929,-5.2929,-5.2929,-5.2929,-5.2929,-5.2929,-5.2929,-5.2929,-5.2929,-5.2929,-5.2929,-5.2929,-5.2929,-5.2929,-5.2929,-5.2929,-5.2929,-5.2929,-5.2929,-5.2929,-5.2929,-5.2929,-5.2929,-5.2929,-5.2929,-5.2929,-5.2929,-5.2929,-5.2929,-5.2929,-5.2929,-5.2929,-5.2929,-5.2578,-5.1699,-5.1825,-5.185,-5.1649,-5.1825,-5.1975,-5.2101,-5.1674,-5.1398,-5.1272,-5.0946,-5.1021,-5.1473,-5.19,-5.2101,-5.2101,-5.1649,-5.1699,-5.2051,-5.0896,-5.0419,-5.0368,-4.9816,-4.959,-4.959,-4.959,-4.959,-4.959,-4.959,-4.959,-4.959,-4.5195,-4.5453,-4.6139,-4.7583,-4.8797,-4.9163,-4.8064,-4.9805,-5.0805,-4.9345,-5.0141,-5.077,-5.0494,-4.9694,-4.9113,-4.9113,-5.0953,-5.1875,-5.1322,-5.2076,-5.2528,-5.2528,-5.2277,-5.2402,-5.2929,-5.2678,-5.2653,-5.2929,-5.2628,-5.2226,-5.1724,-5.195,-5.1649,-5.0896,-5.1724,-5.1774,-5.1322,-5.185,-5.1925,-5.1724,-5.2277,-5.2503,-5.2528,-5.2829,-5.2929,-5.2929,-5.2929,-5.2929,-5.2929,-5.2929,-5.2929,-5.2929,-5.2929,-5.2929,-5.2929,-5.2929,-5.2929,-5.2929,-5.2929,-5.2929,-5.2929,-5.2929,-5.2929,-5.2929,-5.2929,-5.2929,-5.2929,-5.2929,-5.2929,-5.2929,-5.2929,-5.2929,-5.2929,-5.2929,-5.2929,-5.2929,-5.2929,-5.2929,-5.2929,-5.2929,-5.2929,-5.2929,-5.2929,-5.2929,-5.2678,-5.2126,-5.2101,-5.2101,-5.2076,-5.2101,-5.2226,-5.2477,-5.2226,-5.1825,-5.1297,-5.1498,-5.1373,-5.087,-5.1448,-5.1574,-5.1297,-5.0996,-5.1021,-5.1247,-5.0393,-5.0017,-5.0017,-4.9715,-4.959,-4.959,-4.959,-4.959,-4.959,-4.959,-4.959,-4.959,-4.2637,-4.2837,-4.3149,-4.3846,-4.5689,-4.6442,-4.4389,-4.7515,-4.9175,-4.665,-4.8119,-4.9125,-4.8682,-4.7245,-4.6331,-4.6331,-4.9179,-5.0555,-4.9643,-5.053,-5.1166,-5.1166,-5.0623,-5.0907,-5.2098,-5.1774,-5.2011,-5.2929,-5.2929,-5.2452,-5.1574,-5.2402,-5.2051,-5.077,-5.2076,-5.2176,-5.1473,-5.2402,-5.2528,-5.2151,-5.2703,-5.2879,-5.2804,-5.2904,-5.2929,-5.2929,-5.2929,-5.2929,-5.2929,-5.2929,-5.2929,-5.2929,-5.2929,-5.2929,-5.2929,-5.2929,-5.2929,-5.2929,-5.2929,-5.2929,-5.2929,-5.2929,-5.2929,-5.2929,-5.2929,-5.2929,-5.2929,-5.2929,-5.2929,-5.2929,-5.2929,-5.2929,-5.2929,-5.2929,-5.2929,-5.2929,-5.2929,-5.2929,-5.2929,-5.2929,-5.2929,-5.2929,-5.2929,-5.2929,-5.2879,-5.2804,-5.2452,-5.2402,-5.2779,-5.2352,-5.2302,-5.2779,-5.2703,-5.2151,-5.1147,-5.2151,-5.185,-5.0293,-5.087,-5.0946,-5.0569,-5.0368,-5.0318,-5.0393,-4.9841,-4.959,-4.959,-4.959,-4.959,-4.959,-4.959,-4.959,-4.959,-4.959,-4.959,-4.959,-3.993,-4.052,-4.1555,-4.3173,-4.4074,-4.4458,-4.4116,-4.464,-4.496,-4.4527,-4.4778,-4.4937,-4.4869,-4.4596,-4.4436,-4.4436,-4.5709,-4.6418,-4.6282,-4.6806,-4.7196,-4.7196,-4.6671,-4.7307,-4.9043,-4.9496,-5.0742,-5.2929,-5.2929,-5.2854,-5.2703,-5.2377,-5.2101,-5.1875,-5.1624,-5.1674,-5.2,-5.2151,-5.2176,-5.2151,-5.2703,-5.2628,-5.2277,-5.2754,-5.2929,-5.2929,-5.2929,-5.2929,-5.2929,-5.2929,-5.2929,-5.2929,-5.2929,-5.2929,-5.2929,-5.2929,-5.2929,-5.2929,-5.2929,-5.2929,-5.2929,-5.2929,-5.2929,-5.2929,-5.2929,-5.2929,-5.2929,-5.2929,-5.2929,-5.2929,-5.2929,-5.2929,-5.2929,-5.2929,-5.2929,-5.2929,-5.2929,-5.2929,-5.2929,-5.2929,-5.2929,-5.2929,-5.2929,-5.2929,-5.2729,-5.2251,-5.2578,-5.2628,-5.2226,-5.2151,-5.2126,-5.2226,-5.1749,-5.1197,-5.0544,-5.1172,-5.0896,-4.9715,-5.0268,-5.0745,-5.1122,-5.0142,-4.9967,-5.0393,-4.9841,-4.959,-4.959,-4.959,-4.959,-4.959,-4.959,-4.959,-4.959,-4.959,-4.959,-4.959,-3.7758,-3.8162,-3.8844,-4.0083,-4.1358,-4.1855,-4.0829,-4.2627,-4.3661,-4.2362,-4.3319,-4.4116,-4.4116,-4.4116,-4.3703,-4.2661,-4.4184,-4.5057,-4.4788,-4.5483,-4.5868,-4.5576,-4.5528,-4.611,-4.7279,-4.8544,-4.9859,-5.1303,-5.1303,-5.1521,-5.2,-5.0886,-5.0659,-5.1172,-5.1574,-5.1875,-5.2126,-5.2427,-5.2578,-5.2578,-5.2829,-5.2603,-5.2176,-5.2729,-5.2729,-5.2503,-5.2829,-5.2929,-5.2929,-5.2929,-5.2929,-5.2929,-5.2929,-5.2929,-5.2929,-5.2929,-5.2929,-5.2929,-5.2929,-5.2929,-5.2929,-5.2929,-5.2929,-5.2929,-5.2929,-5.2929,-5.2929,-5.2929,-5.2929,-5.2929,-5.2929,-5.2929,-5.2929,-5.2929,-5.2929,-5.2929,-5.2929,-5.2929,-5.2929,-5.2929,-5.2929,-5.2929,-5.2929,-5.2929,-5.2829,-5.2578,-5.2503,-5.2352,-5.2126,-5.18,-5.1649,-5.1649,-5.1398,-5.0996,-5.0419,-5.0996,-5.087,-5.0067,-5.0293,-5.0393,-5.0318,-4.9816,-4.9715,-4.9941,-4.969,-4.959,-4.959,-4.959,-4.959,-4.959,-4.959,-4.959,-4.959,-4.959,-4.959,-4.959]}]]